     2.11           OBSERVATION DATA    G (GPS)             RINEX VERSION / TYPE
teqc 2010Oct21 OPUS Account 20111028 15:27:40UTC            PGM / RUN BY / DATE
V 1526                                                      MARKER NAME
3056                                                        MARKER NUMBER
CSMIDDLETON NGS                                             OBSERVER / AGENCY
0220390624 TRIMBLE R7 2.32                                  REC # / TYPE / VERS
60125046 TRM41249.00 NONE                                   ANT # / TYPE
  -744139.7632 -5577425.3054  2993131.9567                  APPROX POSITION XYZ
        2.0040        0.0000        0.0000                  ANTENNA: DELTA H/E/N
     1     1                                                WAVELENGTH FACT L1/2
     5    L1    L2    C1    P1    P2                        # / TYPES OF OBSERV
    15                                                      LEAP SECONDS
  2011     8    23     0     0   30.0000000     GPS         TIME OF FIRST OBS
                                                            END OF HEADER
 11  8 23  0  0 30.0000000  0  9G10G12G17G09G05G04G25G02G30
 -47150372.43757 -35840378.35255  20911380.8914                   20911379.7544
 -31547430.51657 -23042296.82055  21669429.8754                   21669428.0824
 -81169802.84457 -63206852.93054  23047514.0864                   23047513.8834
 -38202824.41456 -26597874.78153  23442504.7274                   23442506.6454
 -24584270.58657 -19114396.18755  22246509.4064                   22246509.3754
 -66951354.61358 -51559188.66455  21504967.6484                   21504966.5904
  -2057232.46516                  24479367.289
 -55204383.82058 -42961961.48456  20655718.8984                   20655715.3794
   -647188.84015                  24320787.094
 11  8 23  0  1  0.0000000  0  9G10G12G17G09G05G04G25G02G30
 -47248149.25447 -35916568.05545  20892774.8364                   20892773.4614
 -31703677.17247 -23164047.46145  21639697.2034                   21639695.5514
 -81209381.71146 -63237693.65644  23039982.5004                   23039981.8204
 -38217447.14546 -26609269.18743  23439721.9144                   23439724.1174
 -24767348.87147 -19257054.48845  22211670.5864                   22211670.8634
 -66966167.26248 -51570731.00445  21502148.7584                   21502148.2114
  -2248455.793 6                  24442978.695
 -55298199.19947 -43035064.34446  20637866.4694                   20637862.6644
   -840432.648 5                  24284012.969
 11  8 23  0  1 30.0000000  0  9G10G12G17G09G05G04G25G02G30
 -47345240.85547 -35992223.81645  20874298.3204                   20874296.9384
 -31859473.90247 -23285447.48845  21610049.9384                   21610048.4804
 -81248752.65647 -63268372.36344  23032490.9454                   23032489.7814
 -38231789.19946 -26620444.92643  23436993.1484                   23436995.1254
 -24950103.18747 -19399460.36345  22176893.6954                   22176893.8834
 -66980753.85947 -51582097.21145  21499373.2504                   21499372.4614
  -2439486.71946    -15116.20353  24406626.8914                   24406627.3244
 -55391650.23048 -43107883.30146  20620083.1954                   20620079.1604
  -1033421.699 5                  24247288.227
 11  8 23  0  2  0.0000000  0  9G10G12G17G09G05G04G25G02G30
 -47441660.07847 -36067355.66045  20855950.8054                   20855949.1484
 -32014831.86747 -23406505.62145  21580486.7584                   21580484.9064
 -81287928.04347 -63298898.68044  23025036.2504                   23025035.3984
 -38245867.90246 -26631415.48443  23434314.3914                   23434316.1174
 -25132543.92647 -19541621.87945  22142176.3674                   22142176.1914
 -66995129.96147 -51593299.37545  21496637.2664                   21496636.1684
  -2630336.24646   -163830.05942  24370308.7814                   24370311.0664
 -55484751.44547 -43180429.68446  20602366.5234                   20602363.1484
  -1226166.75015                  24210611.000
 11  8 23  0  2 30.0000000  0  9G10G12G17G09G05G04G25G02G30
 -47537407.27347 -36141963.84846  20837730.2344                   20837729.5004
 -32169748.97347 -23527220.25845  21551006.9224                   21551004.8284
 -81326907.97347 -63329272.69144  23017618.9454                   23017617.9844
 -38259687.34846 -26642184.00043  23431684.6254                   23431685.9384
 -25314669.29747 -19683537.65645  22107518.8594                   22107518.8014
 -67009298.48847 -51604339.81245  21493941.4224                   21493939.9064
  -2821002.70346   -312401.29742  24334026.1094                   24334028.6644
 -55577504.78147 -43252704.98446  20584716.5944                   20584712.7544
  -1418665.75414                  24173979.273
 11  8 23  0  3  0.0000000  0  9G10G12G17G09G05G04G25G02G30
 -47632478.16848 -36216045.04345  20819638.9534                   20819637.7974
 -32324219.59447 -23647586.96945  21521611.9694                   21521610.1524
 -81365688.50047 -63359491.34044  23010238.5944                   23010238.2034
 -38273247.28146 -26652750.28143  23429104.9694                   23429105.9064
 -25496472.61347 -19825202.49245  22072922.6954                   22072922.8094
 -67023258.23047 -51615217.53945  21491284.9454                   21491283.9694
  -3011480.00846   -460825.07443  24297778.9384                   24297781.8134
 -55669907.89848 -43324707.40646  20567132.2034                   20567129.0594
                                  24137395.625
 11  8 23  0  3 30.0000000  0  9G10G12G17G09G05G04G25G02G30
 -47726872.46947 -36289599.02345  20801676.3054                   20801674.9454
 -32478241.56247 -23767604.07445  21492301.8524                   21492300.7154
 -81404269.06647 -63389554.20344  23002897.4144                   23002896.4144
 -38286551.14146 -26663117.05943  23426573.0784                   23426573.5514
 -25677951.48047 -19966614.50045  22038387.9614                   22038388.4774
 -67037011.05947 -51625934.03545  21488667.3134                   21488666.7974
  -3201765.84046   -609099.67243  24261569.7034                   24261571.7234
 -55761961.90648 -43396437.78546  20549615.1024                   20549611.3164
  -1802904.617 5                  24100859.820
 11  8 23  0  4  0.0000000  0  9G10G12G17G09G05G04G25G02G30
 -47820583.95347 -36362620.94946  20783843.9384                   20783842.4694
 -32631806.45347 -23887265.02345  21463080.0234                   21463078.2344
 -81442643.34047 -63419456.27344  22995595.6884                   22995594.1374
 -38299596.81646 -26673282.61743  23424090.9144                   23424091.2504
 -25859097.05147 -20107766.80145  22003917.1414                   22003917.5124
 -67050553.73447 -51636486.77745  21486090.6644                   21486089.8204
  -3391851.87546   -757218.59843  24225397.6724                   24225399.6094
 -55853662.39547 -43467892.69946  20532165.1884                   20532161.0234
  -1994633.14815                  24064375.563
 11  8 23  0  4 30.0000000  0  9G10G12G17G09G05G04G25G02G30
 -47913612.58648 -36435110.78146  20766140.9384                   20766139.7464
 -32784912.78147 -24006568.66045  21433944.6094                   21433942.5514
 -81480811.59447 -63449197.84444  22988332.1804                   22988331.4344
 -38312388.40246 -26683250.16443  23421655.8754                   23421656.8014
 -26039906.97747 -20248657.56245  21969510.2034                   21969509.8984
 -67063888.76647 -51646877.72345  21483553.0234                   21483552.3094
  -3581736.12946   -905180.35242  24189263.1884                   24189265.8594
 -55945010.82848 -43539073.29346  20514782.2194                   20514778.2854
  -2186096.305 6                  24027942.156
 11  8 23  0  5  0.0000000  0  9G10G12G17G09G05G04G25G02G30
 -48005952.48848 -36507063.91845  20748569.0394                   20748568.2424
 -32937552.23447 -24125508.49245  21404898.6094                   21404896.0084
 -81518767.25847 -63478773.77044  22981109.6174                   22981108.5704
 -38324923.44946 -26693017.84443  23419271.0314                   23419272.2504
 -26220372.57047 -20389280.00045  21935168.9384                   21935168.8404
 -67077012.59447 -51657104.09845  21481056.0634                   21481055.0744
  -3771410.43745  -1052978.42642  24153169.0314                   24153172.2464
 -56036002.60247 -43609975.96946  20497466.8284                   20497463.0634
  -2377285.230 5                  23991560.055
 11  8 23  0  5 30.0000000  0  9G10G12G17G09G05G04G25G02G30
 -46522183.63348 -35350880.37145  21030920.8284                   21030919.9924
 -31514301.09847 -23016481.62145  21675734.1564                   21675732.4574
 -79981092.01246 -62280585.30144  23273718.3594                   23273718.5164
 -36761788.77746 -25474990.93043  23716725.7424                   23716727.0044
 -24825068.87947 -19302030.27045  22200685.7584                   22200686.0204
 -65514510.45748 -50439570.00045  21778390.3524                   21778388.8874
  -2385449.45746     26991.17242  24416908.7894                   24416911.6484
 -54551219.54747 -42453002.14546  20780011.7344                   20780007.6414
   -992774.617 5                  24255023.484
 11  8 23  0  6  0.0000000  0  9G10G12G17G09G05G04G25G02G30
 -46613149.60948 -35421762.93746  21013611.1094                   21013609.7234
 -31666004.97747 -23134692.42645  21646865.7504                   21646864.1334
 -80018626.04746 -62309832.68044  23266576.1564                   23266575.8094
 -36773826.59846 -25484371.13343  23714434.9924                   23714436.9534
 -25004842.55147 -19442113.53945  22166476.6484                   22166476.0864
 -65527223.27747 -50449476.11345  21775970.7194                   21775969.8794
  -2574701.27346   -120477.69942  24380895.4924                   24380898.2234
 -54641506.84048 -42523355.87146  20762830.4384                   20762827.1454
  -1183412.324 5                  24218746.211
 11  8 23  0  6 30.0000000  0  9G10G12G17G09G05G04G25G02G30
 -46703424.92247 -35492107.30945  20996431.8204                   20996430.8794
 -31817234.52047 -23252533.62545  21618087.8444                   21618085.9024
 -80055945.44547 -62338912.77344  23259474.7114                   23259473.9454
 -36785617.52747 -25493558.95743  23712191.3594                   23712193.2304
 -25184262.94547 -19581921.53145  22132333.6254                   22132333.0704
 -65539730.51647 -50459222.03945  21773591.3524                   21773590.0394
  -2763734.82846   -267776.57042  24344923.7424                   24344925.7114
 -54731440.64548 -42593434.15246  20745716.8524                   20745713.2974
  -1373766.965 5                  24182521.688
 11  8 23  0  7  0.0000000  0  9G10G12G17G09G05G04G25G02G30
 -46793010.57448 -35561914.28945  20979384.5314                   20979382.4884
 -31967988.22747 -23370004.03145  21589400.5314                   21589398.2854
 -80093050.55547 -62367825.90644  23252413.9534                   23252413.4344
 -36797166.19947 -25502558.02344  23709994.2274                   23709996.3524
 -25363328.37547 -19721452.93045  22098259.0474                   22098257.7814
 -65552035.20347 -50468810.13745  21771249.6024                   21771248.8204
  -2952548.80546   -414904.32842  24308993.0784                   24308996.4344
 -54821022.98447 -42663238.56646  20728670.0474                   20728666.3524
  -1563837.129 6                  24146353.359
 11  8 23  0  7 30.0000000  0  9G10G12G17G09G05G04G25G02G30
 -46881906.27347 -35631183.64145  20962468.3134                   20962466.8134
 -32118263.70747 -23487101.79345  21560803.8204                   21560801.6024
 -80129940.80146 -62396571.61744  23245394.5394                   23245393.7704
 -36808476.08247 -25511371.02744  23707842.2424                   23707844.1724
 -25542035.70347 -19860705.30145  22064251.5474                   22064251.3754
 -65564139.43747 -50478242.03145  21768946.1254                   21768944.9064
  -3141140.54346   -561858.94942  24273105.3524                   24273108.2974
 -54910254.94147 -42732769.95746  20711689.6804                   20711685.9774
  -1753619.715 6                  24110238.469
 11  8 23  0  8  0.0000000  0  9G10G12G17G09G05G04G25G02G30
 -46970112.40247 -35699915.66046  20945683.0784                   20945681.8284
 -32268059.52347 -23603825.78545  21532298.5944                   21532296.6524
 -80166616.10946 -62425149.82844  23238414.8594                   23238414.7504
 -36819551.58247 -25520001.40244  23705735.1644                   23705736.1644
 -25720382.60947 -19999676.81245  22030312.9304                   22030313.0664
 -65576045.91847 -50487519.82445  21766679.8594                   21766679.3714
  -3329508.20746   -708638.91443  24237260.6884                   24237262.9494
 -54999138.59048 -42802029.93746  20694776.2274                   20694772.0554
  -1943112.746 6                  24074179.617
 11  8 23  0  8 30.0000000  0  9G10G12G17G09G05G04G25G02G30
 -47057625.31647 -35768107.52346  20929029.7974                   20929029.0594
 -32417369.47747 -23720171.16845  21503885.0864                   21503883.5944
 -80203072.83646 -62453557.77344  23231476.9064                   23231477.5824
 -36830392.38347 -25528448.88744  23703672.7194                   23703673.3914
 -25898363.02747 -20138362.75845  21996444.4384                   21996444.3324
 -65587753.48447 -50496642.61745  21764452.5084                   21764451.7234
  -3517645.73846   -855239.54343  24201458.2664                   24201461.3954
 -55087671.22748 -42871016.39846  20677928.5084                   20677924.6884
  -2132309.973 5                  24038176.398
 11  8 23  0  9  0.0000000  0  9G10G12G17G09G05G04G25G02G30
 -47144443.92247 -35835758.36746  20912508.9064                   20912507.4264
 -32566190.94947 -23836135.92646  21475565.9304                   21475564.3524
 -80239309.50446 -62481794.16844  23224582.5864                   23224581.5084
 -36841000.93747 -25536715.38744  23701653.5394                   23701655.1564
 -26075973.37547 -20276760.33245  21962646.5864                   21962646.5044
 -65599263.00847 -50505611.09445  21762262.3444                   21762261.8204
  -3705549.76646  -1001658.25443  24165701.5944                   24165704.3954
 -55175853.31648 -42939729.71146  20661147.6644                   20661144.1254
  -2321207.812 6                  24002229.742
 11  8 23  0  9 30.0000000  0  9G10G12G17G09G05G04G25G02G30
 -47230567.54747 -35902867.66845  20896120.0084                   20896118.8954
 -32714520.75047 -23951717.56246  21447339.6804                   21447337.7154
 -80275324.91447 -62509858.16044  23217729.0084                   23217727.9224
 -36851380.20346 -25544803.21943  23699677.1334                   23699680.1214
 -26253209.98847 -20414866.68045  21928919.1724                   21928918.9734
 -65610575.99247 -50514426.42245  21760109.7344                   21760108.7344
  -3893217.14146  -1147892.53143  24129989.9144                   24129992.1214
 -55263685.67247 -43008170.50446  20644434.1334                   20644430.1024
  -2509802.820 6                  23966342.039
 11  8 23  0 10  0.0000000  0  9G10G12G17G09G05G04G25G02G30
 -47315998.38747 -35969437.13745  20879863.4144                   20879861.9264
 -32862359.02747 -24066916.17646  21419207.1804                   21419205.5824
 -80311120.76247 -62537751.08244  23210917.1804                   23210916.5634
 -36861535.97346 -25552716.93043  23697744.9304                   23697746.9574
 -26430072.37147 -20552681.45345  21895263.6414                   21895263.3794
 -65621696.98047 -50523092.13345  21757993.4774                   21757992.2504
  -4080647.57046  -1293942.18743  24094323.1334                   24094325.1914
 -55351171.87148 -43076341.55946  20627785.6564                   20627781.8794
  -2698094.49246   1086847.35952  23930511.3444                   23930510.8444
 11  8 23  0 10 30.0000000  0  9G10G12G17G09G05G04G25G02G30
 -47400736.94147 -36035467.16445  20863737.9384                   20863736.7274
 -33009704.59847 -24181730.86346  21391168.4534                   21391166.5044
 -80346697.52347 -62565473.31244  23204146.9694                   23204146.8874
 -36871472.70746 -25560459.90643  23695853.2114                   23695856.3284
 -26606558.96947 -20690203.37945  21861679.1174                   21861678.8244
 -65632628.85247 -50531610.50045  21755913.0234                   21755912.5704
  -4267839.53946  -1439806.03143  24058702.3444                   24058703.4804
 -55438313.82447 -43144244.38346  20611203.1724                   20611199.5744
  -2886081.20146    940364.19642  23894738.5474                   23894738.7464
 11  8 23  0 11  0.0000000  0  9G10G12G17G09G05G04G25G02G30
 -47484778.50847 -36100954.09045  20847745.6644                   20847743.9304
 -33156549.98447 -24296155.79746  21363224.4144                   21363222.8594
 -80382049.71546 -62593020.52344  23197420.1804                   23197419.2974
 -36881188.60946 -25568030.84043  23694005.1884                   23694008.1604
 -26782661.98847 -20827426.43445  21828167.7664                   21828167.7854
 -65643368.45347 -50539979.03945  21753869.6174                   21753868.8014
  -4454785.34446  -1585478.06643  24023127.6564                   24023128.5664
 -55525107.73047 -43211875.98846  20594686.8914                   20594683.5594
  -3073754.91046    794124.91442  23859025.0784                   23859025.4144
 11  8 23  0 11 30.0000000  0  9G10G12G17G09G05G04G25G02G30
 -47568120.60247 -36165895.98445  20831885.9144                   20831884.4024
 -33302890.01647 -24410186.96146  21335377.0164                   21335375.1954
 -80417174.35946 -62620390.42244  23190735.5394                   23190735.9304
 -36890684.92246 -25575430.68043  23692197.0234                   23692200.7544
 -26958375.83647 -20964346.22345  21794730.5474                   21794730.1454
 -65653915.43747 -50548197.49245  21751862.4224                   21751861.9494
  -4641479.85546  -1730954.27043  23987600.3284                   23987601.8674
 -55611552.30548 -43279235.39546  20578237.1954                   20578233.6134
  -3261110.41046    648133.59442  23823372.6174                   23823372.8524
 11  8 23  0 12  0.0000000  0  9G10G12G17G09G05G04G25G02G30
 -47650765.60547 -36230294.68445  20816159.2034                   20816157.3754
 -33448725.51247 -24523824.97746  21307625.3364                   21307623.1174
 -80452073.22747 -62647584.38344  23184094.9384                   23184094.4964
 -36899966.95746 -25582663.55943  23690432.0704                   23690434.4384
 -27133700.03147 -21100962.37945  21761367.4774                   21761366.7274
 -65664274.12547 -50556269.23045  21749891.5864                   21749890.5784
  -4827923.04746  -1876234.66043  23952120.1334                   23952122.8204
 -55697651.21947 -43346325.45746  20561853.2974                   20561849.6334
  -3448147.46946    502390.43442  23787781.0084                   23787780.7344
 11  8 23  0 12 30.0000000  0  9G10G12G17G09G05G04G25G02G30
 -47732712.63347 -36294149.48845  20800564.8204                   20800563.7344
 -33594053.54747 -24637067.57446  21279970.5474                   21279968.1254
 -80486744.96147 -62674601.37144  23177497.3754                   23177496.4104
 -36909037.67246 -25589731.77043  23688706.3594                   23688709.2194
 -27308631.47347 -21237272.50445  21728078.9924                   21728078.7114
 -65674445.92647 -50564195.34045  21747955.6414                   21747954.5984
  -5014111.59046  -2021316.57043  23916691.1024                   23916693.0164
 -55783405.00847 -43413146.59046  20545534.7894                   20545530.6414
  -3634862.39146    356898.28542  23752249.6644                   23752250.7894
 11  8 23  0 13  0.0000000  0  9G10G12G17G09G05G04G25G02G30
 -47813958.54747 -36357457.98845  20785104.2734                   20785102.8444
 -33738868.32447 -24749910.24246  21252412.6724                   21252411.1334
 -80521186.13746 -62701438.71944  23170943.1644                   23170942.8324
 -36917897.23046 -25596635.44143  23687020.6024                   23687022.6524
 -27483163.73047 -21373271.57445  21694866.7894                   21694865.8284
 -65684429.13747 -50571974.49245  21746056.1484                   21746054.9064
  -5200039.50846  -2166195.41843  23881309.2664                   23881311.9344
 -55868811.61348 -43479697.17646  20529282.2894                   20529278.6214
  -3821249.10546    211661.90642  23716781.2194                   23716782.0554
 11  8 23  0 13 30.0000000  0  9G10G12G17G09G05G04G25G02G30
 -47894503.55947 -36420220.32045  20769777.3134                   20769775.8524
 -33883167.84447 -24862351.40646  21224953.6484                   21224951.8244
 -80555396.03946 -62728095.81644  23164433.0784                   23164432.7774
 -36926549.14846 -25603377.31243  23685374.9454                   23685376.2074
 -27657294.17247 -21508957.53945  21661730.6334                   21661729.6374
 -65694226.19947 -50579608.62145  21744191.5784                   21744190.9104
  -5385704.30546  -2310869.22343  23845978.5394                   23845981.3954
 -55953872.10547 -43545978.07046  20513096.0784                   20513091.9534
  -4007304.93046     66683.36342  23681376.4384                   23681376.8594
 11  8 23  0 14  0.0000000  0  9G10G12G17G09G05G04G25G02G30
 -47974353.38348 -36482440.94545  20754582.0944                   20754580.5594
 -34026955.03548 -24974393.35546  21197591.7344                   21197590.0394
 -80589379.74646 -62754576.69944  23157966.0634                   23157966.1024
 -36935002.02046 -25609964.08643  23683766.2894                   23683768.2704
 -27831025.73047 -21644332.69945  21628670.3754                   21628669.7814
 -65703844.22747 -50587103.23845  21742361.1094                   21742360.1954
  -5571108.96546  -2455340.29343  23810697.2584                   23810699.3834
 -56038593.25048 -43611994.53946  20496973.6564                   20496970.0044
  -4193032.56646    -78039.39842  23646033.5864                   23646034.3794
 11  8 23  0 14 30.0000000  0  9G10G12G17G09G05G04G25G02G30
 -46478084.81248 -35316517.37145  21039312.6254                   21039311.6604
 -32594803.13748 -23858430.83246  21470121.6024                   21470119.3524
 -79047714.95746 -61553279.52344  23451335.6024                   23451336.1214
 -35367838.74246 -24388797.99243  23981987.5314                   23981989.0664
 -26428929.27347 -20551789.91845  21895480.4384                   21895479.4884
 -64137864.59847 -49366859.43045  22040357.5004                   22040356.1294
  -4180824.18746  -1372001.44143  24075260.4064                   24075261.5864
 -54547553.20748 -42450145.14846  20780709.6564                   20780705.5124
  -2803002.46146   1005100.98043  23910547.7424                   23910547.8834
 11  8 23  0 15  0.0000000  0  9G10G12G17G09G05G04G25G02G30
 -46556539.12947 -35377650.58245  21024382.9774                   21024382.3404
 -32737554.54348 -23969665.69546  21442956.8364                   21442954.6054
 -79081238.96147 -61579402.18444  23444956.4534                   23444956.0204
 -35375898.97346 -24395078.81643  23980453.4844                   23980455.3134
 -26601849.02347 -20686532.50445  21862574.6254                   21862574.2974
 -64147125.37147 -49374075.66044  22038595.5474                   22038594.4414
  -4365695.32046  -1516056.81643  24040080.2734                   24040081.5784
 -54631594.12548 -42515631.56246  20764716.8914                   20764713.0944
  -2988059.89546    860900.45743  23875332.7504                   23875332.4454
 11  8 23  0 15 30.0000000  0  9G10G12G17G09G05G04G25G02G30
 -46634291.46948 -35438236.80945  21009587.3594                   21009585.9414
 -32879780.40647 -24080491.04746  21415891.5634                   21415890.2344
 -79114528.18746 -61605341.91844  23438621.9694                   23438621.2664
 -35383763.56646 -24401207.18743  23978957.2504                   23978958.1684
 -26774354.55947 -20820952.32845  21829747.8674                   21829747.2344
 -64156206.03147 -49381151.55545  22036867.5474                   22036866.9734
  -4550291.41846  -1659897.84443  24004952.2344                   24004953.5704
 -54715292.34848 -42580850.94146  20748789.7664                   20748785.6564
  -3172773.66846    716967.68443  23840181.9694                   23840182.0824
 11  8 23  0 16  0.0000000  0  9G10G12G17G09G05G04G25G02G30
 -46711345.13348 -35498278.62145  20994924.5314                   20994923.5514
 -33021481.29747 -24190907.32046  21388926.9064                   21388924.9654
 -79147585.06647 -61631100.58244  23432331.5864                   23432330.3204
 -35391438.87546 -24407188.02743  23977496.6564                   23977497.3634
 -26946445.79747 -20955049.34045  21797000.2274                   21796999.6884
 -64165111.24647 -49388090.73445  22035172.7664                   22035172.1644
  -4734612.66446  -1803524.71943  23969877.6414                   23969878.7544
 -54798651.85547 -42645806.39546  20732926.6564                   20732923.0904
  -3357143.76646    573302.74443  23805098.1804                   23805097.3754
 11  8 23  0 16 30.0000000  0  9G10G12G17G09G05G04G25G02G30
 -46787700.58248 -35557776.35945  20980394.6804                   20980393.5314
 -33162655.14148 -24300912.91046  21362062.5864                   21362060.8244
 -79180409.51246 -61656678.17644  23426084.9454                   23426084.5004
 -35398928.80146 -24413024.44143  23976071.0394                   23976072.7234
 -27118120.55547 -21088821.82045  21764331.6334                   21764330.7854
 -64173843.31247 -49394894.98445  22033511.3674                   22033510.4654
  -4918656.91846  -1946935.79343  23934855.1484                   23934856.2074
 -54881674.53948 -42710499.39546  20717128.2734                   20717124.0664
  -3541167.87946    429907.37142  23770078.6024                   23770078.8984
 11  8 23  0 17  0.0000000  0  9G10G12G17G09G05G04G25G02G30
 -46863356.58248 -35616729.08245  20965997.6174                   20965996.3794
 -33303298.87548 -24410505.43746  21335298.7974                   21335297.3134
 -79212999.43046 -61682072.97344  23419883.7734                   23419883.1054
 -35406234.97746 -24418717.67643  23974681.0084                   23974683.6414
 -27289374.62547 -21222266.49645  21731742.7424                   21731742.2464
 -64182402.69147 -49401564.69545  22031882.9614                   22031881.7304
  -5102420.05946  -2090127.81243  23899885.9614                   23899886.9224
 -54964359.87148 -42774929.50446  20701393.3914                   20701389.8674
  -3724841.80546    286784.90643  23735127.0864                   23735126.5044
 11  8 23  0 17 30.0000000  0  9G10G12G17G09G05G04G25G02G30
 -46938316.52348 -35675139.41445  20951733.2814                   20951732.1054
 -33443412.92647 -24519685.20346  21308636.2034                   21308634.2894
 -79245357.05147 -61707286.75844  23413726.0704                   23413726.1054
 -35413363.67646 -24424272.63343  23973324.7274                   23973327.0434
 -27460207.89147 -21355383.26645  21699234.2504                   21699233.3524
 -64190793.90247 -49408103.35945  22030285.3834                   22030284.8634
  -5285902.11347  -2233100.77743  23864970.5704                   23864971.5944
 -55046711.91048 -42839099.91846  20685722.9224                   20685718.9344
  -3908165.35946    143935.49642  23700241.3984                   23700241.2194
 11  8 23  0 18  0.0000000  0  9G10G12G17G09G05G04G25G02G30
 -47012577.53148 -35733005.13345  20937602.0004                   20937600.9384
 -33582992.00447 -24628448.11746  21282075.1334                   21282072.7194
 -79277478.75846 -61732316.71544  23407612.9384                   23407612.9064
 -35420315.16846 -24429689.51243  23972001.6334                   23972004.4574
 -27630614.65647 -21488167.70345  21666807.1484                   21666806.4064
 -64199015.77347 -49414510.06245  22028720.6884                   22028720.3284
  -5469097.37547  -2375850.28943  23830109.6254                   23830110.5664
 -55128728.63348 -42903009.03146  20670115.4384                   20670111.5124
  -4091132.57446      1363.71143  23665423.7114                   23665424.1134
 11  8 23  0 18 30.0000000  0  9G10G12G17G09G05G04G25G02G30
 -47086142.03147 -35790328.10945  20923602.8444                   20923601.8484
 -33722035.90247 -24736793.99646  21255616.1564                   21255613.8954
 -79309365.79746 -61757163.82044  23401545.5474                   23401545.5314
 -35427094.44146 -24434972.19143  23970711.5234                   23970714.6054
 -27800594.00447 -21620619.06645  21634460.6564                   21634460.2854
 -64207071.90247 -49420787.60944  22027188.3364                   22027187.6914
  -5652005.10247  -2518375.73443  23795302.5944                   23795304.9224
 -55210413.00448 -42966659.17646  20654571.4064                   20654567.6054
  -4273742.67246   -140929.77343  23630674.6564                   23630674.0824
 11  8 23  0 19  0.0000000  0  9G10G12G17G09G05G04G25G02G30
 -47159007.33648 -35847106.26645  20909736.8054                   20909735.9654
 -33860539.63747 -24844718.97746  21229259.4774                   21229257.5164
 -79341015.09846 -61781825.67244  23395522.9454                   23395523.0704
 -35433702.09046 -24440121.15643  23969454.2894                   23969456.9804
 -27970140.45347 -21752733.11746  21602196.9384                   21602196.5594
 -64214961.38747 -49426935.30945  22025686.7424                   22025686.1524
  -5834619.91447  -2660672.94143  23760552.5554                   23760554.3874
 -55291763.80148 -43030049.39146  20639090.6644                   20639086.7074
  -4455989.99246   -282940.62543  23595993.8914                   23595993.6484
 11  8 23  0 19 30.0000000  0  9G10G12G17G09G05G04G25G02G30
 -47231178.51248 -35903343.55145  20896003.2344                   20896002.1414
 -33998505.98448 -24952225.21146  21203005.6564                   21203003.4494
 -79372430.49646 -61806305.24244  23389544.3594                   23389544.5664
 -35440145.98046 -24445142.49243  23968227.7814                   23968230.9414
 -28139255.78947 -21884511.24246  21570016.0164                   21570015.2934
 -64222690.66047 -49432958.15644  22024215.3984                   22024215.4144
  -6016943.66447  -2802743.35943  23725856.8754                   23725858.8634
 -55372786.46548 -43093183.91846  20623672.7274                   20623668.5634
  -4637876.26246   -424670.14143  23561382.4924                   23561381.9964
 11  8 23  0 20  0.0000000  0  9G10G12G17G09G05G04G25G02G30
 -47302649.25447 -35959035.03945  20882402.8984                   20882401.8284
 -34135926.19947 -25059305.87946  21176855.3054                   21176853.2274
 -79403605.21146 -61830597.28544  23383612.6254                   23383612.4064
 -35446423.12946 -24450033.90643  23967033.0634                   23967036.8284
 -28307930.89147 -22015946.32046  21537917.7344                   21537917.0394
 -64230255.02347 -49438852.46944  22022776.5864                   22022775.8094
  -6198967.14147  -2944579.79743  23691220.1334                   23691221.2034
 -55453476.10248 -43156058.94946  20608317.6804                   20608314.1254
  -4819392.12146   -566111.03943  23526840.8914                   23526840.7344
 11  8 23  0 20 30.0000000  0  9G10G12G17G09G05G04G25G02G30
 -47373427.80148 -36014187.16045  20868934.5704                   20868933.2814
 -34272805.55547 -25165965.10546  21150808.0554                   21150805.7544
 -79434546.13746 -61854707.13744  23377724.7664                   23377724.6054
 -35452544.34846 -24454803.86343  23965868.9384                   23965871.8244
 -28476170.48447 -22147042.04346  21505902.4064                   21505901.8594
 -64237663.69547 -49444625.49644  22021366.7274                   22021366.1454
  -6380695.24247  -3086186.08644  23656638.1564                   23656639.6024
 -55533841.20748 -43218681.09846  20593025.3444                   20593021.2704
  -5000542.27746   -707266.95343  23492369.1644                   23492368.9304
 11  8 23  0 21  0.0000000  0  9G10G12G17G09G05G04G25G02G30
 -47443514.45348 -36068800.13345  20855597.5234                   20855595.9654
 -34409141.80547 -25272201.12546  21124863.7034                   21124861.8014
 -79465252.75846 -61878634.39144  23371881.3364                   23371881.1334
 -35458512.67646 -24459454.60543  23964733.4224                   23964736.3484
 -28643971.83247 -22277796.27746  21473971.4924                   21473970.5864
 -64244918.27347 -49450278.43745  22019986.8594                   22019985.0944
  -6562125.10247  -3227559.98444  23622113.2734                   23622114.6254
 -55613882.73448 -43281051.10546  20577793.4224                   20577789.8204
  -5181323.72746   -848135.58643  23457967.7504                   23457967.0004
 11  8 23  0 21 30.0000000  0  9G10G12G17G09G05G04G25G02G30
 -47512906.33647 -36122871.72745  20842392.4224                   20842391.1094
 -34544929.63348 -25378009.79746  21099024.6724                   21099022.2424
 -79495720.68446 -61902375.64844  23366082.8364                   23366082.9614
 -35464327.74246 -24463985.97743  23963627.7274                   23963629.3484
 -28811328.58247 -22408204.06646  21442124.2504                   21442123.6844
 -64252016.87547 -49455809.86745  22018635.5084                   22018634.7344
  -6743250.44147  -3368696.57444  23587646.0394                   23587647.5664
 -55693598.52748 -43343167.30946  20562624.2584                   20562620.1844
  -5361730.01246   -988711.86743  23423636.8364                   23423636.6254
 11  8 23  0 22  0.0000000  0  9G10G12G17G09G05G04G25G02G30
 -47581602.61748 -36176401.29745  20829320.5784                   20829318.8984
 -34680165.62547 -25483388.48046  21073289.9534                   21073287.6374
 -79525948.43046 -61925929.79344  23360330.7194                   23360331.6994
 -35469991.97346 -24468399.78543  23962549.2424                   23962551.5084
 -28978236.86747 -22538262.41046  21410362.3134                   21410361.7384
 -64258960.25447 -49461220.33245  22017314.4454                   22017313.6884
  -6924067.52347  -3509592.95344  23553237.5784                   23553238.9224
 -55772988.69148 -43405029.78146  20547516.6024                   20547513.0864
  -5541757.27746  -1128992.79343  23389379.7114                   23389379.0314
 11  8 23  0 22 30.0000000  0  9G10G12G17G09G05G04G25G02G30
 -47649606.68048 -36229391.48845  20816379.8284                   20816378.4494
 -34814850.89148 -25588338.00846  21047659.8984                   21047657.9304
 -79555938.68446 -61949298.87144  23354623.5004                   23354623.4924
 -35475511.59046 -24472700.90643  23961499.6644                   23961501.8594
 -29144697.41847 -22667971.87146  21378686.2504                   21378685.2934
 -64265753.21947 -49466513.59045  22016021.9694                   22016021.2504
  -7104576.76647  -3650249.45744  23518887.4924                   23518888.9884
 -55852057.10948 -43466641.53546  20532470.5004                   20532466.6094
  -5721405.82046  -1268978.69943  23355193.2734                   23355192.4734
 11  8 23  0 23  0.0000000  0  9G10G12G17G09G05G04G25G02G30
 -47716926.87948 -36281848.78146  20803568.6484                   20803567.6094
 -34948991.21948 -25692862.92246  21022133.9694                   21022131.7934
 -79585698.80946 -61972488.60243  23348961.4534                   23348961.0004
 -35480897.60246 -24476897.96943  23960473.6254                   23960477.1214
 -29310715.15647 -22797336.27345  21347094.0164                   21347093.2384
 -64272405.00847 -49471696.82044  22014756.0004                   22014755.2074
  -7284783.03547  -3790669.89544  23484595.6414                   23484597.2114
 -55930812.93448 -43528009.70346  20517483.6804                   20517479.6024
  -5900680.36346  -1408673.09843  23321078.4144                   23321077.7814
 11  8 23  0 23 30.0000000  0  9G10G12G17G09G05G04G25G02G30
 -46208134.68048 -35106166.55945  21090682.6334                   21090681.5984
 -33507152.90648 -24569352.52746  21296506.3444                   21296504.8324
 -78039799.89846 -60767892.06244  23643136.9614                   23643135.0204
 -33910725.77746 -23253387.62543  24259267.7584                   24259271.0554
 -27900854.68747 -21698743.63745  21615381.6954                   21615380.4144
 -62703490.03147 -48249165.68744  22313310.8754                   22313309.6334
  -5889250.60247  -2703241.98844  23750156.2974                   23750158.2814
 -54433827.46948 -42361527.52046  20802350.4844                   20802346.6564
  -4504145.02346   -320463.72743  23586830.0554                   23586829.4104
 11  8 23  0 24  0.0000000  0  9G10G12G17G09G05G04G25G02G30
 -46274073.25848 -35157547.28545  21078135.2894                   21078133.6564
 -33640180.43048 -24673010.32446  21271192.1414                   21271190.2074
 -78069081.32447 -60790708.75844  23637564.1024                   23637563.9264
 -33915837.78546 -23257371.18743  24258295.3754                   24258298.2814
 -28065962.44947 -21827398.97345  21583962.4694                   21583961.4224
 -62709848.46147 -48254120.30544  22312100.2894                   22312099.7274
  -6068826.56247  -2843171.28144  23715984.3914                   23715985.6254
 -54511945.27048 -42422398.54346  20787485.1254                   20787481.1414
  -4682646.66446   -459555.90243  23552862.8834                   23552862.6254
 11  8 23  0 24 30.0000000  0  9G10G12G17G09G05G04G25G02G30
 -46339318.89548 -35208388.05545  21065719.2814                   21065717.4804
 -33772645.82048 -24776230.09446  21245984.9144                   21245982.8164
 -78098119.71546 -60813336.12944  23632038.0164                   23632038.2544
 -33920814.37546 -23261249.20343  24257349.1024                   24257351.1684
 -28230607.80147 -21955693.99645  21552631.3284                   21552630.0314
 -62716059.60547 -48258960.16444  22310918.8204                   22310917.4304
  -6248080.15647  -2982849.36344  23681873.4304                   23681875.0004
 -54589742.73048 -42483019.94146  20772680.9534                   20772676.9734
  -4860754.45746   -598341.14543  23518970.1414                   23518969.4414
 11  8 23  0 25  0.0000000  0  9G10G12G17G09G05G04G25G02G30
 -46403877.85548 -35258693.75045  21053433.4224                   21053432.4264
 -33904552.62148 -24879014.59046  21220884.3364                   21220881.9614
 -78126920.32446 -60835778.18744  23626557.8914                   23626558.0394
 -33925664.69946 -23265028.88343  24256425.6954                   24256428.9924
 -28394794.09447 -22083631.30945  21521388.0554                   21521386.7814
 -62722130.71947 -48263690.93044  22309763.3284                   22309762.3874
  -6427014.38747  -3122278.62144  23647822.9064                   23647825.0634
 -54667226.67248 -42543397.04346  20757936.3754                   20757932.1454
  -5038471.30946   -736821.78143  23485151.4844                   23485150.9414
 11  8 23  0 25 30.0000000  0  9G10G12G17G09G05G04G25G02G30
 -46467746.81648 -35308461.78145  21041280.3204                   21041278.4694
 -34035894.50848 -24981358.90246  21195890.8594                   21195888.2384
 -78155478.57846 -60858031.44944  23621123.4454                   23621123.3984
 -33930388.12946 -23268709.63743  24255527.6804                   24255529.6414
 -28558514.72347 -22211205.75845  21490232.7584                   21490231.6454
 -62728059.45747 -48268310.74244  22308634.4144                   22308633.9064
  -6605622.59047  -3261453.81244  23613835.2734                   23613837.1334
 -54744394.23848 -42603527.61746  20743251.7114                   20743247.7464
  -5215790.39146   -874992.44943  23451408.4534                   23451408.4734
 11  8 23  0 26  0.0000000  0  9G10G12G17G09G05G04G25G02G30
 -46530930.33248 -35357695.68745  21029256.5164                   21029255.4614
 -34166673.96948 -25083264.97346  21171004.1174                   21171001.9344
 -78183797.70746 -60880098.35543  23615734.9304                   23615734.2934
 -33934991.51246 -23272296.82843  24254651.5944                   24254653.4184
 -28721770.74647 -22338418.18746  21459166.0704                   21459165.0744
 -62733851.37947 -48272823.96944  22307532.9304                   22307532.2814
  -6783905.80547  -3400375.77044  23579909.1024                   23579910.4804
 -54821250.34848 -42663415.50046  20728626.7194                   20728622.6214
  -5392712.68046  -1012853.94544  23417741.2504                   23417741.0824
 11  8 23  0 26 30.0000000  0  9G10G12G17G09G05G04G25G02G30
 -46593423.56248 -35406391.70345  21017364.6414                   21017363.0044
 -34296883.29748 -25184726.76646  21146225.8834                   21146223.8404
 -78211871.72346 -60901974.27744  23610391.7894                   23610391.9414
 -33939472.37146 -23275788.55543  24253798.0234                   24253800.9734
 -28884554.09847 -22465262.29745  21428189.1174                   21428188.4534
 -62739502.50447 -48277227.46945  22306457.6644                   22306457.2424
  -6961855.80547  -3539038.08244  23546046.8054                   23546047.9574
 -54897790.63748 -42723057.27746  20714061.1484                   20714057.4694
  -5569229.78947  -1150399.71544  23384151.2894                   23384150.7304
 11  8 23  0 27  0.0000000  0  9G10G12G17G09G05G04G25G02G30
 -46655230.30948 -35454552.78145  21005602.7344                   21005601.9064
 -34426523.30548 -25285744.94146  21121556.2734                   21121554.2774
 -78239703.14846 -60923661.13343  23605096.2734                   23605095.5164
 -33943836.98446 -23279189.70343  24252968.5084                   24252971.0434
 -29046865.06647 -22591738.31646  21397302.3914                   21397301.6094
 -62745017.39147 -48281524.84445  22305408.3444                   22305407.5744
  -7139472.74647  -3677440.84844  23512246.9844                   23512248.3834
 -54974019.13748 -42782456.11746  20699555.4534                   20699551.4694
  -5745341.81646  -1287629.84043  23350637.3754                   23350637.4964
 11  8 23  0 27 30.0000000  0  9G10G12G17G09G05G04G25G02G30
 -46716353.16047 -35502180.95745  20993971.5554                   20993970.4574
 -34555594.28548 -25386319.71546  21096994.6334                   21096992.9964
 -78267293.52046 -60945160.19544  23599845.4924                   23599845.4414
 -33948090.63346 -23282504.43043  24252158.0164                   24252162.3874
 -29208703.18047 -22717845.87546  21366505.4534                   21366504.8094
 -62750399.78947 -48285718.96144  22304384.2584                   22304382.9184
  -7316756.03147  -3815583.62544  23478510.9534                   23478512.5984
 -55049939.57048 -42841614.89546  20685108.1564                   20685104.3754
  -5921047.99646  -1424543.69944  23317202.1884                   23317201.9614
 11  8 23  0 28  0.0000000  0  9G10G12G17G09G05G04G25G02G30
 -46776788.42247 -35549273.34445  20982470.5634                   20982469.5784
 -34684089.60948 -25486445.93446  21072543.1254                   21072541.0124
 -78294637.73046 -60966467.41444  23594642.8754                   23594642.0704
 -33952231.58646 -23285731.32443  24251370.3054                   24251374.8094
 -29370061.28547 -22843579.39546  21335800.4924                   21335799.3674
 -62755646.21147 -48289807.14544  22303386.0944                   22303385.0274
  -7493698.12547  -3953460.55944  23444839.7344                   23444841.6954
 -55125548.05148 -42900530.59446  20670720.7664                   20670717.1844
  -6096340.66847  -1561135.36343  23283845.5314                   23283844.6994
 11  8 23  0 28 30.0000000  0  9G10G12G17G09G05G04G25G02G30
 -46836539.18047 -35595832.35245  20971100.8524                   20971099.6254
 -34812009.47348 -25586123.74646  21048200.7034                   21048198.4184
 -78321737.26646 -60987583.99244  23589485.7584                   23589485.8524
 -33956265.10946 -23288874.54343  24250602.4694                   24250606.8524
 -29530938.62147 -22968938.30146  21305186.3204                   21305185.6294
 -62760760.46147 -48293792.30944  22302412.8444                   22302411.6214
  -7670298.36346  -4091071.07844  23411234.0784                   23411235.3834
 -55200847.64148 -42959205.59846  20656391.8134                   20656387.5594
  -6271219.10947  -1697404.23443  23250566.5944                   23250566.3484
 11  8 23  0 29  0.0000000  0  9G10G12G17G09G05G04G25G02G30
 -46895603.33647 -35641856.34445  20959861.0084                   20959860.2624
 -34939348.92648 -25685349.28546  21023968.8594                   21023966.9414
 -78348588.96146 -61008507.45744  23584375.9304                   23584375.9494
 -33960191.71546 -23291934.35543  24249856.3444                   24249860.2854
 -29691329.84047 -23093918.41846  21274665.3284                   21274664.2704
 -62765741.37147 -48297673.57044  22301464.8364                   22301463.5554
  -7846551.25447  -4228410.94944  23377694.7344                   23377695.7114
 -55275836.88748 -43017638.77346  20642121.5634                   20642117.9614
  -6445677.78946  -1833346.03143  23217368.5234                   23217368.0124
 11  8 23  0 29 30.0000000  0  9G10G12G17G09G05G04G25G02G30
 -46953986.94947 -35687350.03545  20948751.3204                   20948749.7624
 -35066111.28948 -25784125.14546  20999846.5314                   20999845.0594
 -78375197.17246 -61029241.16043  23579312.5164                   23579312.3754
 -33964019.29346 -23294917.05143  24249128.9064                   24249131.8404
 -29851237.44148 -23218521.69146  21244235.3754                   21244234.3754
 -62770595.35247 -48301455.95344  22300541.0234                   22300539.8324
  -8022458.99247  -4365481.84844  23344220.3364                   23344221.4064
 -55350521.91448 -43075834.90646  20627909.3364                   20627905.8054
  -6619718.65646  -1968962.25044  23184249.7194                   23184248.7974
 11  8 23  0 30  0.0000000  0  9G10G12G17G09G05G04G25G02G30
 -47011686.74247 -35732310.89145  20937771.3524                   20937770.1454
 -35192290.93048 -25882446.94146  20975835.6024                   20975833.2304
 -78401557.38746 -61049781.65643  23574296.3834                   23574295.7894
 -33967747.18446 -23297822.07443  24248419.2424                   24248422.5354
 -30010654.93748 -23342743.07846  21213898.9224                   21213897.7734
 -62775320.21547 -48305137.71544  22299642.4224                   22299641.5744
  -8198014.90647  -4502278.62944  23310812.4064                   23310814.4804
 -55424899.84848 -43133791.73446  20613755.6954                   20613752.1214
  -6793335.07046  -2104247.71944  23151211.6254                   23151210.8874
 11  8 23  0 30 30.0000000  0  9G10G12G17G09G05G04G25G02G30
 -47068704.56247 -35776740.32845  20926921.2344                   20926919.8984
 -35317886.71548 -25980313.77346  20951935.2424                   20951933.1414
 -78427670.11746 -61070129.31643  23569327.7894                   23569326.9224
 -33971379.20746 -23300652.36743  24247728.9064                   24247731.8754
 -30169580.50847 -23466581.13746  21183656.4224                   21183655.7774
 -62779917.81647 -48308720.32444  22298767.0944                   22298766.5274
  -8373216.90647  -4638799.61344  23277473.3054                   23277474.6994
 -55498972.35548 -43191510.55946  20599660.4534                   20599656.3984
  -6966524.80146  -2239200.70343  23118254.4454                   23118253.7464
 11  8 23  0 31  0.0000000  0  9G10G12G17G09G05G04G25G02G30
 -47125038.81647 -35820637.13745  20916201.0864                   20916200.0944
 -35442894.02748 -26077722.06646  20928147.1254                   20928144.8594
 -78453532.00446 -61090281.47344  23564406.7814                   23564406.2704
 -33974915.70746 -23303408.21943  24247055.3914                   24247058.6094
 -30328008.75047 -23590031.66846  21153508.5004                   21153507.8204
 -62784387.03147 -48312202.90644  22297916.6804                   22297916.3594
  -8548059.59047  -4775040.61744  23244201.8594                   23244203.0944
 -55572738.20348 -43248990.43046  20585623.0004                   20585619.1174
  -7139282.35246  -2373816.93443  23085379.5634                   23085378.9694
 11  8 23  0 31 30.0000000  0  9G10G12G17G09G05G04G25G02G30
 -47180692.64147 -35864003.73045  20905610.7664                   20905609.2344
 -35567312.92648 -26174671.85546  20904471.1334                   20904469.2114
 -78479144.97346 -61110239.71943  23559531.9384                   23559531.9304
 -33978361.96546 -23306093.72343  24246399.2114                   24246403.2074
 -30485939.64548 -23713094.65646  21123455.4534                   21123454.3094
 -62788731.63747 -48315588.35544  22297090.1954                   22297089.4774
  -8722542.44147  -4911001.23044  23210998.9224                   23210999.9344
 -55646200.59448 -43306233.83646  20571643.6414                   20571640.3524
  -7311607.18446  -2508095.98443  23052587.2424                   23052586.7194
 11  8 23  0 32  0.0000000  0  9G10G12G17G09G05G04G25G02G30
 -47235667.83247 -35906841.52745  20895149.4694                   20895147.9534
 -35691143.15648 -26271162.93446  20880907.0394                   20880904.8204
 -78504509.40246 -61130004.26243  23554705.8674                   23554705.9344
 -33981722.16446 -23308712.18043  24245760.3834                   24245763.9534
 -30643371.53148 -23835768.82046  21093497.1254                   21093495.7894
 -62792954.05147 -48318878.58244  22296286.1024                   22296286.5554
  -8896663.55547  -5046679.97744  23177864.3754                   23177865.7584
 -55719361.67648 -43363242.46546  20557721.5474                   20557717.9224
  -7483497.28146  -2642036.27743  23019877.5704                   23019876.9884
 11  8 23  0 32 30.0000000  0  9G10G12G17G09G05G04G25G02G30
 -47289963.79747 -35949150.07045  20884817.2034                   20884815.8054
 -35814381.21148 -26367192.59846  20857455.6954                   20857453.5824
 -78529622.91046 -61149573.27743  23549926.8444                   23549926.8244
 -33984997.88346 -23311264.83243  24245137.0084                   24245140.4184
 -30800300.19948 -23958050.85546  21063634.9844                   21063633.6414
 -62797054.10946 -48322073.46944  22295506.4614                   22295506.0354
  -9070418.78147  -5182073.60544  23144799.9774                   23144801.1094
 -55792221.07448 -43420016.01246  20543857.0234                   20543853.0314
  -7654948.38346  -2775634.48043  22987251.9774                   22987251.1174
 11  8 23  0 33  0.0000000  0  9G10G12G17G09G05G04G25G02G30
 -45768167.61348 -34763334.85545  21174405.1484                   21174403.8014
 -34361608.97348 -25235162.28146  21133908.9844                   21133907.1604
 -76979072.29346 -59941352.04743  23844986.6724                   23844986.2934
 -32412779.45746 -22086159.67243  24544320.2584                   24544323.6094
 -29381305.73848 -22852340.83246  21333660.0004                   21333659.1374
 -61225620.90247 -47097580.10544  22594540.1254                   22594539.0394
  -7668387.21947  -4089581.44544  23411598.0474                   23411599.0434
 -54289364.95748 -42248959.27746  20829840.7814                   20829836.8054
  -6250539.62946  -1681289.97343  23254501.6954                   23254500.9844
 11  8 23  0 33 30.0000000  0  9G10G12G17G09G05G04G25G02G30
 -45821119.15247 -34804595.79745  21164329.0704                   21164327.6564
 -34483667.74648 -25330273.01646  21110682.0474                   21110679.8634
 -77003693.93446 -59960537.82843  23840301.3594                   23840301.5634
 -32415905.68746 -22088595.78943  24543724.8204                   24543728.3554
 -29537231.42248 -22973841.31646  21303988.1484                   21303987.6764
 -61229491.20347 -47100595.93044  22593803.4774                   22593802.6214
  -7841412.77747  -4224406.51244  23378671.6804                   23378673.0904
 -54361634.66448 -42305273.32046  20816088.3204                   20816084.6134
  -6421114.73046  -1814205.58243  23222041.8834                   23222041.4494
 11  8 23  0 34  0.0000000  0  9G10G12G17G09G05G04G25G02G30
 -45873398.05947 -34845332.60245  21154380.1564                   21154379.3324
 -34605132.14848 -25424920.60946  21087568.1414                   21087566.1484
 -77028066.95746 -59979529.82043  23835663.8594                   23835662.9574
 -32418959.47346 -22090975.48443  24543144.7814                   24543147.0004
 -29692649.61348 -23094946.35546  21274413.1564                   21274412.3094
 -61233246.51247 -47103522.17644  22593088.6564                   22593088.4964
  -8014067.07847  -4358942.28544  23345817.1334                   23345818.1024
 -54433609.10948 -42361357.28546  20802391.8984                   20802388.1174
  -6591245.37146  -1946774.85943  23189667.8984                   23189666.7154
 11  8 23  0 34 30.0000000  0  9G10G12G17G09G05G04G25G02G30
 -45925007.67647 -34885547.88345  21144559.2424                   21144558.1644
 -34726002.75048 -25519105.49646  21064567.6414                   21064565.2384
 -77052193.00846 -59998329.39143  23831072.7194                   23831072.0784
 -32421946.19546 -22093302.94543  24542576.5634                   24542579.3364
 -29847560.02748 -23215655.72746  21244934.9064                   21244933.7424
 -61236890.57047 -47106361.71144  22592395.5864                   22592395.3754
  -8186349.80947  -4493188.54744  23313032.2034                   23313033.9844
 -54505291.50048 -42417213.67246  20788751.6334                   20788747.7934
  -6760931.05546  -2078997.41843  23157377.2814                   23157376.6024
 11  8 23  0 35  0.0000000  0  9G10G12G17G09G05G04G25G02G30
 -45975945.82847 -34925239.95345  21134866.4384                   21134864.9574
 -34846274.51248 -25612823.75446  21041680.3914                   21041678.5274
 -77076068.43446 -60016933.65244  23826528.4144                   23826529.1564
 -32424865.75846 -22095578.02743  24542020.7274                   24542024.3204
 -30001957.35948 -23335965.29346  21215553.9064                   21215552.8324
 -61240421.46147 -47109113.06244  22591723.8984                   22591723.7464
  -8358254.95347  -4627140.56244  23280319.7344                   23280321.3014
 -54576679.78148 -42472840.88746  20775166.7274                   20775162.6844
  -6930165.75047  -2210868.57044  23125172.8984                   23125172.4184
 11  8 23  0 35 30.0000000  0  9G10G12G17G09G05G04G25G02G30
 -46026219.66047 -34964414.36345  21125299.6174                   21125298.0434
 -34965951.55148 -25706078.59446  21018906.1414                   21018904.6334
 -77099698.58246 -60035346.84443  23822032.3754                   23822032.7464
 -32427726.60246 -22097807.34443  24541476.4694                   24541478.8404
 -30155844.85548 -23455877.58246  21186270.1724                   21186269.2704
 -61243846.33647 -47111781.81644  22591072.1804                   22591071.8364
  -8529785.44547  -4760800.64544  23247678.6334                   23247680.3444
 -54647781.12148 -42528244.50846  20761636.3204                   20761632.7274
  -7098952.43746  -2342390.63343  23093053.9614                   23093052.7304
 11  8 23  0 36  0.0000000  0  9G10G12G17G09G05G04G25G02G30
 -46075831.51647 -35003072.94945  21115859.0004                   21115857.2814
 -35085033.68048 -25798869.85946  20996246.1024                   20996243.7154
 -77123083.98846 -60053569.28143  23817582.7194                   23817582.1374
 -32430533.19946 -22099994.44542  24540941.6024                   24540946.2774
 -30309221.18748 -23575391.56246  21157083.4454                   21157082.7384
 -61247167.75047 -47114369.97744  22590440.3524                   22590440.3524
  -8700939.78947  -4894167.62544  23215108.9384                   23215110.6564
 -54718597.50848 -42583426.09446  20748160.5474                   20748156.4924
  -7267289.50847  -2473562.34444  23061021.2194                   23061019.9384
 11  8 23  0 36 30.0000000  0  9G10G12G17G09G05G04G25G02G30
 -46124777.36347 -35041212.57045  21106544.1174                   21106542.8164
 -35203513.94548 -25891192.14546  20973699.9534                   20973697.8954
 -77146218.93446 -60071596.52744  23813180.3754                   23813180.3404
 -32433283.32846 -22102137.52742  24540419.0634                   24540423.8164
 -30462078.37948 -23694501.00446  21127996.1564                   21127994.9184
 -61250381.67247 -47116874.36344  22589828.0554                   22589827.9774
  -8871709.80146  -5027235.13344  23182612.4774                   23182614.0864
 -54789124.81248 -42638382.42646  20734739.3834                   20734735.9024
  -7435168.83647  -2604377.36744  23029074.1564                   23029073.5314
 11  8 23  0 37  0.0000000  0  9G10G12G17G09G05G04G25G02G30
 -46173059.56247 -35078835.05545  21097356.6484                   21097355.6334
 -35321391.61348 -25983044.87546  20951268.2584                   20951266.1994
 -77169104.47346 -60089429.45743  23808824.9384                   23808824.9574
 -32435981.17646 -22104239.84042  24539905.6254                   24539910.2154
 -30614415.52348 -23813205.23046  21099007.0164                   21099006.0084
 -61253490.62147 -47119296.95344  22589236.3284                   22589235.9414
  -9042094.02047  -5160002.02044  23150189.6094                   23150191.1914
 -54859365.25448 -42693115.22346  20721373.3754                   20721369.4144
  -7602588.87547  -2734834.48044  22997215.4224                   22997214.5314
 11  8 23  0 37 30.0000000  0  9G10G12G17G09G05G04G25G02G30
 -46220676.29347 -35115939.01245  21088295.2584                   21088294.1994
 -35438662.23448 -26074424.57446  20928952.4454                   20928950.3714
 -77191736.96146 -60107065.19544  23804518.9064                   23804518.1884
 -32438626.62546 -22106301.38342  24539402.4384                   24539406.7974
 -30766227.24648 -23931500.03946  21070118.1094                   21070116.4734
 -61256493.09047 -47121636.56644  22588665.7664                   22588664.6884
  -9212086.60947  -5292463.73844  23117840.8284                   23117842.7544
 -54929316.78148 -42747622.89546  20708061.8364                   20708058.2114
  -7769543.64847  -2864929.10244  22965444.7194                   22965444.0634
 11  8 23  0 38  0.0000000  0  9G10G12G17G09G05G04G25G02G30
 -46267635.94547 -35152530.94545  21079359.3524                   21079358.1254
 -35555331.16848 -26165335.42646  20906750.9844                   20906749.1844
 -77214123.07046 -60124508.94543  23800258.5864                   23800259.1024
 -32441229.60946 -22108329.84443  24538907.3754                   24538911.7464
 -30917518.10948 -24049388.97746  21041328.5704                   21041327.7894
 -61259397.29747 -47123899.60944  22588113.3594                   22588112.1844
  -9381691.91047  -5424623.65644  23085566.4534                   23085567.4804
 -54998987.92248 -42801912.08646  20694804.1884                   20694799.9884
  -7936037.61347  -2994664.59444  22933762.1024                   22933761.0354
 11  8 23  0 38 30.0000000  0  9G10G12G17G09G05G04G25G02G30
 -46313942.33247 -35188613.85545  21070547.7584                   21070546.5514
 -35671399.03548 -26255777.89846  20884664.0864                   20884662.0664
 -77236264.68046 -60141762.17244  23796045.6174                   23796045.4694
 -32443795.64146 -22110329.49243  24538419.2974                   24538423.6134
 -31068288.17648 -24166872.10246  21012637.6804                   21012636.7114
 -61262207.13347 -47126089.09844  22587578.1954                   22587577.7114
  -9550909.67647  -5556481.59844  23053364.9144                   23053366.6134
 -55068382.06648 -42855985.44146  20681598.6724                   20681594.8594
  -8102070.41847  -3124040.75444  22902166.9304                   22902166.1054
 11  8 23  0 39  0.0000000  0  9G10G12G17G09G05G04G25G02G30
 -46359595.98047 -35224188.12545  21061860.2814                   21061859.0704
 -35786864.10248 -26345750.67246  20862691.7034                   20862689.6054
 -77258161.10546 -60158824.35943  23791878.0474                   23791878.2074
 -32446327.02746 -22112302.14543  24537938.2424                   24537941.9734
 -31218534.85548 -24283947.38746  20984046.8364                   20984045.6024
 -61264922.91047 -47128205.30144  22587061.6254                   22587060.8554
  -9719736.40247  -5688034.86344  23021238.0554                   23021239.2974
 -55137499.34448 -42909843.05946  20668446.0234                   20668442.3524
  -8267638.61747  -3253054.89844  22870660.2814                   22870659.7194
 11  8 23  0 39 30.0000000  0  9G10G12G17G09G05G04G25G02G30
 -46404592.70347 -35259250.51245  21053297.5084                   21053296.3094
 -35901719.23848 -26435248.16846  20840835.6254                   20840833.6954
 -77279806.11346 -60175690.66043  23787759.4384                   23787759.3134
 -32448820.84046 -22114245.52343  24537462.9534                   24537467.3244
 -31368250.16848 -24400608.62946  20955556.8674                   20955555.3594
 -61267540.62147 -47130245.09844  22586563.1884                   22586562.9574
  -9888163.69147  -5819276.86344  22989187.6954                   22989189.1604
 -55206335.48448 -42963481.60546  20655346.6954                   20655342.7464
  -8432733.74247  -3381700.41444  22839243.2664                   22839243.1954
 11  8 23  0 40  0.0000000  0  9G10G12G17G09G05G04G25G02G30
 -46448935.45748 -35293803.30945  21044859.4614                   21044858.1054
 -36015964.23448 -26524270.23046  20819095.8364                   20819093.6644
 -77301200.85246 -60192361.90243  23783688.3524                   23783688.4804
 -32451281.74246 -22116163.29343  24536994.7814                   24536999.0984
 -31517432.93048 -24516854.89146  20927168.6954                   20927167.0354
 -61270062.79347 -47132210.46144  22586083.1804                   22586083.2504
 -10056190.34847  -5950206.68044  22957213.5944                   22957214.4264
 -55274893.14148 -43016903.16446  20642301.0634                   20642296.9384
  -8597354.66047  -3509976.41444  22807917.3594                   22807916.8834
 11  8 23  0 40 30.0000000  0  9G10G12G17G09G05G04G25G02G30
 -46492629.19148 -35327850.37945  21036544.8594                   21036543.7194
 -36129600.97748 -26612818.32846  20797471.2734                   20797469.1764
 -77322348.34446 -60208840.50043  23779663.7734                   23779664.5354
 -32453716.30546 -22118060.50443  24536531.5474                   24536536.0234
 -31666084.43448 -24632687.18746  20898881.1094                   20898879.7074
 -61272494.20746 -47134105.12544  22585620.6334                   22585620.7624
 -10223817.25047  -6080824.98444  22925315.4224                   22925316.0904
 -55343177.02048 -43070111.37946  20629306.8444                   20629302.9344
  -8761502.23047  -3637883.55944  22776680.7114                   22776680.4574
 11  8 23  0 41  0.0000000  0  9G10G12G17G09G05G04G25G02G30
 -46535672.41448 -35361390.57445  21028353.6484                   21028352.6294
 -36242625.58248 -26700889.43746  20775963.3284                   20775960.9804
 -77343245.48846 -60225123.98843  23775686.4924                   23775687.7624
 -32456124.25046 -22119937.02043  24536073.8754                   24536077.7894
 -31814199.74648 -24748101.66046  20870695.2504                   20870694.3834
 -61274833.63347 -47135928.07844  22585175.7034                   22585175.6134
 -10391038.82047  -6211127.46544  22893493.8674                   22893494.5784
 -55411185.12148 -43123104.70346  20616365.4614                   20616362.0474
  -8925170.80547  -3765417.46944  22745536.5634                   22745535.3634
 11  8 23  0 41 30.0000000  0  9G10G12G17G09G05G04G25G02G30
 -46578068.68047 -35394426.64545  21020286.0164                   21020285.1954
 -36355038.42247 -26788483.85246  20754571.7664                   20754570.0784
 -77363893.84045 -60241213.64543  23771757.6564                   23771758.7974
 -32458510.53946 -22121796.66443  24535620.3054                   24535623.9804
 -31961778.42248 -24863097.98046  20842611.8984                   20842610.3634
 -61277083.81247 -47137681.50444  22584747.1564                   22584747.3244
 -10557854.19547  -6341113.43044  22861749.6954                   22861750.4494
 -55478920.33248 -43175885.39146  20603475.9844                   20603472.6214
  -9088359.54347  -3892577.50044  22714482.1484                   22714481.2344
 11  8 23  0 42  0.0000000  0  9G10G12G17G09G05G04G25G02G30
 -45044399.37947 -34199359.67245  21312133.5944                   21312132.4534
 -34891415.35948 -25647998.34046  21033089.6884                   21033087.9844
 -75808873.62946 -59029509.61743  24067668.9534                   24067669.1684
 -30885459.60546 -20896042.87543  24834961.7424                   24834965.9654
 -30533394.80148 -23750071.74646  21114424.2664                   21114422.9804
 -59703827.30947 -45911767.37544  22884128.4304                   22884128.0234
  -9148836.36347  -5243177.44144  23129877.0634                   23129878.1644
 -53970962.93048 -42000853.64846  20890430.8444                   20890426.8634
  -7675641.62547  -2791758.30544  22983313.7274                   22983312.7424
 11  8 23  0 42 30.0000000  0  9G10G12G17G09G05G04G25G02G30
 -45085511.48447 -34231395.09845  21304310.1724                   21304309.7584
 -35002605.71948 -25734640.16846  21011931.0944                   21011929.1174
 -75829028.89546 -59045215.00843  24063833.6174                   24063833.7034
 -30887817.14846 -20897880.14843  24834512.9924                   24834517.8444
 -30679899.44548 -23864231.16046  21086545.3524                   21086544.1334
 -59705908.60547 -45913389.21544  22883732.3444                   22883731.1844
  -9314836.81247  -5372528.41444  23098287.9384                   23098289.2664
 -54038161.57048 -42053216.21946  20877643.2734                   20877639.1804
  -7837868.30947  -2918168.66444  22952442.1254                   22952441.5164
 11  8 23  0 43  0.0000000  0  9G10G12G17G09G05G04G25G02G30
 -45125983.73047 -34262931.91845  21296608.9304                   21296607.4024
 -35113182.44548 -25820803.84846  20990889.2664                   20990887.0864
 -75848936.87946 -59060727.77043  24060044.6644                   24060045.6024
 -30890164.18746 -20899709.21143  24834067.2584                   24834071.0824
 -30825863.48848 -23977969.32846  21058769.1174                   21058767.9224
 -59707907.05547 -45914946.48844  22883351.8524                   22883351.5864
  -9480425.60947  -5501558.62144  23066777.3364                   23066778.8674
 -54105093.21548 -42105370.75046  20864906.5634                   20864903.0044
  -7999609.68447  -3044200.86744  22921663.8674                   22921663.2074
 11  8 23  0 43 30.0000000  0  9G10G12G17G09G05G04G25G02G30
 -45165815.71947 -34293969.84845  21289028.6334                   21289027.5354
 -35223142.23448 -25906486.79346  20969964.6334                   20969962.6134
 -75868595.12946 -59076045.89144  24056303.7114                   24056304.7194
 -30892501.51646 -20901530.70343  24833622.0394                   24833626.1174
 -30971282.44948 -24091282.77046  21031097.0704                   21031095.7814
 -59709821.70347 -45916438.45743  22882987.3444                   22882986.5784
  -9645597.74647  -5630264.14844  23035346.2584                   23035347.4304
 -54171756.85248 -42157316.44946  20852220.9694                   20852216.9384
  -8160860.96147  -3169851.18744  22890978.5474                   22890978.7544
 11  8 23  0 44  0.0000000  0  9G10G12G17G09G05G04G25G02G30
 -45205004.30547 -34324506.42245  21281571.9924                   21281570.7734
 -35332479.27048 -25991684.48046  20949158.4454                   20949156.3524
 -75887998.66446 -59091165.51643  24052611.9614                   24052611.9064
 -30894827.54746 -20903343.40243  24833179.1024                   24833183.2114
 -31116149.77748 -24204166.35946  21003530.0394                   21003528.3364
 -59711648.97347 -45917862.37144  22882639.2424                   22882639.6844
  -9810346.02747  -5758639.40644  23003995.4144                   23003997.1174
 -54238149.05548 -42209050.64146  20839587.2114                   20839582.8634
  -8321614.90246  -3295113.96144  22860388.9144                   22860388.1684
 11  8 23  0 44 30.0000000  0  9G10G12G17G09G05G04G25G02G30
 -45243545.80147 -34354538.77045  21274237.4454                   21274236.4884
 -35441186.42248 -26076391.33646  20928471.6414                   20928469.8954
 -75907141.97346 -59106082.39544  24048969.7274                   24048968.9774
 -30897139.84146 -20905145.43243  24832739.0704                   24832743.8834
 -31260458.19547 -24316614.44146  20976069.0704                   20976067.4774
 -59713384.75847 -45919214.99644  22882309.2814                   22882308.9694
  -9974662.39547  -5886678.13344  22972727.0634                   22972728.2814
 -54304265.36348 -42260569.84446  20827004.8524                   20827001.3364
  -8481863.33247  -3419982.84844  22829894.5164                   22829893.1724
 11  8 23  0 45  0.0000000  0  9G10G12G17G09G05G04G25G02G30
 -45281445.57447 -34384071.07045  21267025.8914                   21267024.7774
 -35549267.21948 -26160610.14146  20907904.9064                   20907902.8674
 -75926028.54346 -59120799.20343  24045374.9304                   24045375.1214
 -30899445.24246 -20906942.05143  24832300.3054                   24832305.5044
 -31404209.32048 -24428628.27046  20948713.4454                   20948712.2624
 -59715034.47347 -45920500.55944  22881995.8834                   22881995.3484
 -10138548.23047  -6014381.36744  22941541.0164                   22941542.1254
 -54370111.03948 -42311878.16446  20814475.1804                   20814471.0474
  -8641607.93047  -3544459.14144  22799496.2114                   22799495.0124
 11  8 23  0 45 30.0000000  0  9G10G12G17G09G05G04G25G02G30
 -45318704.21547 -34413103.78545  21259935.3204                   21259933.7934
 -35656718.84048 -26244338.66846  20887457.8284                   20887455.6644
 -75944656.81646 -59135314.77044  24041829.8204                   24041831.0784
 -30901745.45346 -20908734.67243  24831863.5864                   24831867.4774
 -31547399.96548 -24540205.36346  20921465.3284                   20921464.0394
 -59716597.85947 -45921718.84444  22881698.5394                   22881697.7194
 -10301999.69947  -6141746.15644  22910437.3834                   22910438.5044
 -54435686.03948 -42362975.55546  20801996.8834                   20801992.9964
  -8800844.76247  -3668539.78544  22769193.6724                   22769193.6024
 11  8 23  0 46  0.0000000  0  9G10G12G17G09G05G04G25G02G30
 -45355327.53947 -34441641.44145  21252966.2814                   21252964.8014
 -35763544.05148 -26327579.08246  20867129.5634                   20867127.5744
 -75963030.61346 -59149632.03943  24038333.6644                   24038334.0784
 -30904047.19546 -20910528.46143  24831425.6564                   24831429.9534
 -31690031.91448 -24651347.09846  20894323.2424                   20894322.0864
 -59718080.28947 -45922874.05144  22881416.7034                   22881416.0634
 -10465018.20347  -6268773.56244  22879415.1484                   22879417.0824
 -54500995.07048 -42413865.71146  20789568.5084                   20789564.5704
  -8959575.33247  -3792225.93444  22738989.0234                   22738987.5704
 11  8 23  0 46 30.0000000  0  9G10G12G17G09G05G04G25G02G30
 -45391322.52747 -34469689.48045  21246116.5474                   21246115.3204
 -35869746.71148 -26410334.39846  20846919.8674                   20846917.5434
 -75981155.55946 -59163755.40643  24034884.7974                   24034885.1914
 -30906358.69146 -20912329.87543  24830987.1804                   24830990.9534
 -31832108.89148 -24762056.39546  20867287.1804                   20867286.0514
 -59719488.24647 -45923971.21944  22881147.8674                   22881148.2114
 -10627606.42247  -6395465.68744  22848476.3054                   22848477.2194
 -54566045.15248 -42464554.09446  20777190.2584                   20777186.3984
  -9117802.34047  -3915519.69544  22708878.5164                   22708877.7774
 11  8 23  0 47  0.0000000  0  9G10G12G17G09G05G04G25G02G30
 -45426686.53947 -34497245.86345  21239387.4774                   21239386.2194
 -35975321.18748 -26492600.21546  20826829.3364                   20826827.7544
 -75999026.40646 -59177680.75043  24031484.0164                   24031484.5394
 -30908678.34446 -20914137.60942  24830545.4384                   24830550.0744
 -31973624.12947 -24872327.97746  20840357.3054                   20840356.0634
 -59720818.19147 -45925007.62144  22880895.5084                   22880895.8914
 -10789757.19547  -6521816.95345  22817619.6644                   22817620.9144
 -54630832.44948 -42515037.69946  20764861.6414                   20764857.8634
  -9275518.66847  -4038415.54344  22678866.2194                   22678866.0004
 11  8 23  0 47 30.0000000  0  9G10G12G17G09G05G04G25G02G30
 -45461419.48047 -34524310.49245  21232777.7344                   21232776.1254
 -36080265.28548 -26574374.82846  20806859.3524                   20806857.1884
 -76016641.10545 -59191406.47343  24028131.7814                   24028132.4104
 -30911007.08645 -20915952.44942  24830101.7034                   24830107.1994
 -32114573.82048 -24982158.87146  20813535.8914                   20813534.1914
 -59722069.54746 -45925982.76244  22880657.4924                   22880657.2814
 -10951466.08647  -6647823.88744  22786847.9304                   22786848.7194
 -54695356.33648 -42565316.05546  20752583.4614                   20752579.2544
  -9432720.05546  -4160910.12144  22648951.9454                   22648951.6994
 11  8 23  0 48  0.0000000  0  8G10G12G17G05G04G25G02G30
 -45495522.11747 -34550883.97345  21226288.1094                   21226286.8204
 -36184576.60548 -26655656.37146  20787009.8984                   20787007.1524
 -76033998.63745 -59204931.85543  24024827.7584                   24024829.7934
 -32254955.13348 -25091546.86746  20786821.9384                   20786820.9804
 -59723242.77746 -45926897.01244  22880434.4534                   22880434.4494
 -11112729.66047  -6773483.82045  22756160.3204                   22756161.7274
 -54759617.07448 -42615389.36346  20740354.8754                   20740350.8984
  -9589403.05147  -4283000.74244  22619136.1334                   22619136.1484
 11  8 23  0 48 30.0000000  0  8G10G12G17G05G04G25G02G30
 -45528999.58247 -34576970.28545  21219917.2734                   21219915.9614
 -36288257.14848 -26736446.39546  20767280.1804                   20767278.0664
 -76051101.81646 -59218259.02743  24021574.7734                   24021575.0044
 -32394769.26648 -25200492.90646  20760215.7344                   20760214.8754
 -59724342.14846 -45927753.70744  22880225.1484                   22880225.5084
 -11273548.46147  -6898797.16845  22725557.6094                   22725559.1294
 -54823618.84048 -42665260.86346  20728175.2894                   20728171.8014
  -9745568.19147  -4404687.84444  22589419.2344                   22589418.8164
 11  8 23  0 49  0.0000000  0  8G10G12G17G05G04G25G02G30
 -45561854.59447 -34602571.57045  21213664.9384                   21213664.0314
 -36391306.47348 -26816744.56246  20747670.2814                   20747667.9804
 -76067951.26646 -59231388.46543  24018368.6954                   24018368.6484
 -32534015.21948 -25308996.21546  20733718.4454                   20733717.0044
 -59725369.10946 -45928553.95744  22880030.1254                   22880030.2464
 -11433920.52747  -7023762.39845  22695040.0234                   22695041.2304
 -54887363.21548 -42714931.80546  20716045.1644                   20716041.5164
  -9901213.68747  -4525970.05944  22559800.8834                   22559800.5204
 11  8 23  0 49 30.0000000  0  8G10G12G17G05G04G25G02G30
 -45594086.29747 -34627687.18445  21207531.6414                   21207530.5944
 -36493721.13748 -26896548.19546  20728181.0474                   20728179.1254
 -76084544.03546 -59244317.90643  24015210.3834                   24015211.0824
 -32672688.27748 -25417053.10246  20707329.7584                   20707328.3524
 -59726322.27346 -45929296.75044  22879847.1804                   22879848.9574
 -11593840.72747  -7148375.52344  22664607.9694                   22664609.2304
 -54950848.97348 -42764401.21946  20703964.3594                   20703961.0704
 -10056334.54347  -4646843.45344  22530282.6804                   22530281.5434
 11  8 23  0 50  0.0000000  0  8G10G12G17G05G04G25G02G30
 -45625695.21547 -34652317.49645  21201517.0004                   21201515.6994
 -36595498.70348 -26975855.38346  20708814.1724                   20708812.0944
 -76100878.56246 -59257046.09043  24012101.8834                   24012102.3094
 -32810785.22348 -25524661.07846  20681050.9304                   20681049.4064
 -59727201.51646 -45929981.88743  22879680.3134                   22879680.6484
 -11753305.18047  -7272633.53145  22634262.8444                   22634264.3324
 -55014075.98048 -42813669.01646  20691932.6564                   20691928.9494
 -10210926.92247  -4767305.04344  22500864.6414                   22500864.1334
 11  8 23  0 50 30.0000000  0  8G10G12G17G05G04G25G02G30
 -45656684.71947 -34676465.15645  21195619.8754                   21195618.6994
 -36696639.94948 -27054666.73046  20689567.2734                   20689565.3554
 -76116956.18446 -59269574.10543  24009042.9454                   24009042.6684
 -32948305.82448 -25631819.94946  20654881.5314                   20654880.0204
 -59728009.69946 -45930611.64143  22879526.9384                   22879526.4964
 -11912312.96947  -7396535.67245  22604004.7814                   22604006.0084
 -55077046.61347 -42862737.03546  20679949.8914                   20679946.4184
 -10364989.95347  -4887354.15644  22471547.1954                   22471546.7774
 11  8 23  0 51  0.0000000  0  8G10G12G17G05G04G25G02G30
 -45687059.64147 -34700133.91045  21189839.3204                   21189838.2034
 -36797146.39548 -27132983.44146  20670441.4224                   20670439.6604
 -76132780.14546 -59281904.45743  24006030.6174                   24006031.9534
 -33085251.14148 -25738530.54346  20628821.4694                   20628820.5434
 -59728750.52346 -45931188.91843  22879386.5004                   22879385.4804
 -12070864.29347  -7520082.12545  22573833.6724                   22573834.5204
 -55139764.95348 -42911608.47746  20668014.7814                   20668010.9844
 -10518524.01647  -5006991.06244  22442330.5634                   22442330.1684
 11  8 23  0 51 30.0000000  0  8G10G12G17G05G04G25G02G30
 -44141399.07847 -33495723.06645  21483968.6334                   21483967.6524
 -35321592.20348 -25983200.95346  20951230.2114                   20951228.3284
 -74572927.24246 -58066434.63343  24302860.9774                   24302862.0084
 -31646192.69948 -24617186.26246  20902665.1024                   20902664.0394
 -58154003.14146 -44704113.03944  23179051.1024                   23179050.0314
 -10653529.39547  -6415665.28545  22843543.2734                   22843544.3164
 -53626807.88347 -41732680.87546  20955921.0004                   20955917.3364
  -9096099.66046  -3898608.42644  22713008.6644                   22713008.0274
 11  8 23  0 52  0.0000000  0  8G10G12G17G05G04G25G02G30
 -44170550.23447 -33518438.24645  21478421.5474                   21478420.3284
 -35420825.96148 -26060525.95346  20932346.7114                   20932344.1884
 -74588241.70346 -58078367.96943  24299946.5864                   24299947.9694
 -31781981.10248 -24722995.37146  20876825.5084                   20876824.2194
 -58154611.73446 -44704587.25844  23178935.3284                   23178934.6954
 -10811159.52347  -6538493.91045  22813547.2114                   22813548.0434
 -53689024.05548 -41781160.99646  20944081.4694                   20944077.8444
  -9248567.75046  -4017414.70344  22683994.9614                   22683994.6414
 11  8 23  0 52 30.0000000  0  8G10G12G17G05G04G25G02G30
 -44199093.10247 -33540679.42645  21472990.2974                   21472988.6174
 -35519422.66448 -26137354.55146  20913584.2194                   20913581.9884
 -74603301.89146 -58090103.18043  24297081.1564                   24297081.9574
 -31917188.98448 -24828352.12146  20851096.6174                   20851095.3594
 -58155156.59046 -44705011.81644  23178831.3834                   23178830.9264
 -10968325.82847  -6660961.09845  22783639.6884                   22783640.1254
 -53750991.00848 -41829446.92646  20932289.4224                   20932286.2034
  -9400499.81647  -4135803.28944  22655083.9304                   22655082.8634
 11  8 23  0 53  0.0000000  0  8G10G12G17G05G04G25G02G30
 -44227027.28147 -33562446.32445  21467674.2504                   21467672.8484
 -35617379.16848 -26213684.28546  20894944.1334                   20894941.7624
 -74618105.26646 -58101638.25843  24294264.7664                   24294265.7734
 -32051812.27748 -24933253.34446  20825478.2584                   20825477.1764
 -58155636.18746 -44705385.55144  23178739.6094                   23178739.9144
 -11125023.50047  -6783063.12145  22753820.3204                   22753821.6684
 -53812707.93748 -41877538.02346  20920545.4304                   20920541.8754
  -9551891.18747  -4253770.55544  22626275.2584                   22626274.0664
 11  8 23  0 53 30.0000000  0  8G10G12G17G05G04G25G02G30
 -44254354.62147 -33583740.35545  21462474.1804                   21462472.7154
 -35714694.58248 -26289514.48046  20876425.1174                   20876423.1484
 -74632651.90646 -58112973.30743  24291496.9774                   24291496.4964
 -32185849.40248 -25037697.81646  20799971.9844                   20799970.4924
 -58156051.85246 -44705709.46544  23178660.3364                   23178660.7114
 -11281250.16047  -6904798.13345  22724091.8984                   22724092.8594
 -53874176.02748 -41925435.23446  20908848.5084                   20908844.6604
  -9702739.55147  -4371314.70344  22597569.0314                   22597567.9694
 11  8 23  0 54  0.0000000  0  8G10G12G17G05G04G25G02G30
 -44281072.66447 -33604559.60945  21457390.0474                   21457388.3954
 -35811363.77348 -26364841.12946  20858029.6334                   20858027.6724
 -74646936.75046 -58124104.36743  24288778.3834                   24288778.5124
 -32319293.89148 -25141680.48846  20774577.9534                   20774576.7504
 -58156399.61347 -44705980.41844  23178594.2974                   23178595.7194
 -11436998.48047  -7026160.39845  22694453.4924                   22694455.0704
 -53935391.28548 -41973135.41846  20897199.4384                   20897195.9414
  -9853037.73847  -4488430.13344  22568967.4304                   22568967.3484
 11  8 23  0 54 30.0000000  0  8G10G12G17G05G04G25G02G30
 -44307187.16047 -33624908.56645  21452420.6954                   21452419.1214
 -35907388.93448 -26439665.92646  20839756.7274                   20839754.3324
 -74660963.18046 -58135034.05943  24286108.7734                   24286108.7274
 -32452146.90648 -25245202.27746  20749297.1254                   20749295.8484
 -58156683.94147 -44706201.96144  23178540.4304                   23178540.7624
 -11592269.36347  -7147150.62945  22664907.1484                   22664907.6094
 -53996358.30548 -42020642.18746  20885597.5004                   20885594.3014
 -10002786.87547  -4605117.71944  22540471.6334                   22540470.9144
 11  8 23  0 55  0.0000000  0  8G10G12G17G05G04G25G02G30
 -44332703.77347 -33644791.64845  21447564.8834                   21447563.7584
 -36002773.33248 -26513991.43046  20821605.2584                   20821603.4614
 -74674735.16046 -58145765.44943  24283488.0234                   24283487.9804
 -32584411.69548 -25348265.71546  20724127.7504                   20724126.3204
 -58156910.06246 -44706378.16044  23178498.2584                   23178497.2734
 -11747064.40247  -7267770.08245  22635449.6254                   22635450.6414
 -54057082.05148 -42067959.38346  20874042.2344                   20874038.8874
 -10151988.52047  -4721378.69944  22512079.8754                   22512078.9304
 11  8 23  0 55 30.0000000  0  8G10G12G17G05G04G25G02G30
 -44357619.39547 -33664206.42245  21442823.7894                   21442822.6484
 -36097510.94948 -26587812.94946  20803577.6024                   20803575.6604
 -74688247.00446 -58156294.19143  24280917.0004                   24280916.8984
 -32716080.87148 -25450865.03146  20699072.0314                   20699070.6644
 -58157073.50447 -44706505.50444  23178466.4774                   23178465.6684
 -11901375.77747  -7388012.63745  22606085.4144                   22606086.6294
 -54117558.30948 -42115083.73846  20862534.3594                   20862530.7584
 -10300635.08247  -4837207.12944  22483792.9064                   22483792.2234
 11  8 23  0 56  0.0000000  0  8G10G12G17G05G04G25G02G30
 -44381935.94947 -33683154.37945  21438196.0084                   21438195.2894
 -36191600.71948 -26661129.64846  20785672.8204                   20785670.9694
 -74701498.66846 -58166620.14543  24278395.4454                   24278395.7934
 -32847152.38748 -25552998.64846  20674130.1804                   20674128.8444
 -58157174.85247 -44706584.46943  23178446.9774                   23178446.7774
 -12055200.78547  -7507876.20745  22576813.5944                   22576814.9224
 -54177787.87548 -42162015.85546  20851073.0394                   20851068.6564
 -10448724.04747  -4952601.06244  22455612.8364                   22455611.9024
 11  8 23  0 56 30.0000000  0  8G10G12G17G05G04G25G02G30
 -44405661.98047 -33701642.20745  21433681.6024                   21433680.2774
 -36285048.66048 -26733946.22746  20767890.4534                   20767888.3984
 -74714496.60546 -58176748.39143  24275922.3054                   24275922.1954
 -32977631.39548 -25654670.55946  20649300.3834                   20649299.3404
 -58157221.95347 -44706621.16443  23178438.4614                   23178438.0594
 -12208543.59047  -7627364.05945  22547633.0704                   22547634.6414
 -54237778.47348 -42208761.77746  20839657.8444                   20839653.1884
 -10596259.67647  -5067563.83244  22427537.3364                   22427536.4964
 11  8 23  0 57  0.0000000  0  8G10G12G17G05G04G25G02G30
 -44428794.84047 -33719667.80945  21429278.9924                   21429278.0124
 -36377849.31248 -26806258.43046  20750231.0474                   20750228.7194
 -74727235.64846 -58186674.93443  24273497.4144                   24273497.1994
 -33107511.48048 -25755875.77046  20624585.4224                   20624583.9304
 -58157210.57046 -44706612.27343  23178440.5554                   23178439.6484
 -12361396.77347  -7746470.37145  22518546.1954                   22518547.2734
 -54297525.96548 -42255318.26246  20828286.7974                   20828284.1134
 -10743234.76647  -5182089.82844  22399569.6254                   22399568.0004
 11  8 23  0 57 30.0000000  0  8G10G12G17G05G04G25G02G30
 -44451340.88347 -33737236.14845  21424989.1884                   21424987.7194
 -36470005.82448 -26878068.71546  20732694.3444                   20732692.0514
 -74739719.78146 -58196402.84442  24271121.9224                   24271122.6764
 -33236794.93448 -25856616.09446  20599983.4614                   20599981.9454
 -58157145.87146 -44706561.84043  23178452.1414                   23178452.1994
 -12513761.94947  -7865196.43745  22489552.2274                   22489552.8714
 -54357035.41447 -42301689.26246  20816963.0634                   20816959.7854
 -10889651.03547  -5296180.37944  22371706.9304                   22371705.8014
 11  8 23  0 58  0.0000000  0  8G10G12G17G05G04G25G02G30
 -44473305.22747 -33754351.23445  21420809.4224                   21420808.2894
 -36561520.78148 -26949379.06646  20715279.5234                   20715277.5594
 -74751951.93046 -58205934.30942  24268794.7504                   24268794.6414
 -33365483.21948 -25956892.64546  20575494.9534                   20575493.4804
 -58157031.64546 -44706472.80543  23178473.1804                   23178473.9494
 -12665639.77347  -7983542.74245  22460650.2584                   22460651.9414
 -54416311.09047 -42347878.10546  20805683.4774                   20805679.7154
 -11035509.34847  -5409836.14844  22343951.4924                   22343950.6254
 11  8 23  0 58 30.0000000  0  8G10G12G17G05G04G25G02G30
 -44494691.13347 -33771015.58645  21416739.9224                   21416738.2384
 -36652394.74248 -27020189.95346  20697986.9304                   20697984.3594
 -74763933.16846 -58215270.34042  24266513.9064                   24266514.1374
 -33493576.02348 -26056705.18046  20551119.4694                   20551118.2664
 -58156870.08646 -44706346.85943  23178505.1484                   23178504.3914
 -12817028.90647  -8101508.25845  22431841.9144                   22431843.3284
 -54475355.02347 -42393886.37146  20794447.5004                   20794444.1294
 -11180808.55947  -5523056.25844  22316301.8204                   22316300.5904
 11  8 23  0 59  0.0000000  0  8G10G12G17G05G04G25G02G30
 -44515496.27747 -33787227.39145  21412780.8054                   21412779.1684
 -36742622.08648 -27090496.98446  20680817.3444                   20680814.9844
 -74775658.90245 -58224407.30143  24264281.9924                   24264282.8984
 -33621067.32448 -26156049.01246  20526859.0004                   20526857.5004
 -58156657.44946 -44706181.19143  23178544.5394                   23178545.0004
 -12967922.32847  -8219087.50845  22403128.4774                   22403129.2154
 -54534163.39148 -42439711.07446  20783257.0864                   20783253.5864
 -11325541.83647  -5635835.39144  22288760.0474                   22288758.5824
 11  8 23  0 59 30.0000000  0  8G10G12G17G05G04G25G02G30
 -44535732.39547 -33802995.82045  21408929.5944                   21408928.1724
 -36832212.51648 -27160307.71546  20663768.7344                   20663766.6804
 -74787138.78945 -58233352.67643  24262097.3674                   24262099.7234
 -33747965.21148 -26254930.45346  20502711.1414                   20502709.3674
 -58156404.32447 -44705983.91843  23178594.4614                   23178593.5204
 -13118327.35547  -8336286.21145  22374507.2664                   22374508.2624
 -54592747.17647 -42485360.77346  20772108.9064                   20772105.4024
 -11469716.74247  -5748179.43044  22261324.1484                   22261323.2034
 11  8 23  1  0  0.0000000  0  9G10G12G17G29G05G04G25G02G30
 -44555403.52047 -33818323.97345  21405186.6954                   21405185.4104
 -36921166.95748 -27229622.87146  20646841.6564                   20646839.2074
 -74798374.32045 -58242107.72743  24259960.1094                   24259961.2384
   9031627.72715                  24498829.922
 -33874269.60948 -26353349.44146  20478675.6724                   20478674.2504
 -58156113.12547 -44705756.98443  23178649.4774                   23178649.3594
 -13268243.11747  -8453103.66445  22345978.7504                   22345979.7974
 -54651109.01648 -42530837.52746  20761002.6414                   20760999.2034
 -11613332.57847  -5860087.82444  22233994.1094                   22233993.9774
 11  8 23  1  0 30.0000000  0  9G10G12G17G29G05G04G25G02G30
 -44574513.44947 -33833214.83645  21401550.1484                   21401548.7504
 -37009486.46548 -27298443.26646  20630034.3834                   20630032.5474
 -74809367.00046 -58250673.46143  24257868.7974                   24257869.7274
   8870495.78115                  24468167.125
 -33999981.01648 -26451306.34046  20454753.9144                   20454752.3714
 -58155786.26246 -44705502.25844  23178711.4694                   23178711.0744
 -13417669.04347  -8569539.43445  22317544.0634                   22317545.4534
 -54709251.21148 -42576143.13746  20749939.2274                   20749935.0944
 -11756388.80547  -5971560.15644  22206771.6804                   22206771.2894
 11  8 23  1  1  0.0000000  0  9G10G12G17G29G05G04G25G02G30
 -43017646.57047 -32620071.82845  21697811.6094                   21697810.9384
 -35521750.25448 -26139168.30146  20913141.4144                   20913139.2544
 -73244699.40246 -57031451.95743  24555614.9224                   24555615.7234
  10284761.770 5                  24737293.273
 -32549676.44548 -25321198.85246  20730737.6094                   20730736.0864
 -56580007.48846 -43477622.70343  23478572.4694                   23478572.2774
 -11991180.38347  -7457989.82445  22588995.8674                   22588996.8984
 -53191755.52348 -41393678.96946  21038708.9844                   21038704.5704
 -10323461.31647  -4854993.25844  22479449.4454                   22479448.1804
 11  8 23  1  1 30.0000000  0  9G10G12G17G29G05G04G25G02G30
 -43035641.72347 -32634094.02745  21694387.8054                   21694386.5704
 -35608799.12948 -26206998.59046  20896576.7894                   20896574.1884
 -73255206.94546 -57039639.62143  24553615.7504                   24553616.0354
  10123580.844 5                  24706621.930
 -32674197.42648 -25418228.15646  20707041.8594                   20707040.1684
 -56579612.66046 -43477315.04343  23478646.7344                   23478647.3794
 -12139619.75447  -7573656.87145  22560748.8674                   22560749.7274
 -53249462.18748 -41438645.19546  21027727.8594                   21027723.6214
 -10465392.36347  -4965588.85244  22452440.1644                   22452439.5514
 11  8 23  1  2  0.0000000  0  9G10G12G17G29G05G04G25G02G30
 -43053086.09847 -32647687.05545  21691068.1954                   21691067.1254
 -35695215.12148 -26274335.72746  20880131.8524                   20880129.9774
 -73265475.15646 -57047640.80143  24551661.2274                   24551661.2934
   9962373.070 5                  24675943.922
 -32798124.68748 -25514794.81246  20683459.3364                   20683458.1604
 -56579188.44946 -43476984.49243  23478728.4064                   23478727.6644
 -12287565.63347  -7688939.37945  22532595.9774                   22532596.9654
 -53306955.64547 -41483445.28146  21016786.8134                   21016783.4774
 -10606761.01647  -5075746.23844  22425539.1484                   22425537.6644
 11  8 23  1  2 30.0000000  0  9G10G12G17G29G05G04G25G02G30
 -43069976.34447 -32660848.28945  21687853.5234                   21687852.5944
 -35780991.96548 -26341174.81246  20863809.6334                   20863807.3364
 -73275498.82046 -57055451.47743  24549754.3364                   24549754.1884
   9801144.762 5                  24645262.727
 -32921451.42248 -25610893.53146  20659990.7974                   20659989.8524
 -56578729.94146 -43476627.19143  23478814.8984                   23478814.5664
 -12435010.16447  -7803831.21945  22504538.0164                   22504538.8834
 -53364231.33247 -41528075.68046  21005887.7504                   21005884.3054
 -10747559.45747  -5185459.30544  22398745.7734                   22398744.5634
 11  8 23  1  3  0.0000000  0  9G10G12G17G29G05G04G25G02G30
 -43086313.63747 -32673578.64145  21684745.1884                   21684743.9734
 -35866128.70347 -26407515.12146  20847608.2734                   20847606.3404
 -73285276.22346 -57063070.18743  24547893.5164                   24547894.1564
   9639897.65645   8489327.47752  24614579.9614                   24614581.1214
 -33044175.05948 -25706522.31246  20636637.5164                   20636635.7344
 -56578237.05146 -43476243.12943  23478908.6484                   23478908.0044
 -12581949.84847  -7918329.69145  22476576.3054                   22476577.3164
 -53421289.32447 -41572536.45346  20995029.9384                   20995026.4184
 -10887784.52347  -5294725.59044  22372061.9064                   22372060.9844
 11  8 23  1  3 30.0000000  0  9G10G12G17G29G05G04G25G02G30
 -43102103.37147 -32685882.32445  21681740.0394                   21681739.1994
 -35950627.89148 -26473358.63746  20831528.4304                   20831526.4144
 -73294810.65646 -57070499.62143  24546078.9614                   24546079.2734
   9478629.16845   8363663.71142  24583890.1804                   24583892.9654
 -33166297.37548 -25801682.52746  20613398.5554                   20613397.3134
 -56577713.52746 -43475835.20743  23479008.9144                   23479008.2384
 -12728385.58247  -8032435.49245  22448710.4304                   22448711.2154
 -53478133.61347 -41616830.70346  20984212.6644                   20984209.0164
 -11027437.36347  -5403545.99244  22345486.8834                   22345485.8714
 11  8 23  1  4  0.0000000  0  9G10G12G17G29G05G04G25G02G30
 -43117344.60947 -32697758.61745  21678840.0164                   21678839.2034
 -36034486.09447 -26538702.68746  20815570.8674                   20815568.7584
 -73304098.50046 -57077736.89842  24544311.5784                   24544311.7034
   9317343.70745   8237986.75442  24553199.6564                   24553200.6724
 -33287813.30948 -25896370.23046  20590274.2274                   20590273.6174
 -56577156.49646 -43475401.17643  23479113.9534                   23479114.7384
 -12874311.25447  -8146143.82845  22420941.3984                   22420942.6954
 -53534761.38747 -41660956.23046  20973437.1334                   20973433.3634
 -11166512.07047  -5511915.91844  22319021.9304                   22319020.6254
 11  8 23  1  4 30.0000000  0  9G10G12G17G29G05G04G25G02G30
 -43132042.27747 -32709211.33245  21676043.1254                   21676042.0514
 -36117705.01248 -26603548.58646  20799734.8754                   20799732.8244
 -73313142.43746 -57084784.12943  24542590.2274                   24542591.3674
   9156039.46545   8112295.17242  24522503.9064                   24522505.3914
 -33408724.25048 -25990586.52046  20567266.1484                   20567264.7814
 -56576569.41846 -43474943.74243  23479227.0704                   23479226.2034
 -13019727.27747  -8259455.03145  22393270.5084                   22393271.2194
 -53591176.12548 -41704915.76246  20962701.5554                   20962698.0434
 -11305009.25047  -5619835.81244  22292666.4304                   22292665.5864
 11  8 23  1  5  0.0000000  0  8G10G12G29G05G04G25G02G30
 -43146199.39147 -32720242.85245  21673349.2734                   21673348.0904
 -36200285.69948 -26667897.16046  20784020.5084                   20784018.0904
   8994716.23446   7986588.82442  24491805.4304                   24491806.9844
 -33529029.62548 -26084330.93446  20544372.3674                   20544370.9414
 -56575953.97746 -43474464.16443  23479343.3444                   23479342.9494
 -13164632.26247  -8372368.03145  22365695.3754                   22365696.6484
 -53647379.65247 -41748710.71946  20952006.1024                   20952002.3594
 -11442927.87947  -5727304.87944  22266421.7424                   22266420.9844
 11  8 23  1  5 30.0000000  0  8G10G12G29G05G04G25G02G30
 -43159816.85547 -32730853.86345  21670757.9144                   21670756.7424
 -36282225.93447 -26731746.69146  20768427.4534                   20768425.7894
   8833376.55546   7860869.60542  24461103.6724                   24461104.2194
 -33648726.97348 -26177601.55546  20521595.1724                   20521593.6994
 -56575309.16846 -43473961.76243  23479465.5394                   23479465.7384
 -13309022.28547  -8484879.74645  22338219.0004                   22338219.8954
 -53703371.37147 -41792340.62546  20941351.6094                   20941347.7504
 -11580264.14147  -5834320.16045  22240287.2504                   22240286.8834
 11  8 23  1  6  0.0000000  0  8G10G12G29G05G04G25G02G30
 -43172896.02347 -32741045.41845  21668269.0864                   21668267.6684
 -36363524.54748 -26795096.25446  20752957.1174                   20752955.2424
   8672021.97745   7735138.81342  24430398.9224                   24430400.2384
 -33767813.85948 -26270396.50046  20498933.5234                   20498931.9414
 -56574634.93047 -43473436.39144  23479594.7584                   23479594.3954
 -13452894.19147  -8596987.72345  22310841.1174                   22310842.3404
 -53759151.29748 -41835805.51246  20930736.7894                   20930733.4654
 -11717015.27747  -5940879.49245  22214264.2034                   22214263.7114
 11  8 23  1  6 30.0000000  0  8G10G12G29G05G04G25G02G30
 -43185434.48047 -32750815.63345  21665883.0944                   21665881.9574
 -36444176.30548 -26857941.77046  20737609.0704                   20737607.2814
   8510658.090 5                  24399692.844
 -33886283.93048 -26362710.80546  20476389.2504                   20476387.9384
 -56573926.99646 -43472884.77043  23479729.5234                   23479728.6994
 -13596240.69147  -8708686.30145  22283563.2194                   22283564.1214
 -53814715.33648 -41879102.16846  20920163.3914                   20920159.9964
 -11853174.14847  -6046977.32845  22188353.8984                   22188353.2814
 11  8 23  1  7  0.0000000  0  8G10G12G29G05G04G25G02G30
 -43197434.27347 -32760166.12145  21663599.7034                   21663598.3714
 -36524180.90248 -26920283.01646  20722385.0084                   20722382.9574
                                  24368984.320
 -34004136.45348 -26454543.90246  20453962.8204                   20453961.2194
 -56573185.92646 -43472307.37143  23479870.5164                   23479870.0124
 -13739059.43447  -8819973.61345  22256385.8134                   22256386.8634
 -53870064.19948 -41922231.16046  20909630.9774                   20909627.5164
 -11988738.76647  -6152612.09445  22162557.4694                   22162556.1994
 11  8 23  1  7 30.0000000  0  8G10G12G29G05G04G25G02G30
 -43208900.16447 -32769100.57845  21661417.8914                   21661415.9774
 -36603540.13348 -26982121.37546  20707283.5634                   20707281.5514
                                  24338274.656
 -34121372.33248 -26545896.49246  20431653.4304                   20431652.1524
 -56572414.64546 -43471706.38343  23480017.1094                   23480016.5314
 -13881350.37947  -8930849.68045  22229308.6954                   22229309.3364
 -53925200.77048 -41965194.73046  20899138.4774                   20899134.8244
 -12123709.34847  -6257783.99245  22136873.8914                   22136872.2704
 11  8 23  1  8  0.0000000  0  8G10G12G29G05G04G25G02G30
 -43219836.35247 -32777622.27345  21659336.3364                   21659335.4844
 -36682256.21148 -27043458.58646  20692304.4924                   20692302.4344
   8026511.04715                  24307563.250
 -34237991.95347 -26636768.89546  20409461.4224                   20409459.9064
 -56571615.77746 -43471083.93443  23480168.8754                   23480169.5904
 -14023113.16847  -9041314.16845  22202331.9534                   22202333.4024
 -53980127.94548 -42007995.12546  20888686.7034                   20888682.8204
 -12258085.77047  -6362492.89545  22111302.0704                   22111301.2734
 11  8 23  1  8 30.0000000  0  8G10G12G29G05G04G25G02G30
 -43230244.80547 -32785732.75844  21657355.6804                   21657354.8984
 -36760328.39847 -27104294.06246  20677447.5084                   20677445.7894
   7865109.586 5                  24276846.383
 -34353993.92647 -26727160.00846  20387387.1884                   20387385.7584
 -56570789.19546 -43470439.90243  23480327.2894                   23480326.3484
 -14164345.10247  -9151365.00445  22175456.3054                   22175457.2624
 -54034846.20748 -42050632.73446  20878274.2274                   20878270.1604
 -12391865.71147  -6466737.00044  22085845.0164                   22085844.0474
 11  8 23  1  9  0.0000000  0  8G10G12G29G05G04G25G02G30
 -43240131.25447 -32793436.48044  21655474.4454                   21655472.9924
 -36837759.69548 -27164630.15246  20662713.0634                   20662711.2974
   7703696.043 5                  24246132.031
 -34469380.39548 -26817071.50446  20365430.1644                   20365427.7814
 -56569939.04746 -43469777.46143  23480487.5554                   23480487.5704
 -14305047.38747  -9261003.10245  22148681.8524                   22148682.5554
 -54089359.60248 -42093110.70346  20867900.9224                   20867896.6954
 -12525050.52747  -6570517.35245  22060500.9694                   22060499.6724
 11  8 23  1  9 30.0000000  0  8G10G12G29G05G04G25G02G30
 -43249499.50447 -32800736.41445  21653692.1564                   21653690.7934
 -36914551.45748 -27224467.89846  20648100.3204                   20648098.3364
   7542270.277 5                  24215414.344
 -34584151.68048 -26906503.63746  20343589.2034                   20343587.8014
 -56569067.38346 -43469098.28143  23480653.7664                   23480654.5274
 -14445219.02347  -9370227.71545  22122008.1804                   22122009.2034
 -54143670.17648 -42135430.63346  20857565.5634                   20857561.6334
 -12657639.73847  -6673833.60544  22035269.9064                   22035268.7194
 11  8 23  1 10  0.0000000  0  8G10G12G29G05G04G25G02G30
 -43258354.17647 -32807636.14145  21652006.5394                   21652005.8364
 -36990705.65248 -27283808.85246  20633608.5554                   20633606.5984
   7380831.043 5                  24184692.852
 -34698308.70748 -26995457.12546  20321865.8524                   20321864.2544
 -56568176.69946 -43468404.26643  23480822.6484                   23480823.4104
 -14584859.96947  -9479038.78945  22095434.8914                   22095435.8554
 -54197780.87148 -42177594.81646  20847268.6174                   20847264.8554
 -12789633.41447  -6776685.82445  22010152.4924                   22010150.6294
 11  8 23  1 10 30.0000000  0  8G10G12G29G05G04G25G02G30
 -43266698.73047 -32814138.37945  21650418.7504                   21650417.6724
 -37066223.53548 -27342653.97346  20619237.7814                   20619235.8094
   7219377.633 5                  24153968.906
 -34811851.48048 -27083931.97746  20300259.4454                   20300258.2274
 -56567268.80946 -43467696.85943  23480995.2504                   23480995.6214
 -14723969.13347  -9587435.50045  22068964.0234                   22068963.9414
 -54251693.59048 -42219604.73446  20837009.4144                   20837005.9224
 -12921030.83247  -6879073.41444  21985147.9224                   21985146.7034
 11  8 23  1 11  0.0000000  0  8G10G12G29G05G04G25G02G30
 -41699115.38347 -31592644.86345  21948720.2344                   21948719.2074
 -35565682.82448 -26173401.48446  20904781.6024                   20904779.2624
   8633336.77045   8758141.87953  24423037.0634                   24423036.6804
 -33349355.68048 -25944324.82846  20578563.2274                   20578561.5514
 -54990924.46546 -42239376.60543  23780964.9694                   23780964.9804
 -13287119.87147  -8467812.65645  22342387.0234                   22342387.7274
 -52729987.60948 -41033859.82046  21126579.9844                   21126576.6374
 -11476405.89847  -5753391.62545  22260051.3134                   22260049.8954
 11  8 23  1 11 30.0000000  0  8G10G12G29G05G04G25G02G30
 -41706445.35247 -31598356.52744  21947325.5864                   21947324.0314
 -35639926.27348 -26231253.54346  20890653.2344                   20890651.4184
   8471860.08645   8632315.94942  24392309.0474                   24392308.7584
 -33461665.65247 -26031839.05146  20557191.4144                   20557189.9344
 -54989982.46547 -42238642.62943  23781144.6024                   23781143.3014
 -13425157.53147  -8575374.41845  22316118.9774                   22316120.0984
 -52783505.67647 -41075562.20746  21116396.2194                   21116392.5824
 -11606603.76647  -5854844.47344  22235275.3444                   22235274.3714
 11  8 23  1 12  0.0000000  0  8G10G12G29G05G04G25G02G30
 -41713277.29347 -31603680.10945  21946025.3914                   21946024.4454
 -35713537.78548 -26288613.18046  20876645.3914                   20876643.3134
   8310367.90645   8506477.95742  24361578.9844                   24361578.3484
 -33573363.09448 -26118875.98846  20535935.6724                   20535934.3524
 -54989029.37147 -42237900.00843  23781326.8204                   23781324.7384
 -13562661.48047  -8682520.29345  22289952.6094                   22289954.0274
 -52836832.68747 -41117115.71946  21106248.0164                   21106244.3794
 -11736204.41847  -5955831.96544  22210613.1804                   22210611.8834
 11  8 23  1 12 30.0000000  0  8G10G12G29G05G04G25G02G30
 -41719607.31247 -31608612.59045  21944820.4844                   21944819.8284
 -35786511.09048 -26345475.51646  20862759.0474                   20862757.1374
   8148867.22345   8380633.42242  24330846.3364                   24330846.1174
 -33684440.87548 -26205430.06646  20514798.1254                   20514796.4574
 -54988059.75046 -42237144.50443  23781509.8594                   23781509.6294
 -13699623.43747  -8789243.83245  22263889.5234                   22263890.6994
 -52889963.25048 -41158516.16046  21096137.6334                   21096133.8244
 -11865199.89147  -6056347.88745  22186066.2194                   22186065.2304
 11  8 23  1 13  0.0000000  0  8G10G12G29G05G04G25G02G30
 -41725445.29347 -31613161.66445  21943709.5394                   21943708.4264
 -35858853.60248 -26401846.31246  20848992.8674                   20848991.1334
   7987351.89845   8254777.39842  24300110.4454                   24300110.8134
 -33794905.28948 -26291506.19946  20493777.9224                   20493776.3054
 -54987081.40247 -42236382.24243  23781696.4694                   23781695.9614
 -13836048.63747  -8895549.12945  22237929.2194                   22237929.8284
 -52942905.35947 -41199769.73446  21086063.2424                   21086059.6884
 -11993595.76247  -6156396.57444  22161633.0234                   22161632.0514
 11  8 23  1 13 30.0000000  0  8G10G12G29G05G04G25G02G30
 -41730792.77047 -31617328.53545  21942692.0394                   21942690.7304
 -35930564.67248 -26457725.08646  20835346.7034                   20835344.4694
   7825823.68446   8128911.25042  24269372.8204                   24269372.6724
 -33904754.34448 -26377102.84046  20472874.3674                   20472872.5594
 -54986093.57047 -42235612.55943  23781884.9844                   23781884.6094
 -13971933.75847  -9001433.57045  22212070.7344                   22212071.9064
 -52995658.57048 -41240876.12146  21076024.7734                   21076021.2464
 -12121388.92247  -6255975.62945  22137314.7584                   22137313.8634
 11  8 23  1 14  0.0000000  0  8G10G12G29G05G04G25G02G30
 -41735651.89147 -31621114.88344  21941767.7974                   21941766.3284
 -36001643.92248 -26513111.53546  20821820.7274                   20821818.7274
   7664283.79746   8003036.05942  24238632.3674                   24238631.9654
 -34013986.82848 -26462219.02746  20452088.0784                   20452086.0784
 -54985096.82846 -42234835.93443  23782074.6884                   23782074.0824
 -14107276.64147  -9106895.51645  22186315.7814                   22186317.0084
 -53048223.37548 -41281835.69146  21066021.9924                   21066018.4064
 -12248577.82847  -6355083.82045  22113111.6024                   22113110.8244
 11  8 23  1 14 30.0000000  0  8G10G12G29G05G04G25G02G30
 -41740027.95747 -31624524.79344  21940934.2814                   21940933.3094
 -36072094.19548 -26568007.85946  20808414.4534                   20808412.3874
   7502730.30145   7877150.19942  24207889.0394                   24207889.5004
 -34122604.66448 -26546856.27046  20431418.7034                   20431417.1054
 -54984094.59846 -42234055.03543  23782265.2194                   23782265.0704
 -14242078.18047  -9211935.62945  22160664.2894                   22160664.8524
 -53100604.12548 -41322651.85246  21056054.5234                   21056051.1024
 -12375163.44547  -6453721.90245  22089022.7734                   22089022.0984
 11  8 23  1 15  0.0000000  0  8G10G12G29G05G04G25G02G30
 -41743923.68047 -31627560.41844  21940193.1254                   21940192.5124
 -36141916.09848 -26622414.54346  20795127.7814                   20795125.9494
   7341164.47745   7751254.79342  24177144.2194                   24177145.1334
 -34230607.41448 -26631014.21946  20410866.2344                   20410864.4614
 -54983087.30546 -42233270.18443  23782457.1484                   23782457.3634
 -14376336.23047  -9316552.24245  22135115.3054                   22135116.3054
 -53152801.01648 -41363324.73046  21046121.7584                   21046118.1804
 -12501144.10547  -6551888.61745  22065049.7424                   22065048.8014
 11  8 23  1 15 30.0000000  0  8G10G12G29G05G04G25G02G30
 -41747340.87547 -31630223.17644  21939543.3594                   21939542.0084
 -36211108.58248 -26676330.78146  20781961.0474                   20781958.8204
   7179587.85245   7625350.92242  24146397.5474                   24146397.9574
 -34337993.28548 -26714691.48846  20390431.4224                   20390429.8444
 -54982074.42646 -42232481.03143  23782649.3364                   23782649.6524
 -14510047.85547  -9420743.07845  22109671.3204                   22109672.0824
 -53204814.10248 -41403854.39846  21036223.9844                   21036220.3954
 -12626517.30947  -6649581.96145  22041191.5084                   22041191.1374
 11  8 23  1 16  0.0000000  0  8G10G12G29G05G04G25G02G30
 -41750284.68047 -31632517.05945  21938982.8134                   21938981.4924
 -36279674.67648 -26729758.89846  20768912.7504                   20768910.8164
   7017999.21145   7499437.69542  24115648.1024                   24115649.0474
 -34444764.02748 -26797889.43746  20370113.8834                   20370111.8794
 -54981059.10246 -42231689.89843  23782842.5394                   23782842.7504
 -14643213.69947  -9524508.62545  22084330.0004                   22084331.0704
 -53256646.42648 -41444243.19546  21026360.2814                   21026356.6454
 -12751283.99647  -6746802.70345  22017449.5314                   22017448.7624
 11  8 23  1 16 30.0000000  0  8G10G12G29G05G04G25G02G30
 -41752754.01247 -31634441.23044  21938512.8054                   21938511.6804
 -36347611.14548 -26782696.40246  20755985.5164                   20755983.4574
   6856402.69546   7373518.33243  24084897.9384                   24084898.1334
 -34550915.32448 -26880604.70346  20349913.6804                   20349911.8874
 -54980038.32446 -42230894.52343  23783036.3674                   23783037.2584
 -14775828.24248  -9627844.60945  22059094.2894                   22059095.1524
 -53308295.53547 -41484489.25046  21016532.3134                   21016528.1024
 -12875438.94547  -6843546.78945  21993823.3984                   21993822.3634
 11  8 23  1 17  0.0000000  0  8G10G12G29G05G04G25G02G30
 -41754757.35247 -31636002.28945  21938131.7424                   21938130.8134
 -36414924.37548 -26835148.27046  20743176.2274                   20743173.9144
   6694793.38346   7247588.99243  24054144.5864                   24054144.3754
 -34656452.63748 -26962841.53146  20329830.6484                   20329828.7584
 -54979018.76246 -42230100.09843  23783230.0394                   23783231.6094
 -14907895.63347  -9730754.23845  22033963.0394                   22033963.8674
 -53359767.94148 -41524597.60546  21006737.1724                   21006733.3364
 -12998986.80547  -6939817.82045  21970313.2194                   21970312.3094
 11  8 23  1 17 30.0000000  0  8G10G12G29G05G04G25G02G30
 -41756297.08647 -31637202.09844  21937838.6414                   21937837.8554
 -36481614.12548 -26887114.30946  20730485.5004                   20730482.9614
   6533172.66445   7121650.74643  24023388.1804                   24023388.5514
 -34761374.84048 -27044599.06646  20309864.6884                   20309862.5434
 -54978000.46946 -42229306.67643  23783424.5004                   23783425.0594
 -15039413.74247  -9833235.85245  22008935.6804                   22008936.9774
 -53411064.11348 -41564568.64846  20996975.8204                   20996972.0864
 -13121925.79347  -7035614.39145  21946918.3984                   21946917.6254
 11  8 23  1 18  0.0000000  0  8G10G12G29G05G04G25G02G30
 -41757377.37947 -31638043.89544  21937633.7974                   21937631.8134
 -36547682.37548 -26938596.05546  20717912.7274                   20717910.9774
   6371540.22346   6995703.37543  23992631.5004                   23992631.1254
 -34865682.86748 -27125878.01246  20290015.3284                   20290013.6804
 -54976985.59846 -42228515.93043  23783617.4694                   23783618.5554
 -15170381.97348  -9935289.00045  21984013.6484                   21984014.0354
 -53462186.44548 -41604404.21946  20987247.2664                   20987243.6334
 -13244255.78547  -7130936.41845  21923639.8754                   21923639.3134
 11  8 23  1 18 30.0000000  0  8G10G12G29G05G04G25G02G30
 -41757995.45347 -31638525.52044  21937516.2194                   21937514.6484
 -36613124.57848 -26989589.96946  20705459.8674                   20705457.8244
   6209902.16446   6869751.70743  23961871.6954                   23961872.1054
 -34969370.59848 -27206673.61346  20270284.1414                   20270282.5434
 -54975968.71946 -42227723.54343  23783811.0164                   23783811.9104
 -15300793.15648 -10036908.09845  21959197.1644                   21959198.2114
 -53513130.28947 -41644100.72346  20977552.9774                   20977549.6024
 -13365969.85947  -7225778.51645  21900478.5084                   21900477.2974
 11  8 23  1 19  0.0000000  0  8G10G12G29G05G04G25G02G30
 -41758153.14147 -31638648.39544  21937487.1254                   21937484.6884
 -36677939.99648 -27040095.48846  20693125.4924                   20693123.8714
   6048260.40646   6743797.15243  23931113.8674                   23931113.2774
 -35072436.57448 -27286984.73846  20250671.5164                   20250669.4694
 -54974949.95746 -42226929.78143  23784005.0944                   23784005.3364
 -15430644.59848 -10138091.01645  21934487.3754                   21934488.1954
 -53563895.57048 -41683658.09445  20967892.9304                   20967889.8094
 -13487065.79347  -7320138.94945  21877435.4454                   21877433.7544
 11  8 23  1 19 30.0000000  0  8G10G12G29G05G04G25G02G30
 -41757865.60247 -31638424.33244  21937540.0944                   21937538.9844
 -36742141.55548 -27090122.67246  20680908.8364                   20680906.5434
   5886603.36746   6617830.71543  23900350.7894                   23900351.1564
 -35174893.37548 -27366821.17246  20231174.8834                   20231172.6214
 -54973942.40246 -42226144.69143  23784197.1954                   23784196.6524
 -15559947.15648 -10238846.24245  21909881.5784                   21909882.5514
 -53614495.57048 -41723086.67646  20958263.8834                   20958260.1884
 -13607554.80947  -7414026.48445  21854506.5314                   21854505.4304
 11  8 23  1 20  0.0000000  0  8G10G12G29G05G04G25G02G30
 -41757129.07447 -31637850.41044  21937680.5164                   21937679.6214
 -36805723.02748 -27139666.68046  20668809.5704                   20668807.3324
   5724938.68846   6491858.30143  23869587.1254                   23869586.5744
 -35276733.39547 -27446177.00046  20211795.0394                   20211793.2814
 -54972939.73046 -42225363.42643  23784388.5084                   23784388.5084
 -15688692.19147 -10339167.04345  21885382.2974                   21885382.8594
 -53664924.16048 -41762381.69146  20948667.7274                   20948664.2114
 -13727428.72747  -7507434.69945  21831695.1644                   21831694.5204
 11  8 23  1 20 30.0000000  0  8G10G12G29G05G04G25G02G30
 -41755944.78947 -31636927.59444  21937905.6254                   21937904.6844
 -36868683.96148 -27188727.14146  20656828.6094                   20656826.5824
   5563268.96946   6365881.94143  23838822.0004                   23838821.7464
 -35377954.68748 -27525050.70346  20192533.1724                   20192531.2774
 -54971940.63346 -42224584.94543  23784578.2504                   23784577.7464
 -15816876.50048 -10439050.91045  21860989.5474                   21860990.6724
 -53715180.50448 -41801542.48846  20939103.9774                   20939100.3484
 -13846684.77347  -7600361.46545  21809001.4534                   21809000.7774
 11  8 23  1 21  0.0000000  0  8G10G12G29G05G04G25G02G30
 -40178896.18447 -30408058.54344  22238008.1174                   22238006.8674
 -35355603.36348 -26009703.30946  20944758.0554                   20944755.8524
   6977019.81346   7467506.05943  24107848.9614                   24107849.9224
 -33903134.18448 -26375839.88746  20473182.1174                   20473180.3244
 -53395526.95346 -40996210.66843  24084560.2034                   24084558.6764
 -14369074.93748  -9310893.84845  22136497.3524                   22136497.7504
 -52189844.88748 -40612969.28146  21229366.3054                   21229362.0554
 -12389898.40247  -6465203.23045  22086218.8984                   22086217.4344
 11  8 23  1 21 30.0000000  0  8G10G12G29G05G04G25G02G30
 -40176830.47347 -30406448.87944  22238401.8054                   22238400.7664
 -35417330.61748 -26057802.45746  20933011.8444                   20933009.8524
   6815336.94546   7341519.49643  24077082.0004                   24077083.2384
 -34003122.95748 -26453753.18046  20454155.0394                   20454153.0124
 -53394543.14546 -40995444.08643  24084747.6884                   24084746.0434
 -14496138.88748  -9409904.72345  22112317.7734                   22112318.1254
 -52239765.94148 -40651868.80145  21219866.3594                   21219862.1954
 -12507920.98047  -6557168.85945  22063759.3524                   22063758.6644
 11  8 23  1 22  0.0000000  0  8G10G12G29G05G04G25G02G30
 -40174332.67647 -30404502.53144  22238877.2584                   22238875.4184
 -35478446.04748 -26105424.87546  20921381.7034                   20921380.3054
   6653645.05546   7215525.85543  24046313.5944                   24046313.2464
 -34102499.27748 -26531189.24246  20435244.5944                   20435242.4924
 -53393572.08246 -40994687.36743  24084931.3054                   24084930.6604
 -14622644.48448  -9508480.50845  22088244.5474                   22088245.3554
 -52289524.80948 -40690641.93446  21210397.3914                   21210393.7234
 -12625329.34847  -6648655.89144  22041417.3834                   22041416.5084
 11  8 23  1 22 30.0000000  0  8G10G12G29G05G04G25G02G30
 -40171402.75847 -30402219.48044  22239434.2504                   22239433.1214
 -35538947.89548 -26152569.17646  20909868.7114                   20909867.1174
   6491947.34846   7089527.72743  24015542.1024                   24015542.8404
 -34201259.98848 -26608145.60546  20416450.6094                   20416448.7704
 -53392611.59446 -40993938.86343  24085114.5164                   24085114.0354
 -14748587.28148  -9606617.74645  22064278.1254                   22064278.7194
 -52339119.26248 -40729286.95746  21200959.9454                   21200956.0664
 -12742119.39547  -6739661.11745  22019193.0164                   22019192.1024
 11  8 23  1 23  0.0000000  0  8G10G12G29G05G04G25G02G30
 -40168044.93047 -30399602.97345  22240073.4304                   22240072.0514
 -35598838.59048 -26199237.25446  20898471.7584                   20898469.6844
   6330243.26246   6963524.64543  23984771.7814                   23984771.8954
 -34299406.65248 -26684623.48846  20397773.5474                   20397772.2894
 -53391663.66046 -40993200.19943  24085293.7424                   24085294.7504
 -14873967.32448  -9704316.48845  22040419.2894                   22040419.9734
 -52388551.86348 -40767805.84446  21191553.2344                   21191549.5554
 -12858291.69547  -6830184.96945  21997086.5314                   21997085.2304
 11  8 23  1 23 30.0000000  0  8G10G12G29G05G04G25G02G30
 -40164262.76647 -30396655.81244  22240792.6254                   22240791.4614
 -35658119.14548 -26245429.89546  20887191.1954                   20887188.9144
   6168533.14546   6837516.84843  23953998.7734                   23953999.2424
 -34396939.41448 -26760623.00846  20379213.7504                   20379211.9104
 -53390729.53146 -40992472.18443  24085472.5634                   24085472.5634
 -14998783.73047  -9801576.01645  22016667.6724                   22016668.5164
 -52437824.10248 -40806199.78145  21182177.1094                   21182173.1954
 -12973845.72347  -6920227.06645  21975096.7584                   21975096.0744
 11  8 23  1 24  0.0000000  0  8G10G12G29G05G04G25G02G30
 -40160061.68047 -30393382.22744  22241592.1954                   22241590.9384
 -35716793.55148 -26291150.23046  20876026.1414                   20876023.6174
   6006815.52746   6711503.19943  23923225.6724                   23923225.7584
 -34493860.62148 -26836145.99646  20360770.4224                   20360768.3014
 -53389812.28546 -40991757.35943  24085646.2734                   24085646.8324
 -15123037.56247  -9898397.18045  21993023.0084                   21993023.4024
 -52486939.33248 -40844471.36346  21172831.0864                   21172826.7034
 -13088783.17647  -7009788.70345  21953225.5004                   21953224.5704
 11  8 23  1 24 30.0000000  0  8G10G12G29G05G04G25G02G30
 -40155446.30147 -30389785.81644  22242470.6804                   22242468.9344
 -35774864.29348 -26336400.15646  20864975.3054                   20864973.3524
   5845089.52346   6585483.03543  23892450.2894                   23892450.4534
 -34590171.87148 -26911193.69546  20342442.7504                   20342440.9804
 -53388914.09046 -40991057.40643  24085816.0704                   24085818.0664
 -15246728.99647  -9994780.09845  21969484.9614                   21969485.6484
 -52535899.84048 -40882622.39146  21163514.0784                   21163509.8754
 -13203104.49647  -7098870.24245  21931470.5004                   21931469.8164
 11  8 23  1 25  0.0000000  0  8G10G12G29G05G04G25G02G30
 -40150418.47347 -30385868.03944  22243428.0314                   22243426.3874
 -35832330.96148 -26381179.39146  20854039.7424                   20854037.8404
   5683357.42646   6459458.10543  23861673.5784                   23861673.3594
 -34685872.44148 -26985765.53946  20324231.8754                   20324229.8244
 -53388034.42746 -40990371.87143  24085984.9774                   24085985.7274
 -15369855.48047 -10090722.80545  21946055.0234                   21946055.6994
 -52584705.55948 -40920652.78945  21154226.3444                   21154222.6644
 -13316807.61347  -7187470.08245  21909834.0084                   21909832.6644
 11  8 23  1 25 30.0000000  0  8G10G12G29G05G04G25G02G30
 -40144979.00447 -30381629.48044  22244462.6884                   22244461.5594
 -35889192.38348 -26425487.00446  20843219.7114                   20843217.0124
   5521622.39146   6333430.86743  23830896.7034                   23830895.7974
 -34780959.76648 -27059859.53146  20306137.2504                   20306135.3674
 -53387171.40245 -40989699.33243  24086148.5784                   24086149.6174
 -15492413.47347 -10186222.52045  21922732.8054                   21922733.9884
 -52633355.50448 -40958561.80545  21144968.5234                   21144964.6454
 -13429889.38347  -7275585.75045  21888314.5554                   21888313.6054
 11  8 23  1 26  0.0000000  0  8G10G12G29G05G04G25G02G30
 -40139127.25847 -30377069.68044  22245575.9224                   22245575.1214
 -35945445.99248 -26469321.00046  20832515.0704                   20832512.9384
   5359888.71146   6207404.68443  23800119.5234                   23800118.8954
 -34875429.95348 -27133472.63346  20288160.1804                   20288158.0314
 -53386322.46546 -40989037.80943  24086311.1024                   24086311.2464
 -15614397.99647 -10281275.38345  21899519.9924                   21899520.9804
 -52681846.35948 -40996346.86345  21135741.2894                   21135737.1524
 -13542345.48447  -7363213.89845  21866915.3984                   21866914.1724
 11  8 23  1 26 30.0000000  0  8G10G12G29G05G04G25G02G30
 -40132870.99247 -30372194.67644  22246766.0394                   22246765.6134
 -36001097.84848 -26512686.09046  20821924.7974                   20821922.3204
   5198152.52046   6081376.56343  23769342.4774                   23769341.1414
 -34969288.17648 -27206608.89146  20270299.3674                   20270297.2774
 -53385492.88746 -40988391.35243  24086468.4454                   24086468.9024
 -15735812.70348 -10375884.23045  21876415.7194                   21876416.6414
 -52730184.26648 -41034012.73046  21126542.5864                   21126538.6604
 -13654179.95747  -7450357.62545  21845633.8834                   21845633.0124
 11  8 23  1 27  0.0000000  0  8G10G12G29G05G04G25G02G30
 -40126211.02746 -30367005.08244  22248033.6094                   22248031.8554
 -36056146.72748 -26555581.33246  20811449.0634                   20811447.1254
   5036416.73046   5955348.75843  23738564.8524                   23738563.7114
 -35062532.32848 -27279266.63746  20252555.8444                   20252554.0514
 -53384681.18446 -40987758.85943  24086623.0314                   24086623.7274
 -15856654.15247 -10470046.39145  21853420.2814                   21853420.8554
 -52778367.56647 -41071558.14146  21117373.2584                   21117369.8014
 -13765389.84847  -7537014.69145  21824471.5004                   21824470.0784
 11  8 23  1 27 30.0000000  0  8G10G12G29G05G04G25G02G30
 -40119149.45747 -30361502.53144  22249378.2974                   22249375.8984
 -36110592.85248 -26598006.90246  20801088.6254                   20801086.2624
   4874683.72346   5829323.12143  23707787.9224                   23707787.5004
 -35155161.77048 -27351445.40246  20234929.2974                   20234927.3134
 -53383886.94946 -40987139.95743  24086774.0004                   24086774.2274
 -15976920.05948 -10563760.07445  21830534.0004                   21830534.8244
 -52826396.54348 -41108983.30546  21108233.7194                   21108230.5004
 -13875973.34047  -7623183.65645  21803428.0084                   21803427.0314
 11  8 23  1 28  0.0000000  0  8G10G12G29G05G04G25G02G30
 -40111692.33246 -30355691.77744  22250796.8984                   22250795.4614
 -36164440.50848 -26639966.13346  20790841.5474                   20790839.8244
   4712951.07446   5703297.77043  23677011.6254                   23677010.2424
 -35247179.39848 -27423147.42246  20217418.7734                   20217416.2934
 -53383113.50446 -40986537.31243  24086921.3754                   24086921.4064
 -16096612.19148 -10657026.66045  21807757.5234                   21807758.2424
 -52874275.06247 -41146291.22346  21099122.9774                   21099119.5164
 -13985932.64147  -7708866.23445  21782503.4924                   21782502.5234
 11  8 23  1 28 30.0000000  0  8G10G12G29G05G04G25G02G30
 -40103845.94547 -30349577.70744  22252289.6954                   22252287.8874
 -36217693.91448 -26681462.31246  20780708.0784                   20780705.8634
   4551216.60546   5577270.96943  23646233.8984                   23646233.3014
 -35338588.62548 -27494375.37146  20200023.7974                   20200022.0594
 -53382364.86346 -40985953.98843  24087062.8834                   24087063.9654
 -16215732.59048 -10749847.75446  21785089.4534                   21785090.8324
 -52922007.24647 -41183485.11346  21090039.6954                   21090036.3094
 -14095270.33247  -7794064.43045  21761697.1804                   21761696.3444
 11  8 23  1 29  0.0000000  0  8G10G12G29G05G04G25G02G30
 -40095612.23847 -30343161.81644  22253856.4694                   22253854.9964
 -36270353.62548 -26722495.85946  20770687.2424                   20770685.1214
   4389481.98446   5451244.03143  23615456.9144                   23615455.9614
 -35429388.79748 -27565128.72746  20182745.6254                   20182743.7504
 -53381640.69546 -40985389.67243  24087201.4694                   24087201.6024
 -16334279.25048 -10842221.76646  21762530.5704                   21762531.9494
 -52969593.00448 -41220564.93046  21080984.4924                   21080981.1214
 -14203984.91847  -7878777.09045  21741010.0084                   21741008.4064
 11  8 23  1 29 30.0000000  0  8G10G12G29G05G04G25G02G30
 -40086995.05546 -30336447.12944  22255496.3204                   22255495.0434
 -36322421.24648 -26763068.05546  20760778.6254                   20760776.9304
   4227747.73446   5325217.38343  23584679.3284                   23584678.7734
 -35519580.77048 -27635408.16046  20165582.0474                   20165580.1054
 -53380942.12546 -40984845.35243  24087334.3444                   24087333.6604
 -16452251.48847 -10934148.18046  21740081.7504                   21740082.6484
 -53017033.48048 -41257531.52746  21071957.0944                   21071953.1024
 -14312076.20347  -7963004.06645  21720440.8834                   21720439.4734
 11  8 23  1 30  0.0000000  0  8G10G12G29G05G04G25G02G30
 -40077994.74647 -30329433.89144  22257208.6644                   22257207.0394
 -36373895.43747 -26803177.83246  20750983.9144                   20750981.8444
   4066017.37146   5199193.78543  23553903.1254                   23553902.7194
 -35609162.40248 -27705212.00446  20148535.6414                   20148533.4614
 -53380267.18746 -40984319.39143  24087462.9304                   24087461.8914
 -16569645.67648 -11025624.17646  21717742.3754                   21717742.8984
 -53064327.32048 -41294383.86746  21062957.1644                   21062953.5634
 -14419541.04747  -8046742.91445  21699990.1094                   21699989.0634
 11  8 23  1 30 30.0000000  0  8G10G12G29G05G04G25G02G30
 -40068615.99646 -30322125.75044  22258993.6954                   22258991.9384
 -36424779.37147 -26842827.67246  20741300.9224                   20741298.9454
   3904290.16446   5073172.66443  23523126.8524                   23523126.9494
 -35698135.51648 -27774541.66846  20131604.2424                   20131602.5124
 -53379618.24646 -40983813.71143  24087586.3284                   24087585.6294
 -16686462.39848 -11116650.20346  21695512.5004                   21695513.8674
 -53111476.80947 -41331123.72346  21053985.1174                   21053981.2504
 -14526380.60947  -8129994.52745  21679659.3134                   21679658.3674
 11  8 23  1 31  0.0000000  0  8G10G12G29G05G04G25G02G30
 -38483444.27747 -29086927.00444  22560641.9384                   22560640.9264
 -34899654.52047 -25654418.70346  21031522.6254                   21031520.2704
   5317990.45746   6174757.34444  23792146.3524                   23792145.4344
 -34211079.31248 -26615796.55546  20414581.7894                   20414579.8554
 -51803577.55946 -39755730.00443  24387496.8054                   24387496.2774
 -15227278.71548  -9979623.95345  21973186.2584                   21973187.4534
 -51583063.37948 -40140152.21546  21344831.9064                   21344828.3834
 -13057172.65647  -6985157.14845  21959240.3134                   21959239.6844
 11  8 23  1 31 30.0000000  0  8G10G12G29G05G04G25G02G30
 -38473322.94147 -29079040.26644  22562568.0554                   22562567.0314
 -34949366.97347 -25693155.69946  21022062.3674                   21022061.0084
   5156267.56647   6048739.53544  23761370.9924                   23761370.2114
 -34298841.23448 -26684182.43746  20397881.2344                   20397879.2544
 -51802986.68446 -39755269.62543  24387608.9144                   24387610.0274
 -15342942.31647 -10069751.43746  21951176.1094                   21951177.1644
 -51629932.25047 -40176673.41046  21335913.1884                   21335909.7704
 -13162764.81647  -7067436.74645  21939147.1174                   21939145.8754
 11  8 23  1 32  0.0000000  0  8G10G12G29G05G04G25G02G30
 -38462841.59047 -29070872.96944  22564562.3284                   22564561.0664
 -34998502.13748 -25731442.85546  21012712.2664                   21012710.1134
   4994541.92646   5922719.55144  23730595.3134                   23730594.9964
 -34386004.61348 -26752101.92246  20381294.6564                   20381292.5944
 -51802432.25446 -39754837.50843  24387714.3594                   24387715.8834
 -15458034.31647 -10159433.51245  21929274.9694                   21929275.8404
 -51676668.59047 -40213091.34046  21327019.6644                   21327016.1644
 -13267739.05547  -7149234.85545  21919171.1884                   21919170.3324
 11  8 23  1 32 30.0000000  0  8G10G12G29G05G04G25G02G30
 -38452005.14547 -29062428.99244  22566625.0234                   22566622.9224
 -35047063.32847 -25769282.75846  21003471.9224                   21003469.5124
   4832812.44946   5796696.59044  23699819.0784                   23699818.7704
 -34472571.59448 -26819556.67646  20364821.4064                   20364819.2664
 -51801916.60946 -39754435.69143  24387813.1094                   24387813.5864
 -15572555.56647 -10248670.84845  21907481.9304                   21907483.4614
 -51723275.13747 -40249408.12545  21318151.4144                   21318147.3754
 -13372096.79747  -7230552.56645  21899312.5394                   21899311.7034
 11  8 23  1 33  0.0000000  0  8G10G12G29G05G04G25G02G30
 -38440811.08647 -29053706.32044  22568754.7034                   22568752.8554
 -35095046.43747 -25806672.21946  20994340.8444                   20994338.8404
   4671085.49246   5670675.59044  23669043.9924                   23669043.2544
 -34558537.34048 -26886542.95346  20348462.7424                   20348460.9064
 -51801434.96146 -39754060.29343  24387905.2274                   24387905.0044
 -15686499.64148 -10337458.44145  21885799.4144                   21885800.5594
 -51769746.99647 -40285619.96545  21309307.7274                   21309303.7464
 -13475832.12547  -7311385.28945  21879572.6564                   21879571.6174
 11  8 23  1 33 30.0000000  0  9G10G12G26G29G05G04G25G02G30
 -38429264.91847 -29044709.29344  22570951.0784                   22570949.7114
 -35142455.64847 -25843614.46946  20985319.0634                   20985316.7544
  15270823.98414                  24795067.055
   4509360.02747   5544655.73444  23638268.0474                   23638267.9774
 -34643904.94948 -26953063.12946  20332217.7424                   20332215.8164
 -51800990.11746 -39753713.71943  24387988.5234                   24387989.7274
 -15799868.02047 -10425797.43445  21864225.8914                   21864227.0594
 -51816087.41847 -40321729.36745  21300489.4304                   21300485.8634
 -13578946.95347  -7391734.49645  21859949.9844                   21859949.2704
 11  8 23  1 34  0.0000000  0  9G10G12G26G29G05G04G25G02G30
 -38417368.62146 -29035439.47744  22573214.2584                   22573214.7664
 -35189291.25048 -25880109.75046  20976406.7814                   20976404.3524
  15100022.34015                  24762562.563
   4347638.20747   5418638.73044  23607493.9224                   23607493.0234
 -34728673.44148 -27019116.47746  20316086.7344                   20316085.0784
 -51800581.53546 -39753395.23843  24388066.9224                   24388068.0984
 -15912658.61347 -10513686.20745  21842762.7814                   21842763.7274
 -51862296.28147 -40357736.26645  21291696.1884                   21291692.3914
 -13681439.86747  -7471599.09445  21840446.2344                   21840444.8984
 11  8 23  1 34 30.0000000  0  9G10G12G26G29G05G04G25G02G30
 -38405129.54746 -29025902.56644  22575545.1024                   22575543.5204
 -35235558.62147 -25916162.27046  20967602.1954                   20967599.9654
  14929118.117 5                  24730041.961
   4185916.61747   5292621.89844  23576719.3594                   23576718.9304
 -34812847.47348 -27084706.59446  20300068.8204                   20300066.8754
 -51800213.97346 -39753108.82443  24388136.2894                   24388137.7274
 -16024874.75047 -10601127.34846  21821408.6174                   21821410.0004
 -51908378.75047 -40393644.66445  21282926.7664                   21282923.1374
 -13783314.71547  -7550982.08645  21821060.0234                   21821058.9494
 11  8 23  1 35  0.0000000  0  9G10G12G26G29G05G04G25G02G30
 -38392547.80546 -29016098.60544  22577938.5704                   22577938.2194
 -35281256.87948 -25951771.31246  20958905.8134                   20958903.7544
                                  24697499.672
   4024199.21147   5166608.36344  23545946.0554                   23545944.8444
 -34896424.75848 -27149831.73046  20284164.7034                   20284162.5434
 -51799884.97346 -39752852.41443  24388199.2894                   24388200.1804
 -16136512.76648 -10688117.99645  21800164.7344                   21800165.8874
 -51954332.78548 -40429452.99646  21274182.1174                   21274178.6334
 -13884568.28947  -7629880.98045  21801792.1334                   21801790.5984
 11  8 23  1 35 30.0000000  0  9G10G12G26G29G05G04G25G02G30
 -38379632.67647 -29006034.89544  22580397.0554                   22580394.9454
 -35326393.53148 -25986942.75046  20950316.9064                   20950314.8714
  14587015.18815                  24664939.789
   3862481.04747   5040594.21944  23515171.7974                   23515170.6134
 -34979411.97748 -27214497.07446  20268373.0394                   20268370.9574
 -51799601.08646 -39752631.17243  24388255.1484                   24388253.9304
 -16247577.80148 -10774662.18445  21779030.0084                   21779030.3364
 -52000165.10247 -40465166.47345  21265460.7344                   21265457.0984
 -13985206.36347  -7708300.25445  21782641.2894                   21782640.1054
 11  8 23  1 36  0.0000000  0  9G10G12G26G29G05G04G25G02G30
 -38366377.82446 -28995706.43444  22582919.2504                   22582918.0784
 -35370960.68048 -26021670.40646  20941836.2424                   20941834.1024
  14415825.28915                  24632363.219
   3700772.58247   4914587.64844  23484399.5944                   23484398.4804
 -35061800.71548 -27278696.06647  20252694.7894                   20252692.9184
 -51799353.69946 -39752438.39142  24388298.7974                   24388301.2814
 -16358059.65248 -10860751.92645  21758005.7734                   21758006.2384
 -52045867.00447 -40500778.32045  21256763.6414                   21256759.9024
 -14085219.30147  -7786232.42645  21763609.9304                   21763609.0514
 11  8 23  1 36 30.0000000  0  9G10G12G26G29G05G04G25G02G30
 -38352788.35946 -28985117.23844  22585505.2114                   22585503.4344
 -35414962.09847 -26055957.23846  20933462.6174                   20933460.9734
  14244547.40615                  24599769.344
   3539072.77347   4788587.84844  23453629.3204                   23453628.0664
 -35143593.15248 -27342430.41047  20237130.4694                   20237128.1804
 -51799145.17646 -39752275.90242  24388339.9844                   24388340.4494
 -16467959.69548 -10946388.32045  21737092.1174                   21737093.0554
 -52091441.71547 -40536291.07045  21248090.9454                   21248087.1174
 -14184609.03947  -7863678.96545  21744696.5004                   21744695.7664
 11  8 23  1 37  0.0000000  0  9G10G12G26G29G05G04G25G02G30
 -38338867.79747 -28974270.03944  22588154.5864                   22588152.2814
 -35458399.60948 -26089804.66446  20925197.0164                   20925195.0864
  14073184.77015                  24567160.930
   3377382.48047   4662595.47744  23422860.4924                   23422859.7504
 -35224790.49248 -27405701.03946  20221678.9144                   20221676.2894
 -51798976.20746 -39752144.20743  24388372.4614                   24388372.6844
 -16577277.40248 -11031570.93445  21716290.3284                   21716290.5514
 -52136890.21947 -40571705.46546  21239442.4844                   21239438.8794
 -14283375.56247  -7940639.89145  21725901.6484                   21725901.1684
 11  8 23  1 37 30.0000000  0  9G10G12G26G29G05G04G25G02G30
 -38324616.25046 -28963164.93744  22590866.0234                   22590865.0594
 -35501271.47348 -26123211.32046  20917038.6804                   20917036.7424
  13901742.51614                  24534536.641
   3215705.88747   4536613.78944  23392094.0944                   23392093.4414
 -35305390.14847 -27468505.94946  20206341.0164                   20206338.8914
 -51798844.12546 -39752041.32443  24388397.4224                   24388397.8954
 -16686008.78548 -11116296.68046  21695599.3364                   21695600.2664
 -52182209.87547 -40607019.46546  21230818.3364                   21230814.9184
 -14381515.44947  -8017112.52745  21707226.5474                   21707225.3834
 11  8 23  1 38  0.0000000  0  9G10G12G26G29G05G04G25G02G30
 -38310037.35946 -28951804.77044  22593640.7194                   22593639.9804
 -35543581.00448 -26156179.79346  20908987.3284                   20908985.4614
  13730222.60514                  24501899.164
   3054043.03547   4410642.82044  23361330.5634                   23361330.0084
 -35385393.87148 -27530846.49246  20191116.7974                   20191114.7894
 -51798750.45746 -39751968.32043  24388414.9304                   24388415.8834
 -16794154.16447 -11200565.80146  21675019.6724                   21675020.4344
 -52227402.66447 -40642234.61745  21222218.2584                   21222214.5124
 -14479029.62147  -8093097.59845  21688670.0864                   21688669.3594
 11  8 23  1 38 30.0000000  0  8G10G12G29G05G04G25G02G30
 -38295138.42646 -28940195.22344  22596473.9144                   22596474.3364
 -35585333.51248 -26188714.23846  20901042.3674                   20901040.6844
   2892391.18446   4284680.43044  23330569.0634                   23330568.8754
 -35464805.87548 -27592725.96146  20176005.2814                   20176003.3054
 -51798699.53546 -39751928.66843  24388424.0164                   24388425.2584
 -16901716.65647 -11284380.71545  21654551.2814                   21654552.0434
 -52272473.04347 -40677354.37545  21213641.8444                   21213638.3014
 -14575921.75847  -8168597.95345  21670232.2344                   21670231.3364
 11  8 23  1 39  0.0000000  0  8G10G12G29G05G04G25G02G30
 -38279920.35546 -28928337.00044  22599371.3364                   22599370.7624
 -35626528.93048 -26220814.56646  20893202.8364                   20893200.8204
   2730753.47747   4158729.05544  23299811.1414                   23299809.9694
 -35543625.55948 -27654143.87946  20161006.2034                   20161004.5434
 -51798689.47346 -39751920.82043  24388427.8054                   24388426.3754
 -17008693.73048 -11367739.45346  21634194.0704                   21634194.8054
 -52317420.13347 -40712378.07045  21205088.3984                   21205084.8404
 -14672189.90247  -8243612.09445  21651912.9384                   21651911.9614
 11  8 23  1 39 30.0000000  0  8G10G12G29G05G04G25G02G30
 -38264388.47746 -28916234.26244  22602326.7734                   22602325.9304
 -35667170.64547 -26252483.44946  20885469.2114                   20885467.0594
   2569129.09846   4032788.07044  23269054.6724                   23269053.7704
 -35621855.12148 -27715101.96546  20146119.2504                   20146117.7424
 -51798723.24746 -39751947.15743  24388420.8594                   24388420.2664
 -17115086.46947 -11450642.87946  21613948.2274                   21613949.1294
 -52362246.28547 -40747307.52345  21196558.3364                   21196554.8324
 -14767835.74647  -8318141.31245  21633712.3674                   21633710.8634
 11  8 23  1 40  0.0000000  0  8G10G12G29G05G04G25G02G30
 -38248540.16846 -28903884.89844  22605343.5084                   22605340.9774
 -35707254.70748 -26283717.78946  20877841.6884                   20877839.3244
   2407524.89146   3906862.79744  23238302.5784                   23238301.5164
 -35699489.80947 -27775596.51247  20131346.2894                   20131344.3834
 -51798794.99646 -39752003.12943  24388406.9144                   24388406.8524
 -17220888.67647 -11533086.15646  21593814.8204                   21593815.7424
 -52406946.60947 -40782138.93745  21188051.9304                   21188048.5084
 -14862853.55147  -8392181.16045  21615630.9534                   21615629.6804
 11  8 23  1 40 30.0000000  0  8G10G12G29G05G04G25G02G30
 -38232373.98046 -28891287.85244  22608419.8834                   22608417.4064
 -35746778.45748 -26314515.52746  20870320.2814                   20870318.5784
   2245946.46146   3780957.59844  23207554.4694                   23207554.0044
 -35776525.96948 -27835624.66846  20116686.8984                   20116684.6844
 -51798902.11756 -39752086.83653  24388387.3754                   24388386.7734
 -17326095.25847 -11615065.29346  21573794.6024                   21573795.5234
 -52451517.60947 -40816869.57845  21179570.9304                   21179566.7894
 -14957238.96547  -8465728.23845  21597670.0784                   21597668.7194
 11  8 23  1 41  0.0000000  0  8G10G12G29G05G04G25G02G30
 -36640479.12146 -27650850.28144  22911346.1804                   22911344.5164
 -34210328.09048 -25117281.48446  21162697.2584                   21162695.4574
   3659814.99246   4882673.39544  23476605.3444                   23476604.1764
 -34277547.17248 -26667589.21947  20401932.8674                   20401930.8284
 -50223628.08646 -38524600.63742  24688151.5234                   24688151.8754
 -15855287.51247 -10468981.31246  21853679.5864                   21853680.7624
 -50920543.59047 -39623902.79345  21470905.3524                   21470901.8404
 -13475574.09047  -7311184.16845  21879621.4614                   21879620.5474
 11  8 23  1 41 30.0000000  0  9G10G12G26G29G05G04G25G02G30
 -36623694.80146 -27637771.61344  22914540.4614                   22914539.2384
 -34248745.39148 -25147217.04746  21155386.3524                   21155384.6374
  17268898.89115                  24572842.141
   3498283.19146   4756804.50844  23445866.2194                   23445865.5634
 -34353397.01247 -26726692.97747  20387499.1564                   20387497.2664
 -50223812.09846 -38524744.03543  24688116.4844                   24688116.9574
 -15959309.51647 -10550037.41046  21833885.4224                   21833886.1804
 -50964866.13747 -39658439.83245  21462471.0554                   21462467.0004
 -13568703.03147  -7383752.16845  21861899.5634                   21861898.6174
 11  8 23  1 42  0.0000000  0  9G10G12G26G29G05G04G25G02G30
 -36606605.19146 -27624455.05144  22917793.2664                   22917791.3524
 -34286611.23048 -25176722.90246  21148181.1254                   21148178.7504
  17096864.527 5                  24540105.063
   3336777.64146   4630956.05544  23415133.5234                   23415132.5744
 -34428654.23048 -26785334.93746  20373178.2274                   20373176.3674
 -50224034.86746 -38524917.61743  24688074.0474                   24688074.1334
 -16062737.52347 -10630630.66846  21814203.6254                   21814204.1294
 -51009064.82447 -39692880.36345  21454060.5394                   21454056.2734
 -13661202.94547  -7455830.01645  21844297.2504                   21844296.2934
 11  8 23  1 42 30.0000000  0  9G10G12G26G29G05G04G25G02G30
 -36589216.95746 -27610905.77744  22921102.1334                   22921100.0204
 -34323930.95748 -25205803.22746  21141079.2504                   21141077.2814
  16924777.539 6                  24507358.859
   3175295.73846   4505126.03144  23384403.9064                   23384403.5084
 -34503323.05148 -26843518.41446  20358969.1254                   20358967.4414
 -50224300.02746 -38525124.37142  24688023.6884                   24688024.9574
 -16165574.35947 -10710763.25446  21794634.2584                   21794635.5664
 -51053143.73847 -39727227.55545  21445672.4454                   21445668.5354
 -13753077.19547  -7527420.34445  21826814.0704                   21826812.9534
 11  8 23  1 43  0.0000000  0  9G10G12G26G29G05G04G25G02G30
 -36571533.67647 -27597126.60244  22924466.9064                   22924465.1174
 -34360707.59848 -25234460.35546  21134080.7584                   21134078.9414
  16752639.770 6                  24474601.070
   3013838.10946   4379314.90644  23353679.4454                   23353678.7734
 -34577405.22748 -26901244.75846  20344871.6564                   20344869.8014
 -50224608.74646 -38525364.94942  24687965.1564                   24687965.7814
 -16267820.36347 -10790435.43746  21775177.0394                   21775178.7034
 -51097104.17247 -39761482.43445  21437306.8524                   21437303.0434
 -13844326.75047  -7598523.91045  21809450.3834                   21809449.1054
 11  8 23  1 43 30.0000000  0  9G10G12G26G29G05G04G25G02G30
 -36553560.67646 -27583121.65243  22927886.4454                   22927884.8404
 -34396944.85548 -25262697.19946  21127184.9064                   21127182.6134
  16580451.910 6                  24441834.711
   2852403.41446   4253521.65644  23322959.9304                   23322958.8204
 -34650903.99647 -26958516.49647  20330885.7194                   20330883.2544
 -50224963.89146 -38525641.69542  24687897.5394                   24687898.3134
 -16369477.37147 -10869648.68045  21755832.8674                   21755833.7504
 -51140948.96547 -39795647.19946  21428964.1644                   21428960.1484
 -13934954.09448  -7669142.61745  21792204.4844                   21792203.4064
 11  8 23  1 44  0.0000000  0  9G10G12G26G29G05G04G25G02G30
 -36535305.32846 -27568896.69143  22931360.0164                   22931358.7934
 -34432649.19148 -25290518.76246  21120390.5634                   21120389.0084
  16408212.80946  13475823.59853  24409057.6484                   24409057.5394
   2690989.09046   4127744.24644  23292243.2344                   23292242.3914
 -34723824.44547 -27015337.60246  20317009.1564                   20317007.3364
 -50225369.68446 -38525957.92242  24687820.9614                   24687821.1254
 -16470549.10547 -10948405.86346  21736599.3364                   21736600.0354
 -51184682.95347 -39829725.62545  21420641.3674                   21420637.8554
 -14024963.58647  -7739279.86345  21775075.6644                   21775074.8324
 11  8 23  1 44 30.0000000  0  9G10G12G26G29G05G04G25G02G30
 -36516769.77346 -27554453.38743  22934886.9614                   22934886.1604
 -34467821.40648 -25317925.69546  21113698.1254                   21113696.1414
  16235926.10646  13341574.33442  24376274.2504                   24376274.1844
   2529597.47746   4001984.52044  23261531.3524                   23261530.5164
 -34796166.62548 -27071708.10246  20303242.6254                   20303240.6604
 -50225825.79346 -38526313.36343  24687733.4304                   24687734.5394
 -16571034.10948 -11026705.85546  21717477.6334                   21717478.9694
 -51228306.16447 -39863717.73045  21412340.3914                   21412336.5474
 -14114354.28148  -7808934.95745  21758065.3204                   21758064.2934
 11  8 23  1 45  0.0000000  0  9G10G12G26G29G05G04G25G02G30
 -36497952.50446 -27539790.59043  22938468.2344                   22938467.4414
 -34502458.75848 -25344915.84846  21107106.7034                   21107104.4224
  16063599.55146  13207294.04343  24343481.0704                   24343482.2074
   2368234.31646   3876247.00044  23230825.1094                   23230824.6094
 -34867926.91448 -27127625.18046  20289587.3754                   20289585.3364
 -50226327.58246 -38526704.37943  24687638.2274                   24687639.4614
 -16670927.27347 -11104544.66446  21698468.8204                   21698469.5234
 -51271814.48047 -39897620.30945  21404060.8444                   21404056.7274
 -14203121.75047  -7878104.41845  21741173.6414                   21741172.8364
 11  8 23  1 45 30.0000000  0  8G10G12G26G29G05G25G02G30
 -36478859.92646 -27524913.28143  22942101.7664                   22942100.1644
 -34536566.70748 -25371493.48046  21100615.8594                   21100614.0004
  15891232.46146  13072982.16843  24310680.6484                   24310681.4734
   2206897.14546   3750529.72744  23200123.8524                   23200123.3404
 -34939109.78948 -27183092.33246  20276041.3594                   20276039.4344
 -16770231.89148 -11181924.86746  21679571.9924                   21679572.6684
 -51315212.10547 -39931436.62945  21395802.3284                   21395798.6844
 -14291269.90247  -7946791.27345  21724399.5554                   21724398.7114
 11  8 23  1 46  0.0000000  0  8G10G12G26G29G05G25G02G30
 -36459491.42646 -27509820.90643  22945787.5784                   22945785.7304
 -34570143.17648 -25397656.97346  21094226.8834                   21094224.9224
  15718831.77746  12938644.10542  24277873.8914                   24277874.4654
   2045591.12946   3624836.72344  23169428.1884                   23169427.6484
 -35009712.32848 -27238107.26646  20262606.3134                   20262604.2154
 -16868943.63348 -11258843.08645  21660787.7194                   21660788.0594
 -51358496.14547 -39965164.45345  21387565.9144                   21387562.2664
 -14378795.01648  -8014992.64545  21707744.2894                   21707742.9924
 11  8 23  1 46 30.0000000  0  8G10G12G26G29G05G25G02G30
 -36439842.36746 -27494509.92643  22949526.0234                   22949524.5004
 -34603183.74648 -25423402.87546  21087939.1954                   21087937.3284
  15546407.42646  12804287.59043  24245061.8444                   24245062.8554
   1884325.19946   3499174.95744  23138740.2894                   23138740.1174
 -35079728.44148 -27292665.23846  20249283.0704                   20249280.8794
 -16967054.94948 -11335293.46146  21642117.8594                   21642118.4574
 -51401658.97347 -39998797.82845  21379352.2664                   21379348.5824
 -14465690.16848  -8082703.15245  21691208.6724                   21691206.9144
 11  8 23  1 47  0.0000000  0  8G10G12G26G29G05G25G02G30
 -36419918.40646 -27478984.78943  22953318.1884                   22953316.0274
 -34635692.23448 -25448734.17646  21081753.4304                   21081751.3524
  15373960.30946  12669913.39142  24212246.1334                   24212247.4494
   1723098.14546   3373543.49244  23108059.5394                   23108059.0394
 -35149161.45348 -27346768.85947  20236070.1024                   20236068.2894
 -17064567.87148 -11411277.53545  21623561.5234                   21623562.0394
 -51444704.10547 -40032339.50845  21371161.1724                   21371157.7894
 -14551957.96547  -8149924.80545  21674792.1724                   21674791.3634
 11  8 23  1 47 30.0000000  0  8G10G12G26G29G05G25G02G30
 -36399722.24646 -27463247.52043  22957161.1724                   22957159.4414
 -34667670.53948 -25473652.34046  21075667.9534                   21075665.9224
  15201494.07046  12535524.21142  24179426.7504                   24179427.8164
   1561911.85246   3247943.80544  23077387.1414                   23077386.4384
 -35218012.28948 -27400418.83646  20222968.0234                   20222965.8714
 -17161481.51648 -11486794.64846  21605119.7504                   21605120.3094
 -51487631.45747 -40065789.37945  21362992.2274                   21362988.9104
 -14637598.25048  -8216657.48045  21658495.5784                   21658494.2934
 11  8 23  1 48  0.0000000  0  8G10G12G26G29G05G25G02G30
 -36379256.52046 -27447300.18444  22961056.3834                   22961054.5904
 -34699119.73448 -25498158.20346  21069683.1884                   21069681.4494
  15029011.66046  12401122.50443  24146604.0864                   24146605.4654
   1400768.05947   3122377.22744  23046722.1644                   23046721.8484
 -35286281.42248 -27453615.52346  20209976.8754                   20209974.6844
 -17257795.31648 -11561844.35246  21586791.3754                   21586792.1054
 -51530441.50447 -40099147.84045  21354845.9144                   21354841.9534
 -14722611.00447  -8282901.18745  21642318.3594                   21642316.9614
 11  8 23  1 48 30.0000000  0  8G10G12G26G29G05G25G02G30
 -36358522.69946 -27431143.97744  22965001.4064                   22965000.0164
 -34730040.85248 -25522252.57846  21063799.1724                   21063796.9454
  14856517.85246  12266711.86342  24113780.2814                   24113780.4304
   1239669.71547   2996846.07844  23016066.6414                   23016065.8674
 -35353968.32848 -27506358.53946  20197096.0944                   20197094.0864
 -17353507.38348 -11636425.18046  21568578.0084                   21568578.5434
 -51573132.97747 -40132413.92245  21346721.8674                   21346718.0204
 -14806995.01247  -8348654.94945  21626260.3054                   21626258.9574
 11  8 23  1 49  0.0000000  0  8G10G12G26G29G05G25G02G30
 -36337531.23446 -27414786.99643  22968995.6564                   22968994.8244
 -34760443.63348 -25545943.07046  21058013.3834                   21058012.0044
  14684007.98846  12132288.69942  24080951.5864                   24080953.0554
   1078610.50047   2871345.42644  22985417.8204                   22985417.5554
 -35421082.15248 -27558655.00446  20184324.8674                   20184323.3244
 -17448625.21948 -11710542.95746  21550477.8134                   21550478.4454
 -51615714.59847 -40165594.40245  21338618.9454                   21338615.0784
 -14890758.37947  -8413925.09445  21610320.7664                   21610319.6884
 11  8 23  1 49 30.0000000  0  8G10G12G26G29G05G25G02G30
 -36316284.90246 -27398231.41043  22973038.2274                   22973037.6134
 -34790329.35548 -25569230.65246  21052326.5394                   21052324.8054
  14511485.70746  11997855.88742  24048122.1644                   24048122.9144
    917592.16047   2745876.64544  22954777.2194                   22954776.1174
 -35487623.31648 -27610505.23846  20171662.9844                   20171660.6374
 -17543148.12148 -11784197.15646  21532490.9224                   21532491.4734
 -51658186.05948 -40198689.03946  21330537.1564                   21330533.0394
 -14973901.14147  -8478711.66045  21594498.9614                   21594498.2304
 11  8 23  1 50  0.0000000  0  8G10G12G26G29G05G25G02G30
 -36294787.04746 -27381479.83243  22977129.1884                   22977128.1884
 -34819701.06248 -25592117.70746  21046737.3984                   21046735.7544
  14338953.31646  11863415.20342  24015290.5554                   24015291.1994
    756615.79747   2620440.56644  22924144.1804                   22924143.4964
 -35553593.58248 -27661910.61346  20159108.9774                   20159107.1644
 -17637076.50048 -11857388.09046  21514616.6254                   21514617.3674
 -51700548.65648 -40231698.84446  21322475.7664                   21322471.7194
 -15056424.22347  -8543015.34445  21578795.4064                   21578794.1214
 11  8 23  1 50 30.0000000  0  8G10G12G26G29G05G25G02G30
 -36273037.68746 -27364532.26243  22981268.8834                   22981266.4924
 -34848558.23448 -25614603.82046  21041246.3284                   21041244.1604
  14166417.09446  11728971.52043  23982457.9694                   23982457.9574
    595685.59047   2495040.46144  22893520.3754                   22893519.6094
 -35618991.13748 -27712869.71946  20146664.1334                   20146661.7814
 -17730407.19948 -11930113.30946  21496856.3284                   21496857.1134
 -51742799.50447 -40264621.58645  21314435.2814                   21314431.8444
 -15138325.17247  -8606834.26245  21563210.1254                   21563209.0554
 11  8 23  1 51  0.0000000  0  8G10G12G26G29G05G25G02G30
 -34675623.47746 -26119793.91443  23285246.2194                   23285244.6454
 -33301484.27048 -24409091.64846  21335644.7974                   21335642.3054
  15569302.87946  12822129.37542  24249417.3054                   24249418.7584
   2010225.51647   3597279.44144  23162698.2194                   23162697.6994
 -34108398.34848 -26535784.40646  20434120.2114                   20434118.2894
 -16247719.73047 -10774772.40646  21779002.1254                   21779003.3984
 -50209520.81647 -39069858.95745  21606208.4924                   21606204.9774
 -13644184.46547  -7442568.75045  21847536.0704                   21847534.6374
 11  8 23  1 51 30.0000000  0  8G10G12G26G29G05G25G02G30
 -34653386.18046 -26102466.13344  23289477.8674                   23289476.8634
 -33329323.90648 -24430784.87546  21330346.8134                   21330344.5204
  15396761.87946  12687681.98842  24216583.7664                   24216585.6134
   1849386.21547   3471950.19144  23132091.0864                   23132090.9304
 -34172660.64147 -26585858.90246  20421891.5394                   20421889.5664
 -16339860.51647 -10846570.42646  21761468.6724                   21761469.7344
 -50251556.25047 -39102613.84045  21598209.6024                   21598205.6484
 -13724848.48448  -7505423.82445  21832186.5394                   21832184.7304
 11  8 23  1 52  0.0000000  0  8G10G12G26G29G05G25G02G30
 -34630905.34046 -26084948.60543  23293755.7974                   23293754.4384
 -33356653.61348 -24452080.75046  21325146.1724                   21325144.3324
  15224227.35245  12553239.60542  24183752.3674                   24183752.9494
   1688598.78147   3346661.34044  23101494.5474                   23101493.9064
 -34236352.85248 -26635489.16846  20409771.4384                   20409769.1844
 -16431402.02048 -10917901.47346  21744048.5944                   21744050.0234
 -50293480.42647 -39135282.02745  21590231.7194                   21590227.6914
 -13804890.69147  -7567794.39145  21816954.7894                   21816953.1644
 11  8 23  1 52 30.0000000  0  8G10G12G26G29G05G25G02G30
 -34608186.56246 -26067245.66043  23298078.6564                   23298077.6524
 -33383479.04748 -24472983.68746  21320041.3914                   21320039.8674
  15051699.69545  12418802.60242  24150920.3984                   24150922.4694
   1527861.52747   3221411.57844  23070907.5944                   23070906.6764
 -34299479.13348 -26684678.46146  20397759.0474                   20397756.5634
 -16522347.14848 -10988767.80946  21726742.6644                   21726743.5124
 -50335296.97347 -39167866.35545  21582274.2664                   21582270.3914
 -13884314.63747  -7629683.17645  21801840.3984                   21801839.0354
 11  8 23  1 53  0.0000000  0  8G10G12G26G29G05G25G02G30
 -34585227.96146 -26049355.85243  23302447.5164                   23302446.9064
 -33409797.51648 -24493491.58646  21315033.2114                   21315031.3134
  14879186.87145  12284377.06342  24118092.5084                   24118093.9184
   1367181.19547   3096206.19544  23040330.8444                   23040330.0164
 -34362035.85248 -26733423.93046  20385854.7974                   20385852.3634
 -16612690.89148 -11059165.53546  21709550.8754                   21709551.8954
 -50377001.31247 -39200363.24245  21574338.0004                   21574334.4534
 -13963115.94947  -7691086.80545  21786845.3834                   21786843.6254
 11  8 23  1 53 30.0000000  0  8G10G12G26G29G05G25G02G30
 -34562034.29347 -26031282.86343  23306861.8134                   23306860.4494
 -33435612.45347 -24513607.12546  21310120.4924                   21310118.8794
  14706690.49245  12149964.48842  24085267.0474                   24085269.2504
   1206557.76247   2971045.13344  23009765.0314                   23009764.0594
 -34424025.84448 -26781727.80146  20374058.4064                   20374056.2704
 -16702434.56648 -11129095.68746  21692473.3284                   21692473.7934
 -50418595.41847 -39232774.22745  21566423.0704                   21566419.1174
 -14041296.66048  -7752006.85545  21771967.9224                   21771966.4734
 11  8 23  1 54  0.0000000  0  8G10G12G26G29G05G25G02G30
 -34538612.57047 -26013032.15243  23311318.7114                   23311317.0394
 -33460930.46948 -24533335.44546  21305302.6724                   21305300.9924
  14534209.72345  12015564.02342  24052444.9774                   24052447.4264
   1045987.98847   2845925.88744  22979209.5554                   22979208.9064
 -34485454.67648 -26829594.40646  20362368.8674                   20362366.5234
 -16791582.47348 -11198561.60546  21675508.9924                   21675509.7114
 -50460083.50447 -39265102.59445  21558527.8444                   21558524.2624
 -14118861.71947  -7812447.17245  21757207.4774                   21757206.9064
 11  8 23  1 54 30.0000000  0  8G10G12G26G29G05G25G02G30
 -34514966.89147 -25994606.91843  23315818.1254                   23315816.9614
 -33485755.66047 -24552679.75846  21300578.7974                   21300576.9774
  14361745.77045  11881176.58242  24019626.7034                   24019629.0704
    885472.44947   2720848.90244  22948664.1024                   22948663.8594
 -34546325.42248 -26877026.13346  20350785.5164                   20350783.6724
 -16880136.29748 -11267564.60546  21658657.7194                   21658658.5434
 -50501467.94548 -39297350.19945  21550652.7894                   21550649.0784
 -14195813.43447  -7872409.56245  21742564.3444                   21742562.9494
 11  8 23  1 55  0.0000000  0  8G10G12G26G29G05G25G02G30
 -34491099.19147 -25976008.69543  23320359.7114                   23320358.9694
 -33510088.62947 -24571640.50046  21295948.3524                   21295946.8874
  14189303.48046  11746806.02342  23986812.2584                   23986814.0554
    725013.87547   2595816.30144  22918129.7894                   22918129.1844
 -34606637.87548 -26924022.83246  20339308.5004                   20339306.2934
 -16968094.60948 -11336103.55146  21641919.5554                   21641920.5394
 -50542747.75848 -39329516.27745  21542797.5704                   21542793.5864
 -14272151.03947  -7931893.41845  21728037.3914                   21728036.6134
 11  8 23  1 55 30.0000000  0  8G10G12G26G29G05G25G02G30
 -34467010.55547 -25957238.33644  23324944.6884                   23324942.9304
 -33533929.88748 -24590218.10246  21291411.8284                   21291409.5514
  14016887.87946  11612456.33242  23954002.8834                   23954003.8834
    564615.62547   2470830.71545  22887606.8914                   22887606.5354
 -34666391.63348 -26970584.18046  20327937.6254                   20327935.6524
 -17055455.57848 -11404177.05146  21625295.4774                   21625296.2384
 -50583921.44148 -39361599.66845  21534962.0864                   21534958.6484
 -14347873.30547  -7990897.79745  21713627.8594                   21713627.3404
 11  8 23  1 56  0.0000000  0  8G10G12G26G29G05G25G02G30
 -34442706.57847 -25938300.17243  23329568.8754                   23329567.4734
 -33557284.18448 -24608416.25046  21286967.4844                   21286965.7974
  13844499.67246  11478127.98042  23921197.0234                   23921199.1334
    404276.78547   2345891.41444  22857095.9614                   22857094.8014
 -34725590.58648 -27016713.21146  20316672.4064                   20316670.2234
 -17142221.93048 -11471787.21546  21608785.0004                   21608785.0824
 -50624992.11747 -39393602.78545  21527147.1254                   21527143.3794
 -14422983.71547  -8049425.39545  21699334.8914                   21699334.1294
 11  8 23  1 56 30.0000000  0  8G10G12G26G29G05G25G02G30
 -34418186.82847 -25919193.85943  23334234.8754                   23334233.2584
 -33580150.65248 -24626234.28546  21282616.0164                   21282614.0164
  13672145.15646  11343825.82043  23888400.4224                   23888400.9064
    244002.20347   2221002.19144  22826596.4844                   22826595.5704
 -34784233.29748 -27062408.80546  20305513.1414                   20305510.8204
 -17228390.55548 -11538931.59846  21592387.3984                   21592387.7464
 -50665956.91047 -39425523.38745  21519351.7424                   21519347.6054
 -14497479.71147  -8107474.24645  21685159.3984                   21685158.3554
 11  8 23  1 57  0.0000000  0  8G10G12G26G29G05G25G02G30
 -34393458.52347 -25899925.07044  23338940.8984                   23338939.5124
 -33602536.07447 -24643677.46946  21278356.3754                   21278353.9964
  13499823.24246  11209549.07842  23855608.8284                   23855609.0084
     83788.86747   2096160.68845  22796108.5784                   22796108.3364
 -34842325.44947 -27107675.40646  20294458.9694                   20294456.1564
 -17313965.98047 -11605613.75446  21576102.8834                   21576103.1764
 -50706820.69547 -39457365.29345  21511575.6564                   21511571.6374
 -14571366.61347  -8165048.46145  21671099.2034                   21671097.4924
 11  8 23  1 57 30.0000000  0  8G10G12G26G29G05G25G02G30
 -34368523.25046 -25880494.97743  23343685.1724                   23343683.9774
 -33624442.05947 -24660747.07046  21274187.6174                   21274185.6294
  13327538.12546  11075301.02042  23822823.1254                   23822823.7194
    -76360.49247   1971369.05545  22765633.3284                   22765632.8524
 -34899867.29748 -27152513.19146  20283508.9844                   20283506.5634
 -17398947.39848 -11671833.04346  21559931.3134                   21559932.1564
 -50747582.78147 -39489127.94145  21503818.7274                   21503814.3874
 -14644644.18447  -8222147.87545  21657154.8204                   21657153.6484
 11  8 23  1 58  0.0000000  0  8G10G12G26G29G05G25G02G30
 -34343382.38347 -25860904.67243  23348469.2584                   23348468.5004
 -33645869.41847 -24677443.72746  21270110.3524                   21270108.3674
  13155294.76246  10941085.51242  23790046.7814                   23790047.1334
   -236442.82847   1846629.62945  22735170.5634                   22735169.5044
 -34956858.74648 -27196922.09046  20272663.0004                   20272661.3094
 -17483333.30948 -11737588.29346  21543873.7664                   21543873.7424
 -50788241.85248 -39520810.31645  21496082.1174                   21496077.5784
 -14717311.64147  -8278771.88745  21643326.2664                   21643325.6374
 11  8 23  1 58 30.0000000  0  8G10G12G26G29G05G25G02G30
 -34318039.33246 -25841156.84443  23353291.7274                   23353291.5354
 -33666820.67647 -24693769.39146  21266123.5314                   21266121.4414
  12983096.21146  10806904.90643  23757279.1564                   23757279.0004
   -396456.52347   1721943.69944  22704720.9844                   22704719.7974
 -35013301.66848 -27240903.57446  20261922.5314                   20261920.6524
 -17567124.26648 -11802879.94146  21527928.5634                   21527929.1914
 -50828798.58647 -39552412.94945  21488364.0554                   21488359.4384
 -14789370.23047  -8334921.43445  21629614.1724                   21629613.3794
 11  8 23  1 59  0.0000000  0  8G10G12G26G29G05G25G02G30
 -34292495.56246 -25821252.60243  23358152.5554                   23358151.3714
 -33687296.55947 -24709724.62546  21262227.0784                   21262224.7854
  12810947.13746  10672762.90243  23724518.7894                   23724519.5204
   -556398.53947   1597313.62144  22674284.7974                   22674284.1914
 -35069196.12947 -27284457.69146  20251286.4454                   20251284.2114
 -17650318.93747 -11867706.95346  21512097.1724                   21512097.5984
 -50869252.00047 -39583935.06645  21480666.1024                   21480661.7424
 -14860819.16448  -8390595.94545  21616018.0864                   21616016.7854
 11  8 23  1 59 30.0000000  0  8G10G12G26G29G05G25G02G30
 -34266756.28146 -25801196.00443  23363050.7894                   23363049.5044
 -33707301.82047 -24725313.14546  21258419.6564                   21258418.3094
  12638848.36746  10538660.02743  23691769.2424                   23691769.5314
   -716269.29347   1472739.06645  22643862.5394                   22643861.6764
 -35124546.09848 -27327587.51646  20240753.8134                   20240751.2664
 -17732919.93448 -11932071.36746  21496378.7584                   21496378.9534
 -50909604.32047 -39615378.41845  21472986.8364                   21472983.5084
 -14931661.85247  -8445798.03945  21602537.0554                   21602536.1564
 11  8 23  2  0  0.0000000  0  8G10G12G26G29G05G25G02G30
 -34240829.47746 -25780993.28143  23367984.6954                   23367983.4224
 -33726844.65247 -24740541.34446  21254700.9304                   21254699.6174
  12466797.91846  10404594.86743  23659029.6644                   23659029.4024
   -876073.01247   1348216.73445  22613452.6884                   22613451.9734
 -35179358.23448 -27370298.26246  20230323.4614                   20230320.7504
 -17814933.05148 -11995977.66046  21480771.9384                   21480772.6994
 -50949861.45347 -39646747.59445  21465326.5314                   21465322.5044
 -15001904.66847  -8500532.67245  21589170.3204                   21589169.0664
 11  8 23  2  0 30.0000000  0  8G10G12G26G29G05G25G02G30
 -34214712.74246 -25760642.55943  23372954.5164                   23372953.0944
 -33745921.91047 -24755406.73446  21251070.7734                   21251068.8754
  12294804.45346  10270574.04743  23626299.8754                   23626299.6414
  -1035802.55947   1223752.22345  22583057.4614                   22583056.3134
 -35233628.96148 -27412587.13346  20219995.9694                   20219993.3594
 -17896353.15248 -12059421.88346  21465278.5004                   21465279.3204
 -50990018.63347 -39678038.87145  21457684.2344                   21457680.7304
 -15071543.20348  -8554796.45345  21575918.5164                   21575917.7034
 11  8 23  2  1  0.0000000  0  8G10G12G26G29G05G25G02G30
 -32612990.30946 -24512547.15643  23677752.2584                   23677751.0044
 -32189115.91847 -23542311.16846  21547320.9144                   21547319.2974
  13698296.75046  11364204.49243  23893375.5474                   23893375.0394
    379969.05547   2326950.92645  22852469.5944                   22852468.9144
 -33711938.27748 -26226854.11746  20509564.7344                   20509561.8284
 -16401758.27747 -10894802.48446  21749690.0634                   21749690.4844
 -49454655.01647 -38481651.62145  21749854.2664                   21749850.2344
 -13565156.48447  -7380988.61745  21862574.4064                   21862573.2544
 11  8 23  2  1 30.0000000  0  8G10G12G26G29G05G25G02G30
 -32586503.48446 -24491908.07843  23682792.4924                   23682791.6524
 -32207270.91847 -23556457.93046  21543866.4694                   21543865.0354
  13526425.91046  11230279.25043  23860670.1804                   23860669.4104
    220391.79747   2202605.04744  22822103.1334                   22822101.7034
 -33765131.96548 -26268303.73046  20499441.5864                   20499439.4964
 -16481994.60547 -10957324.27346  21734421.5084                   21734422.3164
 -49494614.02347 -38512788.49245  21742250.4924                   21742246.5234
 -13633590.64547  -7434313.92645  21849551.6644                   21849550.5944
 11  8 23  2  2  0.0000000  0  9G10G12G26G29G05G15G25G02G30
 -32559835.84046 -24471128.10943  23687866.9534                   23687866.4804
 -32224968.25447 -23570248.06646  21540498.6644                   21540496.8834
  13354621.59446  11096405.86743  23827976.1644                   23827976.1604
     60893.39847   2078320.62145  22791751.7894                   22791750.3874
 -33817789.51648 -26309335.58246  20489421.3914                   20489418.7664
  20207205.12956  15780312.99653  24731558.3204                   24731559.4614
 -16561639.64847 -11019385.33246  21719265.4774                   21719266.3324
 -49534474.35547 -38543848.46945  21734665.5944                   21734661.4924
 -13701424.23047  -7487171.25445  21836643.7344                   21836642.7424
 11  8 23  2  2 30.0000000  0  9G10G12G26G29G05G15G25G02G30
 -32532987.89846 -24450207.60243  23692975.3834                   23692974.4614
 -32242208.37548 -23583681.94146  21537218.0314                   21537216.3324
  13182889.34446  10962588.60943  23795296.9614                   23795296.4614
    -98522.05947   1954100.82045  22761416.5084                   22761415.1524
 -33869910.35548 -26349949.20746  20479502.8524                   20479500.7504
  20036977.88746  15647668.53943  24699164.4694                   24699166.0864
 -16640691.35247 -11080984.03546  21704222.5164                   21704223.2734
 -49574233.90647 -38574829.93445  21727099.5084                   21727095.7384
 -13768655.87147  -7539559.50445  21823849.5554                   21823848.5704
 11  8 23  2  3  0.0000000  0  9G10G12G26G29G05G15G25G02G30
 -32505971.09046 -24429155.57443  23698117.5084                   23698115.9144
 -32259002.18447 -23596768.03546  21534022.2894                   21534020.4144
  13011223.93446  10828823.44143  23762630.0704                   23762629.6994
   -257861.62547   1829940.16845  22731094.3054                   22731093.4064
 -33921504.66048 -26390152.55546  20469684.9454                   20469682.2464
  19866627.07846  15514927.82843  24666747.1334                   24666748.8984
 -16719158.94548 -11142127.59846  21689290.7584                   21689291.2854
 -49613901.89847 -38605740.03545  21719550.5084                   21719546.9064
 -13835295.42647  -7591486.40245  21811168.1334                   21811167.7234
 11  8 23  2  3 30.0000000  0  9G10G12G26G29G05G15G25G02G30
 -32478788.49646 -24407974.34843  23703289.9454                   23703288.3204
 -32275352.56247 -23609508.60546  21530911.3134                   21530909.0124
  12839628.03946  10695112.43043  23729976.1484                   23729976.0044
   -417124.23447   1705839.46145  22700788.2664                   22700786.9454
 -33972574.80948 -26429947.45746  20459966.9694                   20459964.3794
  19696154.91446  15382092.52743  24634307.5784                   24634309.2854
 -16797043.35548 -11202816.73846  21674469.6174                   21674470.2274
 -49653478.82847 -38636579.19545  21712019.6564                   21712015.2034
 -13901344.57447  -7642953.25445  21798599.6024                   21798598.9144
 11  8 23  2  4  0.0000000  0  9G10G12G26G29G05G15G25G02G30
 -32451439.93046 -24386663.80543  23708494.0554                   23708491.7464
 -32291259.58647 -23621903.69145  21527883.7974                   21527881.8914
  12668108.53546  10561460.94143  23697337.1254                   23697336.7304
   -576304.57447   1581802.85945  22670497.1644                   22670495.3484
 -34023119.15648 -26469332.65646  20450348.6254                   20450345.8714
  19525567.03546  15249167.08643  24601846.8054                   24601847.3364
 -16874341.67647 -11263049.19546  21659760.1484                   21659760.9884
 -49692961.67248 -38667345.03545  21704506.3834                   21704502.2934
 -13966801.05547  -7693958.28145  21786144.0004                   21786142.9804
 11  8 23  2  4 30.0000000  0  9G10G12G26G29G05G15G25G02G30
 -32423928.11346 -24365226.09043  23713729.4384                   23713728.1564
 -32306725.56647 -23633955.12545  21524940.9844                   21524939.2034
  12496668.61346  10427871.48843  23664712.2664                   23664712.7734
   -735401.28947   1457831.40245  22640221.9304                   22640220.6994
 -34073139.16848 -26508309.27746  20440829.8754                   20440827.5864
  19354865.84846  15116153.37543  24569362.5554                   24569363.6134
 -16951054.69148 -11322825.57446  21645162.3284                   21645162.9024
 -49732350.95347 -38698037.97345  21697010.4534                   21697006.5984
 -14031666.31647  -7744502.62945  21773800.3754                   21773799.2894
 11  8 23  2  5  0.0000000  0  9G10G12G26G29G05G15G25G02G30
 -32396259.98847 -24343666.53143  23718995.8524                   23718993.6954
 -32321756.59847 -23645667.64546  21522080.6334                   21522078.8244
  12325307.71946  10294343.60243  23632103.6804                   23632103.9144
   -894416.06647   1333923.82445  22609962.2034                   22609960.8754
 -34122640.62148 -26546881.82046  20431410.0554                   20431407.3324
  19184049.94146  14983050.28143  24536857.3594                   24536858.0044
 -17027186.56248 -11382149.11746  21630675.2814                   21630675.6174
 -49771650.32447 -38728660.84045  21689532.2974                   21689528.5474
 -14095945.28148  -7794590.11345  21761568.6884                   21761567.8444
 11  8 23  2  5 30.0000000  0  9G10G12G26G29G05G15G25G02G30
 -32368433.46146 -24321983.54343  23724289.6724                   23724289.3594
 -32336351.05547 -23657039.96545  21519303.3054                   21519301.2894
  12154033.96946  10160883.61743  23599511.7664                   23599511.6254
  -1053342.79747   1210084.85245  22579719.0314                   22579718.0664
 -34171620.76647 -26585048.16046  20422089.3914                   20422087.0864
  19013126.25446  14849863.14842  24504331.0004                   24504331.5904
 -17102733.44948 -11441016.82846  21616298.9924                   21616299.3954
 -49810855.76647 -38759210.53145  21682071.8364                   21682067.7854
 -14159634.64148  -7844218.19945  21749449.1484                   21749447.8204
 11  8 23  2  6  0.0000000  0  9G10G12G26G29G05G15G25G02G30
 -32340450.56246 -24300178.71143  23729615.1804                   23729613.5124
 -32350510.59047 -23668073.39845  21516608.7504                   21516606.9184
  11982851.42646  10027494.71943  23566936.8594                   23566936.6724
  -1212178.92247   1086316.48845  22549494.2424                   22549492.9804
 -34220080.71548 -26622809.15246  20412867.8364                   20412865.2154
  18842097.90246  14716594.49242  24471784.8984                   24471786.5434
 -17177695.16448 -11499428.55946  21602034.5004                   21602035.0044
 -49849966.87147 -38789686.70745  21674629.2194                   21674624.8014
 -14222734.87148  -7893387.20745  21737441.3674                   21737439.9414
 11  8 23  2  6 30.0000000  0  9G10G12G26G29G05G15G25G02G30
 -32312312.49246 -24278252.93443  23734968.8674                   23734968.3014
 -32364236.28947 -23678768.75846  21513997.2894                   21513994.9844
  11811765.00446   9894180.69144  23534379.3674                   23534379.9574
  -1370921.08247    962621.33245  22519286.0944                   22519285.1914
 -34268020.71548 -26660164.98046  20403745.1484                   20403742.6294
  18670968.73046  14583247.23442  24439219.8134                   24439221.2934
 -17252070.87547 -11557383.66846  21587880.4384                   21587880.8674
 -49888982.26247 -38820088.29745  21667204.9144                   21667201.0704
 -14285245.87548  -7942097.09845  21725546.3054                   21725544.8324
 11  8 23  2  7  0.0000000  0  9G10G12G26G29G05G15G25G02G30
 -32284021.10246 -24256207.66843  23740351.5634                   23740352.0944
 -32377529.62147 -23689127.21945  21511467.6024                   21511465.4844
  11640779.26646   9760945.14844  23501842.3524                   23501842.1334
  -1529566.50847    839001.57045  22489096.8834                   22489095.8484
 -34315441.19548 -26697115.99646  20394721.3134                   20394719.1454
  18499742.42646  14449824.27742  24406637.3594                   24406637.6564
 -17325860.04748 -11614881.73446  21573839.0004                   21573839.7074
 -49927901.16047 -38850414.69145  21659799.1254                   21659794.5864
 -14347167.86748  -7990348.02045  21713763.2894                   21713761.5434
 11  8 23  2  7 30.0000000  0  9G10G12G26G29G05G15G25G02G30
 -32255582.18046 -24234047.51643  23745764.0234                   23745763.5944
 -32390396.72348 -23699153.57045  21509018.9304                   21509017.1844
  11469894.51246   9627788.26644  23469323.9064                   23469324.3754
  -1688116.39547    715456.23045  22458925.6884                   22458924.3594
 -34362347.12948 -26733666.05946  20385795.5784                   20385793.2464
  18328418.56346  14316325.27042  24374034.9614                   24374036.1644
 -17399066.48848 -11671925.71146  21559908.6094                   21559909.1524
 -49966726.69947 -38880668.32845  21652411.0474                   21652406.5314
 -14408505.25047  -8038143.39845  21702090.3914                   21702088.9264
 11  8 23  2  8  0.0000000  0  9G10G12G26G29G05G15G25G02G30
 -32226997.87946 -24211774.05543  23751203.6724                   23751203.1764
 -32402839.60547 -23708849.33245  21506651.2504                   21506648.9774
  11299114.64846   9494713.15644  23436825.6724                   23436825.6724
  -1846568.36347    591987.20345  22428773.6724                   22428772.3554
 -34408740.06247 -26769816.37946  20376966.8914                   20376964.4614
  18156999.85946  14182752.44543  24341415.3594                   24341416.3634
 -17471690.39548 -11728515.77046  21546088.3364                   21546089.7274
 -50005458.51647 -38910848.94545  21645039.7034                   21645036.1214
 -14469258.87947  -8085483.89545  21690529.2034                   21690528.4384
 11  8 23  2  8 30.0000000  0  9G10G12G26G29G05G15G25G02G30
 -32198269.03946 -24189387.98843  23756672.7814                   23756670.0944
 -32414858.84847 -23718214.99645  21504364.4304                   21504362.0164
  11128445.12146   9361723.98043  23404347.3754                   23404348.1994
  -2004918.75847    468597.33245  22398640.2894                   22398639.7154
 -34454620.02748 -26805566.98446  20368236.2194                   20368234.4024
  17985490.73846  14049109.10243  24308778.6024                   24308778.9184
 -17543730.47348 -11784650.88746  21532379.5004                   21532380.4494
 -50044095.04347 -38940955.31645  21637688.0314                   21637683.6414
 -14529428.13347  -8132369.03945  21679079.1954                   21679078.7194
 11  8 23  2  9  0.0000000  0  9G10G12G26G29G05G15G25G02G30
 -32169403.28146 -24166895.18443  23762164.8204                   23762163.1254
 -32426462.20747 -23727256.58645  21502155.5864                   21502154.0824
  10957884.46547   9228819.65643  23371891.5314                   23371890.7034
  -2163170.73047    345284.16845  22368525.3754                   22368524.9654
 -34499993.52048 -26840922.93446  20359602.0864                   20359599.7814
  17813889.02046  13915393.64543  24276123.0944                   24276123.2704
 -17615192.43748 -11840335.52345  21518781.4534                   21518781.8164
 -50082641.39847 -38970991.42245  21630352.5474                   21630348.6374
 -14589019.44147  -8178803.84445  21667739.8134                   21667738.9144
 11  8 23  2  9 30.0000000  0  9G10G12G26G29G05G15G25G02G30
 -32140401.81246 -24144296.71543  23767683.9614                   23767681.2504
 -32437651.02047 -23735975.15245  21500026.8364                   21500024.6484
  10787437.52046   9096003.92643  23339456.8984                   23339456.0704
  -2321320.75447    222050.43845  22338430.9304                   22338429.5434
 -34544861.21948 -26875884.75446  20351063.8204                   20351061.8484
  17642198.47347  13781608.99643  24243451.9844                   24243451.5904
 -17686075.66847 -11895569.19546  21505291.8054                   21505293.2584
 -50121096.25847 -39000956.23845  21623035.0164                   21623031.0744
 -14648032.84047  -8224788.30145  21656509.8204                   21656508.8794
 11  8 23  2 10  0.0000000  0  9G10G12G26G29G05G15G25G02G30
 -32111264.65646 -24121592.43743  23773227.6254                   23773225.5474
 -32448424.76247 -23744370.28545  21497976.7344                   21497975.0004
  10617110.40646   8963281.56643  23307044.5634                   23307043.9184
  -2479364.43047     98899.59445  22308356.1334                   22308355.0634
 -34589221.86748 -26910451.47746  20342622.4844                   20342620.2734
  17470424.24246  13647759.12943  24210763.9224                   24210764.0204
 -17756378.19947 -11950350.37546  21491913.9694                   21491915.1174
 -50159456.85947 -39030847.59845  21615735.2274                   21615730.8134
 -14706467.02747  -8270321.42645  21645389.9774                   21645389.3674
 11  8 23  2 10 30.0000000  0  9G10G12G26G29G05G15G25G02G30
 -32081993.79746 -24098783.97343  23778798.4144                   23778796.0554
 -32458785.81647 -23752443.84445  21496004.6724                   21496002.9844
  10446907.51246   8830656.00043  23274656.2034                   23274654.8444
  -2637298.90247    -24166.16045  22278302.6334                   22278300.8914
 -34633076.50448 -26944623.89146  20334277.1884                   20334274.6294
  17298569.79746  13513846.75043  24178060.8984                   24178061.2854
 -17826100.00448 -12004679.02346  21478646.6644                   21478647.6484
 -50197722.69547 -39060665.13745  21608452.9614                   21608449.4924
 -14764322.62147  -8315403.69945  21634380.4924                   21634379.6844
 11  8 23  2 11  0.0000000  0  9G10G12G26G29G05G15G25G02G30
 -32052594.13746 -24075875.13343  23784393.0314                   23784390.5554
 -32468739.33247 -23760199.84045  21494110.8914                   21494109.0824
  10276830.08246   8698128.20343  23242291.8204                   23242290.3094
  -2795124.84047   -147147.35945  22248268.3594                   22248267.0434
 -34676429.65648 -26978405.53946  20326027.3054                   20326024.6334
  17126635.33647  13379872.05944  24145342.2974                   24145343.2894
 -17895244.23048 -12058557.62146  21465488.5864                   21465489.6604
 -50235896.22747 -39090410.75445  21601189.1724                   21601185.0634
 -14821603.43748  -8360038.10245  21623480.6484                   21623479.7424
 11  8 23  2 11 30.0000000  0  9G10G12G26G29G05G15G25G02G30
 -30447645.55146 -22825265.86343  24089802.8914                   24089803.1684
 -30902863.42647 -22540036.80545  21792087.1954   21792085.5394   11682311.24646
   9793308.42243                  23509744.7584                   23509744.5314
  -1377410.80947    957564.94145  22518050.3594                   22518049.3324
 -33143858.03148 -25784193.86746  20617666.0394                   20617663.7974
  18530053.25446  14473444.62544  24412403.7974                   24412404.3364
 -16388385.46548 -10884381.94146  21752234.4774                   21752235.2734
 -48698552.43047 -37892480.52745  21893735.7814                   21893732.2464
 -13302885.09847  -7176621.22345  21912483.0704                   21912481.8014
 11  8 23  2 12  0.0000000  0  9G10G12G26G29G05G15G25G02G30
 -30417992.49646 -22802159.53943  24095446.2424                   24095445.0984
 -30912005.26247 -22547160.32846  21790347.5314   21790346.0594   11512499.00846
   9660987.28543                  23477430.8364                   23477429.9104
  -1535009.75447    834760.66445  22488060.6484                   22488059.0704
 -33186210.09048 -25817195.44146  20609606.6724                   20609604.0434
  18357970.50846  14339354.35244  24379656.7734                   24379657.8954
 -16456373.23048 -10937359.40646  21739297.2194                   21739297.8094
 -48736537.87947 -37922079.59045  21886507.0314                   21886503.9304
 -13359017.07447  -7220360.41445  21901801.2194                   21901800.2894
 11  8 23  2 12 30.0000000  0  9G10G12G26G29G05G15G25G02G30
 -30388216.48046 -22778957.46543  24101109.6174                   24101111.6054
 -30920745.75847 -22553971.13346  21788684.9454   21788683.2854   11342824.63746
   9528773.55543                  23445142.6884                   23445142.4224
  -1692492.41047    712046.98045  22458092.2424                   22458091.2074
 -33228064.38748 -25849809.16446  20601641.7424                   20601639.3444
  18185817.37146  14205209.19143  24346897.5944                   24346898.5704
 -16523784.26248 -10989887.46146  21726468.9534                   21726469.6844
 -48774429.65647 -37951605.65645  21879297.7974                   21879292.8954
 -13414577.12547  -7263653.94945  21891228.5704                   21891227.2974
 11  8 23  2 13  0.0000000  0  9G10G12G26G29G05G15G25G02G30
 -30358321.76646 -22755662.88743  24106800.5084                   24106800.5084
 -30929089.00847 -22560472.38745  21787096.7974   21787094.9064   11173289.99246
   9396668.70343                  23412880.7344                   23412880.6604
  -1849858.05547    589424.46945  22428146.7424                   22428145.3164
 -33269424.59047 -25882037.87546  20593771.4614                   20593768.5864
  18013595.21146  14071010.28943  24314124.5634                   24314125.4804
 -16590620.74648 -11041967.80946  21713750.6724                   21713751.1484
 -48812228.90647 -37981059.63745  21872104.4304                   21872100.2384
 -13469568.06647  -7306504.03545  21880764.3204                   21880763.1564
 11  8 23  2 13 30.0000000  0  9G10G12G26G29G05G15G25G02G30
 -30328310.58246 -22732277.55543  24112513.7664                   24112512.4964
 -30937037.51647 -22566666.04745  21785584.2664   21785582.3164   11003899.31346
   9264676.05943                  23380647.7584                   23380646.6334
  -2007104.70747    466894.68845  22398223.8524                   22398222.6094
 -33310291.93047 -25913882.53946  20585994.3284                   20585991.8674
  17841306.74645  13936759.72743  24281338.8204                   24281339.6764
 -16656883.32448 -11093600.97346  21701141.0634                   21701141.4694
 -48849935.59447 -38010441.46545  21864928.5234                   21864924.6334
 -13523991.27047  -7348911.70345  21870407.5164                   21870406.9694
 11  8 23  2 14  0.0000000  0  9G10G12G26G29G05G15G25G02G30
 -30298184.93046 -22708803.06643  24118246.1724                   24118244.6724
 -30944593.27747 -22572553.68045  21784146.4304   21784144.1564   10834656.58246
   9132798.68843                  23348441.5474                   23348440.3484
  -2164229.54747    344459.81345  22368323.4844                   22368322.8284
 -33350667.90247 -25945344.32446  20578311.1334                   20578308.9024
  17668955.19946  13802460.00043  24248541.5394                   24248542.5434
 -16722572.28948 -11144787.15646  21688640.8674                   21688641.6334
 -48887548.88347 -38039750.53145  21857771.0474                   21857766.8014
 -13577847.71147  -7390877.74245  21860159.3754                   21860158.6134
 11  8 23  2 14 30.0000000  0  9G10G12G26G29G05G15G25G02G30
 -30267949.78146 -22685243.27743  24123998.5314                   24123998.1374
 -30951761.09447 -22578139.00845  21782782.2974   21782780.3364   10665563.12546
   9001037.60243                  23316263.5474                   23316262.9924
  -2321232.70747    222119.77345  22338447.0394                   22338445.7274
 -33390557.02347 -25976426.75046  20570721.0944                   20570718.4264
  17496541.21946  13668111.55943  24215732.1884                   24215732.5084
 -16787690.93747 -11195528.92646  21676248.9924                   21676249.6954
 -48925071.41847 -38068988.88345  21850630.8984                   21850626.5314
 -13631141.16047  -7432405.10245  21850017.6804                   21850017.1954
 11  8 23  2 15  0.0000000  0  9G10G12G26G29G05G15G25G02G30
 -30237606.96146 -22661599.55143  24129772.9454                   24129771.9884
 -30958543.20347 -22583423.79345  21781491.6884   21781489.7854   10496623.39846
   8869396.31643                  23284115.5784                   23284114.7704
  -2478111.69547     99876.47745  22308593.7034                   22308592.3324
 -33429960.15248 -26007130.47746  20563222.3524                   20563219.7424
  17324067.86746  13533716.87543  24182912.4224                   24182911.8674
 -16852239.57847 -11245826.55546  21663965.6484                   21663966.8284
 -48962502.39847 -38098155.89545  21843507.7274                   21843503.7734
 -13683872.74247  -7473494.61345  21839983.0784                   21839982.4304
 11  8 23  2 15 30.0000000  0  9G10G12G26G29G05G15G25G02G30
 -30207158.01646 -22637873.16442  24135567.4064                   24135566.2154
 -30964941.80547 -22588409.73845  21780273.9224   21780272.0864   10327841.59846
   8737878.09443                  23251997.6724                   23251997.4144
  -2634863.72347    -22267.88745  22278765.3674                   22278763.8364
 -33468878.86747 -26037456.74246  20555816.3364                   20555813.9614
  17151538.77746  13399278.72743  24150080.6884                   24150080.6374
 -16916218.40247 -11295680.14846  21651790.6174                   21651791.9804
 -48999841.18047 -38127251.05545  21836402.4844                   21836398.4964
 -13736043.25447  -7514146.94145  21830055.8524                   21830054.6254
 11  8 23  2 16  0.0000000  0  9G10G12G26G29G05G15G25G02G30
 -30176606.24246 -22614066.60543  24141379.5554                   24141379.6524
 -30970960.19147 -22593099.40245  21779128.5314   21779127.0164   10159220.61746
   8606485.21543                  23219909.9534                   23219909.4774
  -2791487.35947   -144312.21145  22248960.0474                   22248959.2034
 -33507315.29748 -26067407.19146  20548502.1484                   20548499.8754
  16978956.63746  13264799.21543  24117238.6724                   24117238.9024
 -16979629.03547 -11345091.00046  21639724.1334                   21639725.0824
 -49037088.23447 -38156274.75845  21829314.8444                   21829310.5824
 -13787655.03947  -7554363.90645  21820233.6414                   21820233.2424
 11  8 23  2 16 30.0000000  0  9G10G12G26G29G05G15G25G02G30
 -30145952.35246 -22590180.43742  24147213.8754                   24147212.3834
 -30976599.19547 -22597493.46145  21778055.8364   21778054.0554
   9990765.99646   8475221.94143  23187853.9614                   23187853.7384
  -2947978.84047   -266253.55545  22219181.0704                   22219179.8244
 -33545270.02348 -26096982.29346  20541279.5004                   20541277.1724
  16806324.96147  13130281.12143  24084388.0394                   24084388.4264
 -17042470.80548 -11394058.59045  21627765.6564                   21627767.0314
 -49074241.65247 -38185225.49245  21822245.1174                   21822241.2814
 -13838708.05547  -7594145.45745  21810519.1254                   21810517.8364
 11  8 23  2 17  0.0000000  0  9G10G12G26G29G05G15G25G02G30
 -30115199.60246 -22566217.21543  24153065.9384                   24153065.1994
 -30981862.69147 -22601594.91045  21777054.4454   21777052.7034
   9822480.28946   8344090.31643  23155830.2734                   23155829.9414
  -3104337.14147   -388091.12945  22189426.9774                   22189425.6804
 -33582745.98848 -26126184.32446  20534148.0234                   20534145.8014
  16633645.72746  12995725.94143  24051528.1564                   24051528.0514
 -17104745.82448 -11442584.56246  21615915.5314                   21615916.5554
 -49111302.94947 -38214104.42245  21815191.8594                   21815188.7114
 -13889205.09847  -7633493.77345  21800909.7664                   21800908.8794
 11  8 23  2 17 30.0000000  0  9G10G12G26G29G05G15G25G02G30
 -30084351.87546 -22542180.03543  24158936.4924                   24158936.0514
 -30986754.68447 -22605406.86345  21776123.3914   21776121.1604
   9654365.93846   8213092.19143  23123839.3284                   23123838.7664
  -3260561.23447   -509824.13745  22159698.5784                   22159696.5634
 -33619746.12547 -26155015.59046  20527107.2894                   20527105.0004
  16460920.75446  12861135.13343  24018660.2974                   24018659.4264
 -17166456.16048 -11490670.52746  21604172.3444                   21604173.2304
 -49148272.65247 -38242911.98445  21808156.6484                   21808152.8594
 -13939148.84047  -7672410.96145  21791405.9454                   21791404.5514
 11  8 23  2 18  0.0000000  0  9G10G12G26G29G05G15G25G02G30
 -30053411.64146 -22518070.72342  24164824.6334                   24164823.8094
 -30991277.84447 -22608931.43045  21775262.3594   21775260.2974
   9486426.44546   8082230.31644  23091881.7194                   23091880.9614
  -3416649.20347   -631451.07845  22129995.6564                   22129994.2584
 -33656272.90248 -26183477.99246  20520156.6564                   20520154.2734
  16288152.57047  12726510.72743  23985783.3834                   23985782.6454
 -17227603.31248 -11538317.64846  21592536.5314                   21592536.9844
 -49185150.91847 -38271648.28545  21801139.4844                   21801135.3874
 -13988541.43747  -7710898.68045  21782006.9534                   21782005.3134
 11  8 23  2 18 30.0000000  0  9G10G12G26G29G05G15G25G02G30
 -30022378.85946 -22493889.28942  24170729.9774                   24170728.5944
 -30995432.72747 -22612169.02045  21774472.0004   21774470.0394
   9318668.30146   7951509.75444  23059957.6644                   23059957.5434
  -3572596.06647   -752968.07445  22100319.8364                   22100318.8634
 -33692325.68048 -26211571.05146  20513295.8054                   20513293.1094
  16115346.30946  12591856.59843  23952899.5944                   23952898.6524
 -17288185.53948 -11585524.57846  21581008.1804                   21581008.7974
 -49221935.28147 -38300311.41845  21794139.8364                   21794135.5784
 -14037381.74247  -7748956.05945  21772712.7974                   21772711.7734
 11  8 23  2 19  0.0000000  0  9G10G12G26G29G05G15G25G02G30
 -29991258.82846 -22469639.96542  24176651.5394                   24176650.7814
 -30999224.64847 -22615123.79345  21773750.7424   21773748.6024
   9151092.16847   7820931.02744  23028069.3444                   23028068.8244
  -3728402.96947   -874375.99645  22070671.8594                   22070669.3714
 -33727909.26648 -26239298.50446  20506524.5784                   20506522.1024
  15942502.09846  12457172.93443  23920008.0944                   23920007.8794
 -17348207.06648 -11632294.59046  21569586.9224                   21569586.9224
 -49258628.75447 -38328903.74245  21787157.2034                   21787153.4694
 -14085674.66047  -7786586.87945  21763522.6564                   21763521.5434
 11  8 23  2 19 30.0000000  0  9G10G12G26G29G05G15G25G02G30
 -29960055.55946 -22445325.70742  24182588.2424                   24182588.1294
 -31002657.87547 -22617799.05945  21773097.3134   21773095.5474
   8983700.46147   7690496.02044  22996215.8524                   22996215.3674
  -3884068.98047   -995674.14145  22041048.9064                   22041047.5044
 -33763027.06248 -26266662.99646  20499841.6174                   20499839.2814
  15769621.75846  12322461.12543  23887108.9614                   23887109.7384
 -17407670.13748 -11678629.45746  21558271.2114                   21558271.7384
 -49295232.16847 -38357425.85545  21780191.4924                   21780187.9144
 -14133423.16047  -7823793.50045  21754436.8204                   21754434.7504
 11  8 23  2 20  0.0000000  0  9G10G12G26G29G05G15G25G02G30
 -29928766.91446 -22420944.97743  24188542.8524                   24188543.0984
 -31005730.74247 -22620193.51645  21772512.5474   21772510.9064
   8816501.08646   7560210.84044  22964398.1174                   22964398.2384
  -4039587.38347  -1116857.27345  22011455.1414                   22011453.1174
 -33797676.70348 -26293662.69546  20493248.3834                   20493245.6724
  15596711.98046  12187726.34843  23854205.8594                   23854206.1094
 -17466571.77048 -11724526.85246  21547062.3984                   21547063.1024
 -49331741.41047 -38385874.60945  21773244.7894                   21773239.9104
 -14180624.86347  -7860574.05145  21745454.4224                   21745453.1054
 11  8 23  2 20 30.0000000  0  9G10G12G26G29G05G15G25G02G30
 -29897397.68446 -22396501.43742  24194511.9534                   24194511.5744
 -31008448.81647 -22622311.52045  21771995.1564   21771993.3524
   8649495.48847   7430076.66844  22932618.0784                   22932617.8164
  -4194958.67247  -1237925.78545  21981888.6644                   21981886.8554
 -33831862.75847 -26320301.16446  20486742.5164                   20486740.0634
  15423773.30546  12052969.10243  23821296.2664                   23821297.2934
 -17524915.55148 -11769989.53946  21535960.2894                   21535960.6374
 -49368158.48047 -38414251.52045  21766314.0784                   21766309.9144
 -14227283.95747  -7896931.78545  21736575.6094                   21736574.7114
 11  8 23  2 21  0.0000000  0  9G10G12G26G29G05G15G25G02G30
 -29865951.43746 -22371997.87543  24200496.1954                   24200495.0434
 -31010815.34447 -22624155.58645  21771544.9924   21771543.1724
   8482686.03146   7300095.35944  22900875.5234                   22900874.8324
  -4350181.73047  -1358878.78945  21952350.3284                   21952349.2734
 -33865588.31647 -26346580.80146  20480325.0704                   20480322.3204
  15250807.69546  11918190.88344  23788382.6564                   23788382.1764
 -17582703.72348 -11815019.27746  21524963.2504                   21524964.0044
 -49404484.51647 -38442557.49645  21759401.7424                   21759397.9964
 -14273403.30147  -7932868.93745  21727799.2344                   21727798.4804
 11  8 23  2 21 30.0000000  0  9G10G12G26G29G05G15G25G02G30
 -28259010.47746 -21119836.12943  24506287.8594                   24506285.7424
 -29437412.57847 -21398127.46945  22070953.0634   22070951.5434
   9891503.30946   8397875.09043  23168964.7424                   23168963.9694
  -2929827.93047   -252109.56245  22222634.7344                   22222633.1054
 -32323433.01247 -25144901.31646  20773787.4614                   20773785.0204
  16653244.70346  13010999.02043  24055257.0004                   24055257.0784
 -16064514.52348 -10632014.71946  21813864.6724                   21813865.7664
 -47865297.11347 -37243190.68445  22052298.9224                   22052295.2504
 -12743562.23447  -6740784.98445  22018918.0084                   22018917.3634
 11  8 23  2 22  0.0000000  0  9G10G12G26G29G05G15G25G02G30
 -28227417.24946 -21095218.08443  24512300.0474                   24512298.1564
 -29439085.85947 -21399431.34445  22070634.8674   22070633.3634
   9725097.34046   8268208.14543  23137298.7424                   23137297.7234
  -3084748.25047   -372826.66045  22193154.5084                   22193153.2074
 -32356243.72348 -25170468.09046  20767543.7504                   20767541.1994
  16480233.07046  12876184.89143  24022334.0784                   24022333.4304
 -16121195.53148 -10676181.73846  21803078.8914                   21803079.8714
 -47901440.81647 -37271354.59445  22045421.5394                   22045417.2034
 -12788608.14147  -6775885.69945  22010346.1564                   22010345.4694
 11  8 23  2 22 30.0000000  0  9G10G12G26G29G05G15G25G02G30
 -28195752.18046 -21070543.99243  24518325.8834                   24518323.9534
 -29440414.23047 -21400466.44545  22070381.9144   22070380.3554
   9558900.50846   8138704.16044  23105672.2424                   23105671.2894
  -3239511.97747   -493421.73445  22163703.6484                   22163702.5824
 -32388598.52348 -25195679.60546  20761386.8594                   20761384.1764
  16307204.27046  12741357.37144  23989407.6644                   23989407.9024
 -16177323.06248 -10719917.49246  21792398.2584                   21792399.3364
 -47937491.46947 -37299446.01245  22038560.7504                   22038557.1294
 -12833118.40247  -6810569.02345  22001876.0004                   22001875.3014
 11  8 23  2 23  0.0000000  0  9G10G12G26G29G05G15G25G02G30
 -28164021.63746 -21045818.94542  24524364.2664                   24524362.2544
 -29441405.57847 -21401238.93445  22070193.6724   22070191.6564
   9392912.46946   8009362.88344  23074085.9694                   23074084.9344
  -3394121.03547   -613896.28545  22134282.5394                   22134281.4344
 -32420503.69548 -25220540.76646  20755315.0084                   20755313.2304
  16134157.59046  12606515.90243  23956478.3524                   23956477.3874
 -16232902.46548 -10763226.11346  21781822.5004                   21781822.9104
 -47973452.60947 -37327467.66445  22031717.7114                   22031714.3324
 -12877098.86747  -6844839.52345  21993506.9384                   21993506.1764
 11  8 23  2 23 30.0000000  0  9G10G12G26G29G05G15G25G02G30
 -28132225.18745 -21021042.55543  24530414.4694                   24530413.5234
 -29442059.52047 -21401748.51245  22070069.6024   22070068.0634
   9227139.80147   7880189.39143  23042540.5394                   23042539.6094
  -3548570.29347   -734246.32445  22104891.9844                   22104890.2504
 -32451958.54748 -25245051.02746  20749329.9224                   20749327.0554
  15961098.69146  12471664.95743  23923545.3834                   23923545.6134
 -16287932.18748 -10806106.42646  21771350.2114                   21771350.6764
 -48009321.93747 -37355417.79345  22024891.8914                   22024888.3364
 -12920548.77347  -6878696.59445  21985238.6414                   21985238.1294
 11  8 23  2 24  0.0000000  0  9G10G12G26G29G05G15G25G02G30
 -28100367.46945 -20996218.40642  24536476.5314                   24536476.2304
 -29442380.87147 -21401998.94545  22070007.9534   22070006.9614
   9061584.10546   7751184.98444  23011035.5864                   23011036.0634
  -3702859.53547   -854471.67645  22075531.2734                   22075529.8634
 -32482966.77748 -25269213.27746  20743428.8674                   20743426.9384
  15788028.27046  12336805.00843  23890611.0554                   23890611.0164
 -16342415.71948 -10848561.12946  21760982.2504                   21760983.0514
 -48045100.66447 -37383297.31645  22018083.7974                   22018079.5124
 -12963472.25447  -6912143.44945  21977070.5164                   21977069.5234
 11  8 23  2 24 30.0000000  0  9G10G12G26G29G05G15G25G02G30
 -28068445.64845 -20971344.14142  24542550.3674                   24542551.0124
 -29442367.86348 -21401988.82445  22070010.4694   22070009.0204
   8896253.79746   7622356.20744  22979575.3134                   22979573.9924
  -3856981.83647   -974566.93045  22046203.1174                   22046201.2464
 -32513526.19548 -25293025.80546  20737613.6414                   20737611.6094
  15614954.07446  12201942.10543  23857676.8204                   23857675.8794
 -16396349.71148 -10890587.61746  21750718.7814                   21750719.9574
 -48080784.22347 -37411102.69945  22011293.0864                   22011289.3244
 -13005866.44547  -6945177.90645  21969003.2584                   21969002.0394
 11  8 23  2 25  0.0000000  0  9G10G12G26G29G05G15G25G02G30
 -28036466.37945 -20946425.12142  24548635.4774                   24548637.2544
 -29442026.73047 -21401723.02345  22070075.7114   22070073.3594
   8731149.24647   7493703.34044  22948155.9144                   22948155.7624
  -4010938.61747  -1094533.19945  22016905.9384                   22016904.9264
 -32543642.25048 -25316492.85546  20731882.7894                   20731880.0514
  15441875.50846  12067075.79343  23824740.1724                   23824740.1174
 -16449739.10948 -10932189.75046  21740559.1414                   21740560.1724
 -48116375.87147 -37438836.45345  22004520.2734                   22004516.2034
 -13047736.93747  -6977804.26645  21961035.6484                   21961034.9414
 11  8 23  2 25 30.0000000  0  9G10G12G26G29G05G15G25G02G30
 -28004433.773 6                  24554731.609
 -29441362.83647 -21401205.72745  22070202.3204   22070200.0944
   8566271.50447   7365227.24244  22916781.3444                   22916780.6644
  -4164730.13347  -1214370.66845  21987640.7274                   21987639.0514
 -32573319.64548 -25339618.08646  20726235.4454                   20726233.0354
  15268792.62946  11932206.14543  23791804.5474                   23791803.4304
 -16502587.77748 -10973370.53146  21730502.7664                   21730502.8984
 -48151877.94547 -37466500.40245  21997764.2974                   21997760.4024
 -13089088.24647  -7010026.06245  21953166.7584                   21953166.1254
 11  8 23  2 26  0.0000000  0  9G10G12G26G29G05G15G25G02G30
 -27972346.75046 -20924448.74653  24560837.8524                   24560836.2384
 -29440376.02747 -21400436.81245  22070389.7504   22070388.6564
   8401627.44146   7236933.21144  22885450.8134                   22885449.3834
  -4318351.03947  -1334075.20745  21958407.5004                   21958405.3094
 -32602557.38348 -25362400.73446  20720671.3444                   20720669.6024
  15095711.80146  11797338.07843  23758867.7584                   23758867.3244
 -16554894.08648 -11014128.69546  21720548.8204                   21720549.7734
 -48187287.16447 -37494092.00845  21991026.5634                   21991022.1564
 -13129919.36747  -7041842.52045  21945396.9454                   21945396.1214
 11  8 23  2 26 30.0000000  0  9G10G12G26G29G05G15G25G02G30
 -27940204.10246 -20899402.46942  24566954.3444                   24566953.3364
 -29439065.39847 -21399415.57045  22070638.7274   22070637.1294
   8237224.62147   7108827.14544  22854165.2114                   22854164.6334
  -4471795.25847  -1453642.06245  21929207.4924                   21929206.1764
 -32631353.91448 -25384839.59046  20715192.0394                   20715189.3754
  14922639.59446  11662476.73844  23725933.4144                   23725932.5904
 -16606655.76648 -11054462.46546  21710698.6254                   21710699.6294
 -48222599.50447 -37521608.12545  21984306.9384                   21984302.5204
 -13170228.56247  -7073252.29745  21937726.5474                   21937725.3554
 11  8 23  2 27  0.0000000  0 10G10G12G26G29G05G15G25G02G30G21
 -27908009.32446 -20874315.69142  24573081.2274                   24573079.8364
 -29437434.98447 -21398145.14545  22070949.4384   22070947.6334
   8073065.81347   6980911.24644  22822926.7274                   22822926.5824
  -4625061.62547  -1573070.32445  21900042.1954                   21900040.5084
 -32659712.48848 -25406937.18046  20709795.2584                   20709793.1564
  14749577.99646  11527623.66844  23693000.7114                   23693000.3634
 -16657875.30948 -11094373.79746  21700951.9774                   21700952.9104
 -48257815.82847 -37549049.44145  21977605.5314                   21977601.0944
 -13210019.01647  -7104257.84445  21930155.1724                   21930153.7974
  23418324.96156  18276304.47352  25156171.3594                   25156170.9734
 11  8 23  2 27 30.0000000  0  9G12G26G29G05G15G25G02G30G21
 -29435494.30547 -21396632.94945  22071318.5634   22071316.8164
   7909148.00847   6853183.12544  22791734.7504                   22791733.9024
  -4778154.71147  -1692363.57045  21870909.3834                   21870907.7464
 -32687641.92648 -25428700.37146  20704480.5554                   20704478.2344
  14576522.91847  11392775.66444  23660069.3054                   23660069.0434
 -16708560.98048 -11133869.12546  21691307.4614                   21691308.3244
 -48292942.64147 -37576421.00045  21970921.4614                   21970917.0704
 -13249299.60547  -7134866.10245  21922679.5554                   21922678.7034
  23285712.16046  18172969.96943  25130935.7974                   25130935.5664
 11  8 23  2 28  0.0000000  0  9G12G26G29G05G15G25G02G30G21
 -29433247.98847 -21394882.59845  22071745.9774   22071744.4224
   7745472.88747   6725644.11344  22760588.2974                   22760587.5784
  -4931073.68047  -1811521.12545  21841809.6174                   21841807.6644
 -32715146.41848 -25450132.43446  20699246.5944                   20699244.1524
  14403475.81347  11257933.88344  23627139.5314                   23627138.8094
 -16758716.05948 -11172950.99246  21681762.8914                   21681764.2814
 -48327981.60547 -37603724.09445  21964253.5314                   21964249.3594
 -13288074.21147  -7165080.07845  21915301.3204                   21915300.2664
  23153110.42646  18069644.05143  25105701.9614                   25105702.0354
 11  8 23  2 28 30.0000000  0  9G12G26G29G05G15G25G02G30G21
 -29430693.43747 -21392892.04345  22072232.4694   22072230.6484
   7582049.77747   6598301.48844  22729490.0554                   22729488.8444
  -5083811.26247  -1930537.35245  21812744.6954                   21812742.7384
 -32742222.66448 -25471230.80946  20694094.5634                   20694092.1414
  14230444.77746  11123104.59444  23594212.3754                   23594211.8874
 -16808336.85548 -11211616.54746  21672320.4384                   21672320.9494
 -48362927.11347 -37630954.36745  21957603.7034                   21957599.8594
 -13326339.68447  -7194897.32445  21908019.4224                   21908018.7274
  23020524.51646  17966330.44943  25080471.4614                   25080471.8404
 11  8 23  2 29  0.0000000  0  9G12G26G29G05G15G25G02G30G21
 -29427829.92647 -21390660.76245  22072776.9694   22072775.3324
   7418886.39147   6471161.22744  22698441.0634                   22698440.3404
  -5236360.97347  -2049407.18045  21783715.5314                   21783713.5904
 -32768868.66848 -25491993.92646  20689023.5474                   20689021.1294
  14057437.10246  10988293.51644  23561290.3054                   23561289.2154
 -16857420.88348 -11249863.83646  21662979.9144                   21662980.4884
 -48397774.89547 -37658108.49645  21950971.9924                   21950967.9184
 -13364094.14547  -7224316.37545  21900835.1564                   21900834.3914
  22887958.05946  17863032.03943  25055243.8984                   25055245.0784
 11  8 23  2 29 30.0000000  0  9G12G26G29G05G15G25G02G30G21
 -29424663.01647 -21388193.03945  22073380.0084   22073378.2894
   7255983.82847   6344224.21544  22667441.5084                   22667440.6604
  -5388723.09447  -2168130.83645  21754721.7034                   21754719.6414
 -32795089.70748 -25512425.89846  20684033.5704                   20684031.4414
  13884452.89146  10853500.71144  23528371.9694                   23528371.7734
 -16905972.41448 -11287696.19146  21653741.2274                   21653741.5434
 -48432527.50447 -37685188.44545  21944358.9144                   21944355.1134
 -13401342.53147  -7253341.08245  21893746.6024                   21893745.8404
  22755407.81346  17759746.23843  25030021.3834                   25030021.6334
 11  8 23  2 30  0.0000000  0  9G12G26G29G05G15G25G02G30G21
 -29421194.42247 -21385490.25845  22074039.7814   22074038.7774
   7093346.78947   6217494.10944  22636492.5394                   22636492.0204
  -5540894.24647  -2286705.69545  21725764.4774                   21725762.5124
 -32820886.81248 -25532527.53546  20679125.0784                   20679122.2384
  13711495.83646  10718729.07843  23495459.4774                   23495458.8594
 -16953992.26248 -11325114.24246  21644603.2344                   21644603.9774
 -48467183.82447 -37712193.36745  21937763.8054                   21937759.9264
 -13438086.10547  -7281972.44145  21886754.6334                   21886753.7274
  22622874.15646  17656473.39543  25004800.4844                   25004801.3524
 11  8 23  2 30 30.0000000  0  9G12G26G29G05G15G25G02G30G21
 -29417431.08647 -21382557.82045  22074756.4224   22074755.1334
   6930975.11347   6090970.79744  22605594.0634                   22605593.6214
  -5692876.68747  -2405133.52045  21696843.2114                   21696841.1294
 -32846266.25848 -25552303.71546  20674295.2504                   20674292.9454
  13538565.66046  10583978.36343  23462552.5784                   23462551.5394
 -17001485.61348 -11362122.02745  21635564.8054                   21635566.1094
 -48501747.00047 -37739125.73045  21931187.1644                   21931182.7934
 -13474330.73047  -7310214.98445  21879857.3364                   21879856.7344
  22490352.99246  17553210.25443  24979582.9774                   24979582.6214
 11  8 23  2 31  0.0000000  0  9G12G26G29G05G15G25G02G30G21
 -29413373.01247 -21379395.69545  22075527.8444   22075526.8834
   6768875.40247   5964659.38344  22574747.4454                   22574747.2544
  -5844664.75447  -2523409.87945  21667958.6024                   21667957.0274
 -32871227.19148 -25571753.78946  20669545.3754                   20669543.3714
  13365667.67646  10449252.77043  23429650.4064                   23429649.7304
 -17048451.48848 -11398718.80545  21626627.9144                   21626628.3594
 -48536214.28947 -37765983.36345  21924627.6724                   21924623.9534
 -13510076.05547  -7338068.46145  21873055.6174                   21873054.2504
  22357845.92246  17449958.14843  24954367.3444                   24954367.1914
 11  8 23  2 31 30.0000000  0  9G12G26G29G05G15G25G02G30G21
 -29409025.09847 -21376007.75045  22076355.6024   22076353.9224
   6607049.63347   5838561.42644  22543953.0634                   22543952.5514
  -5996258.02347  -2641534.44145  21639111.4534                   21639109.9184
 -32895773.74248 -25590880.97346  20664874.2894                   20664872.1214
  13192803.44946  10314553.44543  23396754.7344                   23396754.7234
 -17094893.49248 -11434907.36746  21617790.3834                   21617790.9694
 -48570587.12947 -37792767.39545  21918087.3284                   21918082.7544
 -13545326.19147  -7365536.10245  21866347.6644                   21866346.6764
  22225351.02046  17346715.52042  24929154.2344                   24929153.4734
 11  8 23  2 32  0.0000000  0  9G12G26G29G05G15G25G02G30G21
 -27828972.67247 -20144798.07845  22377029.8984   22377028.1844
   8020924.57847   6940282.22344  22813004.6334                   22813004.0824
  -4572231.43047  -1531903.28145  21910094.7424                   21910093.0084
 -31344489.86748 -24382088.34046  20960074.0474                   20960071.8244
  14595399.03146  11407485.15644  23663660.5004                   23663659.9454
 -15565394.09848 -10243089.65245  21908844.5554                   21908845.4654
 -47029446.41847 -36591878.51245  22211356.5164                   22211352.1644
 -12004664.59447  -6165020.55145  22159525.9534
  22159524.6174   23668289.79746  18471083.54743  25203736.5554   25203736.4184
 11  8 23  2 32 30.0000000  0  9G12G26G29G05G15G25G02G30G21
 -27824056.48447 -20140967.30945  22377965.5234   22377963.2234
   7859654.92647   6814617.60944  22782315.8984                   22782315.0944
  -4723430.86347  -1649720.96545  21881322.2584                   21881320.4264
 -31368217.50048 -24400577.39846  20955558.7894                   20955556.2854
  14422607.93846  11272842.83244  23630779.5004                   23630778.4264
 -15610796.30148 -10278467.98446  21900204.6024                   21900205.1214
 -47063632.65647 -36618517.12545  22204850.7734                   22204846.9104
 -12038934.08247  -6191724.04745  22153004.7344
  22153003.2034   23535814.82046  18367856.40243  25178527.7034   25178526.8244
 11  8 23  2 33  0.0000000  0  9G12G26G29G05G15G25G02G30G21
 -27818860.60247 -20136918.60245  22378954.6094   22378952.6414
   7698669.17247   6689174.19544  22751681.7034                   22751680.6024
  -4874429.89147  -1767382.52045  21852587.8914                   21852586.1914
 -31391538.73048 -24418749.78546  20951120.9144                   20951118.0824
  14249858.02347  11138232.60944  23597905.8204                   23597905.1094
 -15655680.85948 -10313442.97346  21891663.2274                   21891664.0394
 -47097724.80947 -36645082.41045  22198363.6414                   22198359.3554
 -12072716.31647  -6218047.85945  22146576.4384
  22146575.1454   23403349.25846  18264636.57843  25153319.7814   25153319.8674
 11  8 23  2 33 30.0000000  0  9G12G26G29G05G15G25G02G30G21
 -27813387.11747 -20132653.57045  22379995.7274   22379993.9884
   7537971.56647   6563955.33244  22721102.0004                   22721100.7704
  -5025225.24247  -1884885.35545  21823892.9064                   21823891.0984
 -31414455.41048 -24436606.93446  20946759.8524                   20946757.1804
  14077153.22747  11003657.52744  23565041.3834                   23565040.3634
 -15700049.09448 -10348015.62946  21883220.5314                   21883220.8954
 -47131722.23047 -36671573.87945  22191894.3914                   22191889.9414
 -12106013.23847  -6243993.50445  22140239.6174
  22140238.7584   23270892.89545  18161423.97742  25128114.7504   25128114.4144
 11  8 23  2 34  0.0000000  0  9G12G26G29G05G15G25G02G30G21
 -27807639.18747 -20128174.71145  22381089.3984   22381087.4924
   7377565.81647   6438963.87544  22690577.8984                   22690576.3324
  -5175815.01647  -2002227.99645  21795236.3754                   21795235.2814
 -31436969.77047 -24454150.58646  20942475.5394                   20942473.1094
  13904496.40646  10869119.85244  23532185.6884                   23532185.4694
 -15743902.89848 -10382187.42645  21874875.4384                   21874876.2664
 -47165624.62147 -36697991.30145  22185442.7894                   22185438.4694
 -12138827.32847  -6269562.91845  22133995.6724
  22133994.2154   23138445.42645  18058218.29342  25102909.8594   25102911.5274
 11  8 23  2 34 30.0000000  0  9G12G26G29G05G15G25G02G30G21
 -27801620.07047 -20123484.52045  22382234.5164   22382233.3014
   7217455.38747   6314202.52744  22660109.4534                   22660108.0824
  -5326196.84847  -2119408.61745  21766620.0004                   21766618.1564
 -31459084.43047 -24471382.78546  20938267.5234                   20938264.7234
  13731890.25446  10734621.63344  23499339.8834                   23499339.1884
 -15787244.34448 -10415959.97745  21866627.6334                   21866628.4574
 -47199432.11347 -36724334.78145  22179008.7114                   22179004.8014
 -12171161.21147  -6294758.16045  22127842.6024
  22127841.7934   23006005.74645  17955018.62142  25077706.5864   25077709.1524
 11  8 23  2 35  0.0000000  0  9G12G26G29G05G15G25G02G30G21
 -27795331.88747 -20118584.64845  22383431.1644   22383429.7734
   7057644.85947   6189674.89544  22629699.2194                   22629697.3634
  -5476367.64847  -2236424.79745  21738043.1724                   21738041.5594
 -31480800.91848 -24488304.72346  20934134.8914                   20934132.4144
  13559338.70747  10600165.97744  23466504.2584                   23466503.4614
 -15830074.34448 -10449334.01246  21858477.1644                   21858477.8794
 -47233143.34847 -36750603.25045  22172594.0554                   22172590.5664
 -12203016.32447  -6319580.32045  22121780.4844
  22121780.0204   22873574.512 5                                  25052506.680
 11  8 23  2 35 30.0000000  0  9G12G26G29G05G15G25G02G30G21
 -27788779.52347 -20113478.93045  22384678.2974   22384676.8204
   6898136.00047   6065382.31344  22599345.2274                   22599343.5004
  -5626326.97747  -2353276.20745  21709506.2424                   21709505.1214
 -31502123.39847 -24504919.64546  20930077.3054                   20930074.7344
  13386842.85246  10465753.68443  23433679.5944                   23433678.2464
 -15872397.00848 -10482312.71546  21850423.6024                   21850424.5784
 -47266759.98047 -36776798.02045  22166196.9694                   22166192.8244
 -12234397.34847  -6344033.05945  22115808.8594
  22115807.9184   22741149.11715                                  25027306.773
 11  8 23  2 36  0.0000000  0  9G12G26G29G05G15G25G02G30G21
 -27781971.38347 -20108173.91445  22385973.5634   22385972.5904
   6738927.15247   5941323.49644  22569048.7974                   22569047.3204
  -5776077.91447  -2469965.22745  21681010.2814                   21681008.7424
 -31523059.84047 -24521233.75046  20926093.3364                   20926090.8954
  13214400.18446  10331382.84444  23400864.3524                   23400863.3164
 -15914219.31648 -10514901.53946  21842465.2344                   21842465.8404
 -47300287.07047 -36802923.00845  22159817.1644                   22159812.6764
 -12265311.73847  -6368122.19945  22109926.5004
  22109925.4344   22608724.000 5                                  25002107.281
 11  8 23  2 36 30.0000000  0  9G12G26G29G05G15G25G02G30G21
 -27774907.00047 -20102669.23045  22387318.3134   22387316.9654
   6580025.48047   5817504.05544  22538810.7734                   22538809.4614
  -5925614.80947  -2586487.46945  21652554.1024                   21652552.0824
 -31543608.93448 -24537246.03146  20922182.8364                   20922180.6334
  13042017.15246  10197058.46944  23368061.0004                   23368060.4064
 -15955539.80948 -10547099.34046  21834602.1024                   21834603.0274
 -47333720.85547 -36828975.28145  22153454.7114                   22153450.2704
 -12295758.66447  -6391847.07045  22104131.9144
  22104131.4614   22476301.578 6                                  24976908.984
 11  8 23  2 37  0.0000000  0  9G12G26G29G05G15G25G02G30G21
 -27767585.77047 -20096964.39545  22388711.2424   22388710.5004
   6421438.07447   5693929.48844  22508631.6884                   22508630.9224
  -6074931.75447  -2702838.30145  21624140.3754                   21624138.9494
 -31563769.43448 -24552955.51246  20918346.5864                   20918344.1484
  12869700.41047  10062785.74644  23335270.4064                   23335269.5164
 -15996357.09848 -10578905.03145  21826835.1174                   21826835.7234
 -47367057.99647 -36854952.27045  22147110.3054                   22147106.8984
 -12325737.27347  -6415207.03145  22098427.8524
  22098426.8404   22343884.72346  17900670.76253  24951710.4144   24951707.9414
 11  8 23  2 37 30.0000000  0  9G12G26G29G05G15G25G02G30G21
 -27760015.02047 -20091065.12945  22390152.2584   22390150.5594
   6263164.39547   5570599.40244  22478514.0004                   22478512.7734
  -6224030.32447  -2819018.97745  21595767.7584                   21595766.0394
 -31583547.96547 -24568367.35246  20914582.6254                   20914580.3674
  12697448.69546   9928563.69144  23302492.1254                   23302491.0394
 -16036677.31248 -10610323.38745  21819162.0864                   21819163.3134
 -47400302.08647 -36880856.73845  22140784.4064                   22140781.0474
 -12355254.23847  -6438207.27045  22092811.1174
  22092809.9654   22211468.86346  17797489.63342  24926511.4844   24926511.2344
 11  8 23  2 38  0.0000000  0  9G12G26G29G05G15G25G02G30G21
 -27752194.36347 -20084971.13745  22391639.9534   22391639.2194
   6105211.55147   5447519.30944  22448456.8834                   22448455.3164
  -6372905.23447  -2935025.39845  21567438.0004                   21567435.9264
 -31602943.69948 -24583480.92246  20910891.7894                   20910889.4454
  12525268.28946   9794397.19143  23269727.0164                   23269725.8874
 -16076499.12148 -10641353.38345  21811584.3594                   21811585.4384
 -47433449.69147 -36906686.04345  22134477.0084                   22134473.5354
 -12384308.75047  -6460847.16045  22087282.0084
  22087280.6524   22079057.01646  17694311.64543  24901314.4774   24901314.5594
 11  8 23  2 38 30.0000000  0  9G12G26G29G05G15G25G02G30G21
 -27744126.18047 -20078684.25445  22393176.1334   22393174.3874
   5947584.10247   5324692.76244  22418461.0234                   22418459.3244
  -6521552.94147  -3050854.75045  21539150.8754                   21539149.5084
 -31621957.89147 -24598297.16846  20907273.2974                   20907270.5864
  12353163.30947   9660289.48844  23236976.5234                   23236975.2424
 -16115823.52047 -10671995.77745  21804100.9304                   21804102.0204
 -47466499.32047 -36932438.98445  22128188.3524                   22128183.6844
 -12412902.34447  -6483127.88745  22081840.8914
  22081840.0474   21946649.35546  17591136.96942  24876118.2274   24876117.5124
 11  8 23  2 39  0.0000000  0  9G12G26G29G05G15G25G02G30G21
 -27735814.27047 -20072207.46945  22394757.9144   22394756.3014
   5790285.03547   5202122.09844  22388527.2344                   22388526.8134
  -6669972.04348  -3166505.96545  21510907.9064                   21510905.7854
 -31640593.87148 -24612818.72346  20903726.9844                   20903724.6954
  12181136.07847   9526242.33244  23204240.8984                   23204239.8674
 -16154653.34848 -10702252.80545  21796712.1484                   21796713.1724
 -47499451.71547 -36958116.16045  22121917.1954                   22121913.1054
 -12441038.40647  -6505052.11745  22076486.6254
  22076485.5164   21814244.52346  17487964.41843  24850921.8364   24850921.8054
 11  8 23  2 39 30.0000000  0  9G12G26G29G05G15G25G02G30G21
 -27727268.32847 -20065548.31245  22396383.9844   22396382.5164
   5633311.21147   5079804.87944  22358656.2194                   22358655.4964
  -6818167.25047  -3281982.71545  21482707.4064                   21482705.0594
 -31658860.97347 -24627052.82846  20900251.1724                   20900248.4144
  12009182.88347   9392252.87944  23171519.4384                   23171518.2664
 -16192997.47748 -10732131.36745  21789415.9694                   21789416.4264
 -47532313.04347 -36983722.38345  22115663.7974                   22115659.8794
 -12468726.28147  -6526627.10945  22071217.7664
  22071216.4384   21681835.49646  17384788.63743  24825725.4694   24825724.6994
 11  8 23  2 40  0.0000000  0  9G12G26G29G05G15G25G02G30G21
 -27718482.96147 -20058702.58645  22398055.5164   22398054.5824
   5476674.12947   4957750.05944  22328848.7584                   22328848.4224
  -6966127.62147  -3397276.48445  21454550.9844                   21454549.1294
 -31676753.11347 -24640994.76246  20896846.4144                   20896843.9384
  11837314.80147   9258329.75844  23138813.3524                   23138812.2704
 -16230850.00848 -10761626.85946  21782212.6334                   21782213.4884
 -47565075.35247 -37009251.43445  22109430.3594                   22109425.8324
 -12495960.60947  -6547848.69945  22066035.0784
  22066033.8524   21549429.38746  17281615.15243  24800529.9924   24800528.6174
 11  8 23  2 40 30.0000000  0  9G12G26G29G05G15G25G02G30G21
 -27709464.70347 -20051675.40645  22399771.0944   22399770.3714
   5320374.64847   4835958.31344  22299106.5314                   22299105.7624
  -7113853.77747  -3512387.74246  21426439.8444                   21426437.9454
 -31694275.84447 -24654648.85246  20893511.6884                   20893509.5664
  11665532.01247   9124473.09844  23106124.3524                   23106123.5634
 -16268215.93048 -10790743.18446  21775101.8524                   21775102.8754
 -47597741.07447 -37034705.24245  22103213.7664                   22103209.3444
 -12522746.91847  -6568721.17245  22060937.9924
  22060937.1804   21417022.68447  17178441.21543  24775333.7274   24775331.9454
 11  8 23  2 41  0.0000000  0  9G12G26G29G05G15G25G02G30G21
 -27700214.81647 -20044467.72745  22401531.7194   22401530.1294
   5164418.12147   4714433.78144  22269428.8984                   22269428.0354
  -7261341.89547  -3627313.51246  21398373.7664                   21398372.0704
 -31711430.12947 -24668015.83246  20890247.4534                   20890245.0434
  11493838.99646   8990686.37544  23073452.1024                   23073450.8714
 -16305095.76248 -10819480.73846  21768084.0704                   21768085.0664
 -47630308.52047 -37060082.45345  22097016.2194                   22097011.9574
 -12549086.19947  -6589245.30945  22055925.9774
  22055924.7274   21284616.61346  17075267.76643  24750136.3204   24750135.9264
 11  8 23  2 41 30.0000000  0  9G12G26G29G05G15G25G02G30G21
 -27690736.09847 -20037081.70745  22403335.2034   22403333.1414
   5008808.35947   4593179.44944  22239817.5474                   22239816.1804
  -7408589.57047  -3742051.94945  21370353.3754                   21370351.4144
 -31728217.78148 -24681097.12946  20887053.0394                   20887050.7814
  11322238.99646   8856972.16844  23040798.0394                   23040797.2074
 -16341491.34048 -10847840.95745  21761158.3914                   21761158.8524
 -47662776.60247 -37085382.24245  22090837.3834                   22090833.0664
 -12574980.79747  -6609422.94945  22050998.2814
  22050996.8404   21152211.04746  16972094.72343  24724940.7034   24724940.3794
 11  8 23  2 42  0.0000000  0  9G12G26G29G05G15G25G02G30G21
 -26105610.57447 -18801918.99645  22704975.4454   22704972.9964
   6428975.52347   5699803.23844  22510066.1484                   22510065.4344
  -5980167.65247  -2628995.87946  21642173.0944                   21642171.2774
 -30169219.50048 -23466293.26646  21183720.4064                   21183718.2384
  12726162.21546   9950938.36344  23307955.8914                   23307954.0044
 -14801982.30948  -9648223.54745  22054116.8984                   22054117.9964
 -46119722.89547 -35883002.69945  22384470.6414                   22384466.2544
 -11025011.22347  -5401654.48045  22345947.9924
  22345947.0314   22595231.17646  18096526.10943  24999537.9774   24999537.2854
 11  8 23  2 42 30.0000000  0  9G12G26G29G05G15G25G02G30G21
 -26095682.24647 -18794182.64845  22706864.7664   22706862.4264
   6274071.25847   5579098.66044  22480588.4534                   22480587.9024
  -6126925.59448  -2743352.68445  21614246.1334                   21614243.6994
 -30185280.19948 -23478808.08646  21180664.2114                   21180661.9574
  12554758.97747   9817377.45744  23275338.4144                   23275337.2154
 -14837414.81247  -9675833.29345  22047374.2194                   22047375.1684
 -46151990.28547 -35908146.11345  22378330.5554                   22378326.5554
 -11050023.46147  -5421144.55544  22341187.8524                   22341187.1844
  22462825.98846  17993353.35243  24974342.3674   24974341.7584
 11  8 23  2 43  0.0000000  0  9G12G26G29G05G15G25G02G30G21
 -26085536.42647 -18786276.84445  22708795.0474   22708793.5944
   6119522.33647   5458670.95744  22451179.8594                   22451178.3404
  -6273438.34047  -2857518.44945  21586365.1644                   21586363.0124
 -30200984.15248 -23491044.94146  21177675.8204                   21177673.7774
  12383455.53946   9683894.30544  23242740.2734                   23242739.1684
 -14872371.94148  -9703072.62945  22040722.3754                   22040722.5744
 -46184160.05547 -35933213.44545  22372208.8364                   22372204.6134
 -11074601.44547  -5440296.24645  22336511.0234                   22336510.4494
  22330417.25046  17890177.81643  24949146.2424   24949145.0704
 11  8 23  2 43 30.0000000  0  9G12G26G29G05G15G25G02G30G21
 -26075175.85247 -18778203.70745  22710766.6484   22710765.2384
   5965332.77347   5338523.28944  22421837.6804                   22421836.3444
  -6419702.93447  -2971490.83246  21558532.1024                   21558529.9224
 -30216333.27748 -23503005.28546  21174754.9774                   21174752.9804
  12212255.63347   9550491.84444  23210162.3134                   23210160.7894
 -14906855.71548  -9729943.09845  22034160.1484                   22034161.2894
 -46216231.64847 -35958204.30145  22366106.1484                   22366101.6094
 -11098747.66447  -5459111.50045  22331915.5314                   22331915.6254
  22198004.66046  17786999.27343  24923948.1024   24923948.1454
 11  8 23  2 44  0.0000000  0  9G12G26G29G05G15G25G02G30G21
 -26064606.00047 -18769967.48045  22712778.2584   22712776.7194
   5811503.78547   5218656.57044  22392565.0474                   22392564.0314
  -6565719.34047  -3085269.81645  21530746.1094                   21530744.0984
 -30231332.30948 -23514692.82046  21171900.6174                   21171898.5984
  12041159.79747   9417170.49244  23177603.0864                   23177602.4924
 -14940870.53148  -9756448.15245  22027687.4534                   22027688.3554
 -46248206.98047 -35983120.12545  22360021.4844                   22360017.3524
 -11122466.87547  -5477594.00845  22327402.5944                   22327401.8984
  22065585.57046  17683815.70743  24898750.0784   24898749.6564
 11  8 23  2 44 30.0000000  0  9G12G26G29G05G15G25G02G30G21
 -26053828.65647 -18761569.57045  22714828.6334   22714827.3524
   5658040.58647   5099074.92244  22363362.0004                   22363360.7734
  -6711483.87947  -3198852.54745  21503007.9064                   21503006.0434
 -30245982.17248 -23526108.29346  21169113.1564                   21169110.9184
  11870172.88346   9283934.00044  23145065.1644                   23145064.7544
 -14974417.14547  -9782588.37545  22021303.5704                   22021304.3954
 -46280083.99647 -36007959.34845  22353955.0164                   22353951.1094
 -11145760.59847  -5495744.97345  22322970.2114                   22322969.3484
  21933160.68446  17580627.60543  24873551.4534   24873549.8594
 11  8 23  2 45  0.0000000  0  9G12G26G29G05G15G25G02G30G21
 -26042843.81247 -18753009.96145  22716919.4614   22716918.1884
   5504949.13347   4979782.93044  22334229.6414                   22334228.3524
  -6856991.22347  -3312234.86745  21475318.5864                   21475316.9144
 -30260282.85548 -23537251.68046  21166391.3984                   21166389.3674
  11699300.23047   9150786.55944  23112549.4844                   23112548.7154
 -15007495.28548  -9808363.55145  22015009.5314                   22015010.0514
 -46311859.57847 -36032719.53545  22347908.0234                   22347904.5164
 -11168628.76247  -5513564.33645  22318618.4224                   22318617.2624
  21800732.23846  17477436.73843  24848350.1174   24848349.1914
 11  8 23  2 45 30.0000000  0  9G12G26G29G05G15G25G02G30G21
 -26031658.98447 -18744294.53145  22719047.8364   22719046.8054
   5352229.27047   4860780.47744  22305168.1954                   22305166.7344
  -7002243.25047  -3425418.22746  21447677.9694                   21447676.5904
 -30274240.89548 -23548128.07046  21163735.6884                   21163733.5664
  11528541.00447   9017727.47344  23080055.6024                   23080054.0824
 -15040111.23048  -9833778.58245  22008802.9224                   22008803.5044
 -46343537.70747 -36057403.78945  22341879.9614                   22341876.6054
 -11191078.26247  -5531057.50045  22314346.5314                   22314345.2194
  21668295.64146  17374239.50043  24823148.0784   24823147.2814
 11  8 23  2 46  0.0000000  0  9G12G26G29G05G15G25G02G30G21
 -26020277.76247 -18735426.09045  22721212.9304   22721212.9104
   5199883.58247   4742069.57844  22276177.6094                   22276176.1094
  -7147238.55547  -3538401.55546  21420086.2734                   21420084.4414
 -30287859.37548 -23558739.87546  21161144.2584                   21161141.8634
  11357897.67247   8884758.71144  23047582.8524                   23047581.5864
 -15072268.33248  -9858836.06245  22002683.5864                   22002684.0394
 -46375119.01247 -36082012.58245  22335870.4224                   22335866.8134
 -11213112.90247  -5548227.36745  22310153.9614                   22310152.0124
  21535849.19146  17271034.62143  24797944.5864   24797943.6214
 11  8 23  2 46 30.0000000  0  9G12G26G29G05G15G25G02G30G21
 -26008699.22347 -18726403.87545  22723417.0234   22723415.5274
   5047919.90247   4623656.34844  22247259.8674                   22247258.4024
  -7291970.34447  -3651179.53946  21392545.0314                   21392542.9694
 -30301136.56248 -23569085.74246  21158617.7974                   21158615.2814
  11187377.21547   8751885.67244  23015134.2034                   23015132.6844
 -15103964.47748  -9883534.36745  21996652.0634                   21996652.3054
 -46406598.70347 -36106542.19945  22329880.2194                   22329876.1524
 -11234731.01647  -5565072.67245  22306040.1884                   22306038.6454
  21403397.14546  17167825.33242  24772739.7344   24772738.6214
 11  8 23  2 47  0.0000000  0  9G12G26G29G05G15G25G02G30G21
 -25996930.50847 -18717233.45345  22725656.0004   22725655.0554
   4896337.82447   4505540.46944  22218414.4384                   22218413.5824
  -7436440.24647  -3763753.44946  21365053.1644                   21365051.2624
 -30314079.14148 -23579170.85946  21156154.7114                   21156152.1914
  11016978.96147   8619107.87944  22982708.2664                   22982706.9924
 -15135206.13348  -9907878.52045  21990707.0164                   21990707.5234
 -46437980.55147 -36130995.57045  22323907.8914                   22323904.2304
 -11255939.57447  -5581598.84845  22302004.0864                   22302002.8984
  21270934.67646  17064608.00043  24747531.9304   24747532.3984
 11  8 23  2 47 30.0000000  0  9G12G26G29G05G15G25G02G30G21
 -25984970.53947 -18707914.02044  22727932.2894   22727930.8984
   4745144.59847   4387727.60244  22189643.1334                   22189642.3634
  -7580641.96548  -3876118.39146  21337612.7274                   21337610.5204
 -30326685.29748 -23588993.82446  21153755.6484                   21153753.4574
  10846709.79347   8486430.67644  22950306.5234                   22950305.8594
 -15165991.78148  -9931867.34045  21984848.0864                   21984848.8594
 -46469260.19947 -36155369.30545  22317956.3204                   22317951.5474
 -11276737.50047  -5597805.05545  22298046.7734                   22298044.9574
  21138465.26246  16961385.19543  24722323.9924   24722324.1604
 11  8 23  2 48  0.0000000  0  9G12G26G29G05G15G25G02G30G21
 -25972825.09447 -18698450.07044  22730243.0704   22730242.3914
   4594341.44547   4270218.69144  22160947.0084                   22160945.1644
  -7724575.75848  -3988274.55146  21310223.0234                   21310221.1094
 -30338960.26648 -23598558.73846  21151419.9304                   21151417.6604
  10676569.96547   8353854.22344  22917930.7114                   22917929.0354
 -15196326.32047  -9955504.64545  21979075.8364                   21979076.2814
 -46500440.05947 -36179665.30545  22312022.3984                   22312018.2504
 -11297130.10947  -5613695.41845  22294165.7274                   22294164.4414
  21005985.74646  16858154.49642  24697112.7424   24697114.1764
 11  8 23  2 48 30.0000000  0 10G18G12G26G29G05G15G25G02G30G21
  26582036.02356  20782385.47353  24613669.0314                   24613669.9024
 -25960495.84447 -18688842.89845  22732589.9844   22732588.4574
   4443933.29347   4153017.57444  22132324.7894                   22132323.5084
  -7868237.84848  -4100219.00046  21282885.1484                   21282883.5664
 -30350905.06248 -23607866.36746  21149146.8984                   21149144.7424
  10506564.59447   8221382.55944  22885579.5394                   22885578.1134
 -15226210.70347  -9978791.18045  21973388.6724                   21973389.8754
 -46531518.01247 -36203881.86745  22306108.1254                   22306104.4494
 -11317118.80547  -5629271.03545  22290361.8754                   22290360.9614
  20873497.01646  16754916.63742  24671901.7344   24671901.8054
 11  8 23  2 49  0.0000000  0 10G18G12G26G29G05G15G25G02G30G21
  26416391.48446  20653312.02343  24582147.6644                   24582149.2114
 -25947990.92247 -18679098.82845  22734969.5704   22734968.3324
   4293918.50847   4036122.96144  22103777.5864                   22103776.8984
  -8011630.69548  -4211953.63746  21255598.3204                   21255595.9384
 -30362527.30948 -23616922.65646  21146934.9384                   21146932.5354
  10336691.43447   8089013.92644  22853253.7974                   22853252.1914
 -15255652.41447 -10001732.77345  21967786.2424                   21967787.5274
 -46562498.80547 -36228022.73845  22300213.1414                   22300209.2854
 -11336711.59847  -5644538.16044  22286632.8984                   22286632.4924
  20740993.57846  16651667.30143  24646687.7034   24646686.9384
 11  8 23  2 49 30.0000000  0 10G18G12G26G29G05G15G25G02G30G21
  26250919.77746  20524373.23043  24550658.6724                   24550661.0044
 -25935309.59447 -18669217.29345  22737382.1644   22737381.3364
   4144304.31647   3919540.55144  22075307.2194                   22075305.5234
  -8154748.58648  -4323474.02746  21228363.8364                   21228361.4184
 -30373825.70748 -23625726.60246  21144785.0394                   21144782.9224
  10166957.10947   7956753.45744  22820954.0234                   22820953.2544
 -15284650.29748 -10024328.52745  21962268.6254                   21962269.0234
 -46593378.58647 -36252084.90644  22294336.7894                   22294333.0004
 -11355907.69547  -5659496.16044  22282980.2974                   22282979.7234
  20608478.50846  16548408.86343  24621470.3204   24621470.1994
 11  8 23  2 50  0.0000000  0 10G18G12G26G29G05G15G25G02G30G21
  26085620.14146  20395568.52743  24519202.7734                   24519205.2384
 -25922457.37947 -18659202.62144  22739828.1174   22739826.8014
   3995092.08647   3803271.32844  22046912.9304                   22046911.8954
  -8297591.02348  -4434779.77746  21201181.7114                   21201179.7774
 -30384805.10948 -23634281.96946  21142695.6484                   21142693.4654
   9997362.48447   7824601.85944  22788681.5394                   22788680.2894
 -15313208.98448 -10046582.04345  21956833.9844                   21956834.8984
 -46624159.18447 -36276069.78144  22288479.7664                   22288475.6174
 -11374712.13347  -5674148.98844  22279402.1254                   22279400.6954
  20475949.04346  16445139.27743  24596250.7114   24596250.5234
 11  8 23  2 50 30.0000000  0 10G18G12G26G29G05G15G25G02G30G21
  25920497.72346  20266901.96143  24487781.7034                   24487782.5044
 -25909433.78147 -18649054.40244  22742307.1884   22742305.2274
   3846288.69547   3687320.68444  22018596.3054                   22018594.9384
  -8440152.32848  -4545866.46946  21174053.2814                   21174050.8524
 -30395464.31248 -23642587.82846  21140667.7114                   21140665.2734
   9827914.34847   7692564.40244  22756436.0784                   22756435.2114
 -15341327.40647 -10068492.49245  21951483.0234                   21951484.1134
 -46654836.70746 -36299974.34044  22282641.4224                   22282637.4774
 -11393124.30947  -5688496.14844  22275898.2194                   22275897.3954
  20343408.34846  16341860.92243  24571028.6254   24571028.7234
 11  8 23  2 51  0.0000000  0 10G18G12G26G29G05G15G25G02G30G21
  25755555.19946  20138375.53943  24456393.7274                   24456393.9144
 -25896240.59047 -18638774.03945  22744817.8284   22744815.8754
   3697899.04747   3571692.44945  21990359.5784                   21990357.8014
  -8582428.85548  -4656731.25046  21146978.7344                   21146976.7934
 -30405804.30548 -23650644.94946  21138699.8914                   21138697.5474
   9658616.90646   7560644.35944  22724220.1804                   22724219.1214
 -15369006.84048 -10090060.88345  21946215.6954                   21946216.6414
 -46685409.89547 -36323797.60944  22276824.2194                   22276819.8954
 -11411145.99647  -5702539.03944  22272469.2194                   22272468.0824
  20210856.89846  16238574.18042  24545805.8674   24545804.7504
 11  8 23  2 51 30.0000000  0 10G18G12G26G29G05G15G25G02G30G21
  25590789.98046  20009987.28943  24425040.6564                   24425039.7734
 -25882884.36347 -18628366.63344  22747359.4224   22747357.1094
   3549922.74647   3456386.29745  21962200.2814                   21962199.1764
  -8724421.90248  -4767375.13346  21119958.1724                   21119955.9614
 -30415831.36748 -23658458.23846  21136791.4844                   21136789.5044
   9489469.47747   7428841.22344  22692032.8284                   22692031.1604
 -15396253.37547 -10111291.94545  21941031.2114                   21941031.8134
 -46715881.27347 -36347541.53144  22271025.2504                   22271021.5004
 -11428783.60547  -5716282.64544  22269113.2034                   22269111.4694
  20078290.66046  16135275.89843  24520578.3914   24520577.9304
 11  8 23  2 52  0.0000000  0 10G18G12G26G29G05G15G25G02G30G21
  25426206.02046  19881740.22343  24393719.8914                   24393720.7584
 -25869365.27347 -18617832.31644  22749931.2814   22749929.9694
   3402366.57047   3341407.50445  21934120.9694                   21934119.4804
  -8866125.92247  -4877793.79746  21092992.5084                   21092990.7424
 -30425545.37148 -23666027.57846  21134943.0474                   21134940.6454
   9320478.82047   7297160.26244  22659874.4844                   22659873.0784
 -15423066.57047 -10132185.33245  21935928.4694                   21935929.8554
 -46746247.80147 -36371203.76244  22265247.5704                   22265242.6804
 -11446037.16047  -5729726.98444  22265829.6564                   22265828.5784
  19945712.46546  16031968.32842  24495349.4534   24495348.8984
 11  8 23  2 52 30.0000000  0 10G18G12G26G29G05G15G25G02G30G21
  26837227.28546  20981237.48042  24662228.2194                   24662229.1414
 -24280269.75447 -17379576.10944  23052326.6094   23052324.5314
   4830656.12147   4454360.46144  22205915.4774                   22205914.1294
  -7432116.76647  -3760384.02346  21365875.7504                   21365873.4144
 -28859530.90648 -22445756.55546  21432946.0084                   21432943.3094
  10727070.46146   8393205.73044  22927539.8914                   22927538.3674
 -13874030.78547  -8925144.45345  22230699.6804                   22230701.0594
 -45201090.68447 -35167185.22345  22559280.1254                   22559276.2504
  -9887491.82047  -4515276.09045  22562410.8914   22562409.9804   21388542.90246
  17156251.86742                  24769911.3444   24769910.1994
 11  8 23  2 53  0.0000000  0 10G18G12G26G29G05G15G25G02G30G21
  26673006.43845  20853273.46142  24630976.7734                   24630980.0594
 -24266437.97747 -17368798.12544  23054958.4454   23054956.8674
   4683946.85947   4340041.62545  22177997.5314                   22177996.4224
  -7573239.31648  -3870349.60246  21339021.0314                   21339018.8634
 -28868629.17248 -22452846.10546  21431214.0634                   21431212.3594
  10558398.27746   8261772.94144  22895442.6954                   22895441.2734
 -13899988.39147  -8945371.16045  22225760.8054                   22225761.3524
 -45231249.70347 -35190685.77345  22553540.8674                   22553537.0824
  -9903989.54347  -4528131.48044  22559271.9534   22559270.3484   21255934.87546
  17052921.07043                  24744677.0864   24744675.3094
 11  8 23  2 53 30.0000000  0 10G18G12G26G29G05G15G25G02G30G21
  26508971.50445  20725454.27042  24599762.3204                   24599765.8524
 -24252451.86347 -17357899.88344  23057620.3054   23057618.3054
   4537668.66847   4226058.66845  22150161.5944                   22150160.1484
  -7714065.00447  -3980083.86346  21312222.4694                   21312220.3134
 -28877420.80948 -22459696.71946  21429541.3204                   21429539.1644
  10389892.45347   8130469.77044  22863376.8284                   22863375.4454
 -13925519.48848  -8965265.52345  22220902.4694                   22220903.2464
 -45261302.02347 -35214103.18745  22547822.4694                   22547818.7424
  -9920111.30547  -4540693.87944  22556203.8754   22556202.6804   21123314.05946
  16949580.27343                  24719440.4614   24719438.4304
 11  8 23  2 54  0.0000000  0 10G18G12G26G29G05G15G25G02G30G21
  26345126.00045  20597782.59442  24568583.9534                   24568586.7664
 -24238312.53147 -17346882.24244  23060310.4534   23060309.1804
   4391826.94147   4112415.83645  22122408.8134                   22122407.7704
  -7854589.77347  -4089583.63346  21285481.8054                   21285479.6764
 -28885906.14148 -22466308.66046  21427926.5554                   21427924.5634
  10221558.17247   7999300.27044  22831343.8674                   22831342.7344
 -13950624.73447  -8984828.04345  22216124.9774                   22216125.4414
 -45291245.34447 -35237435.65245  22542124.7504                   22542121.4534
  -9935858.15247  -4552964.16445  22553207.1094   22553206.6254   20990681.81346
  16846230.57043                  24694201.4454   24694199.4614
 11  8 23  2 54 30.0000000  0 10G18G12G26G29G05G15G25G02G30G21
  26181466.89546  20470256.23042  24537441.3444                   24537442.9024
 -24224027.21547 -17335750.87544  23063028.9304   23063028.0864
   4246420.83647   3999112.43444  22094738.6804                   22094737.0784
  -7994815.24247  -4198850.19146  21258797.4924                   21258795.1954
 -28894091.83648 -22472687.09846  21426368.9534                   21426366.5944
  10053394.21147   7868263.48045  22799343.6724                   22799342.1414
 -13975310.95748  -9004064.07045  22211427.6254                   22211427.4454
 -45321083.55947 -35260686.23045  22536446.9384                   22536443.4964
  -9951237.21947  -4564947.85544  22550279.8594   22550279.9614   20858033.12947
  16742868.08243                  24668958.6254   24668957.5664
 11  8 23  2 55  0.0000000  0 10G18G12G26G29G05G15G25G02G30G21
  26017992.44046  20342873.84842  24506332.7584                   24506334.0204
 -24209601.73846 -17324510.25844  23065773.8754   23065773.3674
   4101451.27347   3886149.19945  22067152.2664                   22067150.7854
  -8134741.39147  -4307883.51646  21232170.4454                   21232168.3444
 -28901983.11348 -22478836.13346  21424867.3594                   21424865.1414
   9885401.37547   7737360.04344  22767375.5864                   22767373.9844
 -13999583.21548  -9022977.53545  22206808.4844                   22206808.8054
 -45350818.33247 -35283856.19945  22530787.9534                   22530784.8164
  -9966254.01647  -4576649.24644  22547422.8834   22547422.1564   20725365.14846
  16639490.53143                  24643712.2584   24643711.5164
 11  8 23  2 55 30.0000000  0 10G18G12G26G29G05G15G25G02G30G21
  25854707.66046  20215639.06342  24475259.9694                   24475261.7584
 -24195035.44947 -17313159.93044  23068545.6414   23068544.8164
   3956925.12947   3773531.48045  22039649.6254                   22039648.6374
  -8274362.46147  -4416679.11346  21205601.3054                   21205599.2974
 -28909579.14848 -22484755.10246  21423421.4694                   21423419.3594
   9717586.07047   7606594.93445  22735441.2114                   22735439.8984
 -14023440.75447  -9041567.82845  22202268.6174                   22202269.4844
 -45380446.03147 -35306942.71545  22525150.4064                   22525146.8524
  -9980908.13347  -4588068.05144  22544634.0164   22544633.7114   20592680.89146
  16536100.29743                  24618463.8834   24618462.4264
 11  8 23  2 56  0.0000000  0 10G18G12G26G29G05G15G25G02G30G21
  25691612.30546  20088551.99642  24444223.7894                   24444225.9694
 -24180332.78147 -17301703.32044  23071344.2114   23071341.9654
   3812844.55947   3661260.97745  22012232.1644                   22012230.6684
  -8413677.00047  -4525235.85546  21179090.8444                   21179088.6564
 -28916883.57448 -22490446.84446  21422031.6094                   21422029.7544
   9549950.13747   7475969.58245  22703541.7664                   22703539.5744
 -14046887.47348  -9059838.00845  22197807.2584                   22197807.7704
 -45409967.75047 -35329946.65245  22519532.8284                   22519528.9804
  -9995204.00047  -4599207.66844  22541913.6724   22541913.2544   20459978.71146
  16432696.10543                  24593210.7894   24593209.7114
 11  8 23  2 56 30.0000000  0 10G18G12G26G29G05G15G25G02G30G21
  25528706.88346  19961612.97742  24413223.6254                   24413225.2664
 -24165497.59847 -17290143.44944  23074167.5234   23074165.4104
   3669212.17647   3549339.69545  21984900.1094                   21984898.7114
  -8552684.25447  -4633553.15646  21152638.2034                   21152636.4454
 -28923899.47748 -22495913.77046  21420696.8594                   21420694.3284
   9382495.77747   7345485.69945  22671675.9844                   22671674.4454
 -14069926.85547  -9077790.77345  22193422.1724                   22193423.8094
 -45439383.57447 -35352868.10545  22513934.7894                   22513931.0234
 -10009145.30147  -4610071.03144  22539260.8054   22539260.0704   20327257.13346
  16329276.77342                  24567955.3594   24567953.4844
 11  8 23  2 57  0.0000000  0 10G18G12G26G29G05G15G25G02G30G21
  25365992.54746  19834822.78543  24382260.6724                   24382260.6954
 -24150533.26247 -17278482.95344  23077014.6724   23077013.9264
   3526031.05947   3437770.05545  21957652.9924                   21957651.5124
  -8691381.61347  -4741628.98846  21126245.3364                   21126243.1564
 -28930629.41448 -22501157.86346  21419416.3984                   21419413.5354
   9215226.14147   7215145.77345  22639844.6414                   22639843.9384
 -14092561.55147  -9095428.20745  22189114.9064                   22189116.4574
 -45468693.44947 -35375706.98444  22508356.8054                   22508353.2664
 -10022735.14847  -4620660.53544  22536675.2344   22536673.7734   20194515.63346
  16225841.97343                  24542695.0634   24542693.2934
 11  8 23  2 57 30.0000000  0 10G18G12G26G29G05G15G25G02G30G21
  25203471.32846  19708183.05543  24351333.9454                   24351333.6604
 -24135441.41847 -17266723.10944  23079886.6334   23079885.6524
   3383305.69547   3326555.52745  21930493.5474                   21930491.6564
  -8829765.35947  -4849460.46146  21099911.5944                   21099909.4184
 -28937074.89848 -22506180.29346  21418189.4534                   21418187.1724
   9048145.37147   7084953.00045  22608050.0864                   22608049.2464
 -14114793.13747  -9112751.52045  22184884.5084                   22184885.6914
 -45497895.92647 -35398462.16445  22502800.9534                   22502796.1174
 -10035975.43047  -4630977.66844  22534155.6644   22534153.5634   20061754.90246
  16122392.19543                  24517431.1024   24517429.1484
 11  8 23  2 58  0.0000000  0 10G18G12G26G29G05G15G25G02G30G21
  25041144.92646  19581695.12543  24320443.0784                   24320444.4844
 -24120224.59047 -17254865.90244  23082782.6644   23082780.7034
   3241039.93447   3215699.14545  21903420.6254                   21903419.6484
  -8967832.80147  -4957045.45746  21073638.1254                   21073636.3954
 -28943237.90248 -22510982.62946  21417016.7114                   21417014.0474
   8881257.44547   6954910.50845  22576293.0084                   22576291.5904
 -14136623.76647  -9129762.40645  22180730.7034                   22180731.7934
 -45526989.57447 -35421132.53544  22497264.2814                   22497259.8204
 -10048868.71147  -4641024.39544  22531701.8914   22531700.7894   19928975.23846
  16018927.66443                  24492164.8364   24492162.7194
 11  8 23  2 58 30.0000000  0 10G18G12G26G29G05G15G25G02G30G21
  24879016.68446  19455361.65643  24289591.0314                   24289591.6954
 -24104884.16847 -17242912.34044  23085701.6564   23085700.4144
   3099239.09447   3105205.03945  21876437.0634                   21876435.4734
  -9105579.64847  -5064380.62546  21047425.8674                   21047424.1054
 -28949119.43048 -22515565.62546  21415897.4614                   21415894.7584
   8714567.15647   6825022.02044  22544572.7974                   22544571.8984
 -14158054.25047  -9146461.49245  22176652.6724                   22176653.3874
 -45555972.35947 -35443716.53545  22491749.3444                   22491744.8054
 -10061416.15247  -4650801.64844  22529314.5234   22529312.6604   19796178.00846
  15915449.42243                  24466893.5164   24466891.6134
 11  8 23  2 59  0.0000000  0 10G18G12G26G29G05G15G25G02G30G21
  24717083.63746  19329180.23043  24258776.0394                   24258776.5394
 -24089427.08647 -17230867.89844  23088642.9384   23088641.7384
   2957902.35247   2995072.56645  21849541.5004                   21849540.0744
  -9243007.42247  -5171467.18746  21021274.3754                   21021272.2664
 -28954725.32448 -22519933.84446  21414830.8834                   21414828.5124
   8548073.41047   6695286.66844  22512889.8444                   22512888.6764
 -14179091.41047  -9162854.11745  22172649.6254                   22172650.5234
 -45584848.03947 -35466217.06645  22486254.3834                   22486250.4804
 -10073624.90647  -4660314.99644  22526990.7274   22526989.2774   19663358.46946
  15811953.78942                  24441618.1884   24441616.8324
 11  8 23  2 59 30.0000000  0 10G18G12G26G29G05G15G25G02G30G21
  24555350.31646  19203154.43443  24228000.0864                   24227999.5704
 -24073853.37547 -17218732.58644  23091606.8984   23091605.6724
   2817036.33247   2885306.88745  21822735.5944                   21822734.5044
  -9380110.94947  -5278301.09446  20995184.2114                   20995182.2344
 -28960055.24648 -22524087.01646  21413816.6024                   21413813.7544
   8381782.58647   6565709.44545  22481245.5944                   22481244.5314
 -14199734.83247  -9178939.92245  22168720.8914                   22168721.7074
 -45613613.04747 -35488631.36744  22480780.5164                   22480776.2074
 -10085494.91047  -4669564.38345  22524732.4924   22524731.5314   19530518.84446
  15708442.49243                  24416339.6174   24416338.7894
 11  8 23  3  0  0.0000000  0 10G18G12G26G29G05G15G25G02G30G21
  24393814.71546  19077282.72343  24197259.7344                   24197259.8094
 -24058168.63746 -17206510.74644  23094591.5164   23094590.3324
   2676641.32447   2775908.21945  21796019.3914                   21796017.8634
  -9516890.20347  -5384882.32046  20969156.2504                   20969153.9614
 -28965114.24248 -22528029.07446  21412853.5164                   21412851.4104
   8215695.02047   6436290.60544  22449640.1484                   22449638.8754
 -14219989.82847  -9194723.07045  22164866.6174                   22164867.7504
 -45642269.54747 -35510961.13345  22475327.6334                   22475323.5864
 -10097031.87947  -4678554.23844  22522536.4694   22522535.8324   19397656.75046
  15604913.69143                  24391056.5164   24391055.6454
 11  8 23  3  0 30.0000000  0 10G18G12G26G29G05G15G25G02G30G21
  24232476.92646  18951565.11342  24166559.1804                   24166558.3984
 -24042377.31246 -17194205.87144  23097595.5554   23097595.0904
   2536719.64547   2666878.38345  21769393.0944                   21769392.3204
  -9653344.13347  -5491210.05146  20943189.8674                   20943187.4844
 -28969905.72748 -22531762.68445  21411942.1254                   21411939.6684
   8049812.96147   6307031.89844  22418073.9844                   22418072.9344
 -14239860.36347  -9210206.62545  22161085.0634                   22161085.8754
 -45670818.02747 -35533206.71944  22469894.5314                   22469890.4734
 -10108240.03947  -4687287.87944  22520403.4844   22520403.3284   19264770.59046
  15501366.15643                  24365769.7194   24365768.2424
 11  8 23  3  1  0.0000000  0 10G18G12G26G29G05G15G25G02G30G21
  24071341.25046  18826004.96942  24135894.7344                   24135895.3364
 -24026479.27746 -17181817.84044  23100620.5944   23100619.8634
   2397277.74647   2558222.39545  21742858.2274                   21742856.5554
  -9789467.07047  -5597279.85946  20917286.7894                   20917284.3714
 -28974429.12548 -22535287.39146  21411081.1414                   21411078.8484
   7884142.39847   6177937.99644  22386547.7584                   22386546.3014
 -14259345.99247  -9225390.25445  22157377.3914                   22157377.8634
 -45699255.25847 -35555365.61344  22464483.2194                   22464478.9064
 -10119119.35247  -4695765.28944  22518332.8834   22518333.2074   19131862.58246
  15397801.60943                  24340478.4924   24340476.0704
 11  8 23  3  1 30.0000000  0 10G18G12G26G29G05G15G25G02G30G21
  23910408.87946  18700603.23042  24105270.9144                   24105270.9304
 -24010477.50846 -17169348.97344  23103666.4924   23103664.2734
   2258318.65247   2449942.59445  21716414.8524                   21716413.5514
  -9925256.75847  -5703089.99646  20891446.6954                   20891444.4774
 -28978687.07448 -22538605.24646  21410271.1644                   21410268.5864
   7718686.73447   6049011.55944  22355063.0164                   22355061.6214
 -14278449.53947  -9240276.17245  22153742.5164                   22153742.8324
 -45727580.83647 -35577437.51244  22459092.5004                   22459088.4414
 -10129672.95347  -4703988.88344  22516325.3444   22516324.5594   18998932.61346
  15294219.95343                  24315181.9534   24315180.9224
 11  8 23  3  2  0.0000000  0 10G18G12G26G29G05G15G25G02G30G21
  23749680.04746  18575360.16243  24074685.0084                   24074685.1334
 -23994375.74647 -17156802.16444  23106730.3204   23106728.9494
   2119844.66847   2342040.82045  21690064.6484                   21690062.6484
 -10060711.62947  -5808639.22346  20865670.3364                   20865668.1054
 -28982682.96148 -22541718.89846  21409510.6804                   21409508.2194
   7553447.75847   5920253.96945  22323618.7424                   22323617.2384
 -14297174.68747  -9254867.21145  22150178.7664                   22150179.5474
 -45755795.05947 -35599422.65244  22453724.0314                   22453719.9414
 -10139904.77747  -4711961.75044  22514378.6804   22514377.8874   18865979.27046
  15190620.07843                  24289881.7814   24289880.1454
 11  8 23  3  2 30.0000000  0 10G18G12G26G29G05G15G25G02G30G21
  25164584.40646  19677883.17642  24343932.6254                   24343932.2934
 -22402754.24647 -15916577.67244  23409606.0084   23409605.4924
   3557287.50447   3462126.16045  21963601.0004                   21963598.6914
  -8620401.51247  -4686319.62546  21139752.2504                   21139749.5784
 -27410995.38748 -21317027.26646  21708592.4454                   21708590.1804
   8963857.94147   7019274.94545  22592010.6644                   22592009.8554
 -12740100.10947  -8041562.36745  22446480.4304                   22446481.5634
 -44208472.70347 -34393716.93744  22748170.1884                   22748166.1174
  -8574394.17247  -3492083.36744  22812284.9384   22812284.7504   20308430.06646
  16314607.84843                  24564370.9774   24564369.3204
 11  8 23  3  3  0.0000000  0 10G18G12G26G29G05G15G25G02G30G21
  25004267.98446  19552961.44943  24313425.4844                   24313424.9064
 -22386459.59446 -15903880.57844  23412706.4844   23412705.4024
   3419796.19147   3354990.11745  21937436.8834                   21937435.3674
  -8755177.60547  -4791339.95346  21114105.4304                   21114102.8404
 -27414471.91848 -21319736.23046  21707931.0004                   21707928.4964
   8799064.55147   6890864.55945  22560651.8284                   22560650.3484
 -12758074.41047  -8055568.32845  22443059.6484                   22443060.9144
 -44236460.29347 -34415525.48444  22742843.5084                   22742839.9614
  -8583989.50047  -3499560.26644  22810459.9064   22810458.8834   20175431.14546
  16210972.43443                  24539062.4924   24539060.7814
 11  8 23  3  3 30.0000000  0 10G18G12G26G29G05G15G25G02G30G21
  24844158.73846  19428201.07043  24282957.7734                   24282957.0864
 -22370073.64547 -15891112.32044  23415825.1644   23415823.6644
   3282800.01247   3248239.87545  21911367.3204                   21911365.5084
  -8889611.54347  -4896093.63746  21088523.5234                   21088521.1604
 -27417693.58648 -21322246.59446  21707318.2194                   21707315.7154
   8634498.03147   6762630.94145  22529335.4224                   22529334.0084
 -12775678.33247  -8069285.68045  22439709.8524                   22439711.0204
 -44264334.89147 -34437245.99244  22737539.5474                   22737535.6564
  -8593272.06247  -3506793.45744  22808693.3444   22808691.9964   20042407.84846
  16107318.03143                  24513748.8834   24513746.8444
 11  8 23  3  4  0.0000000  0 10G18G12G26G29G05G15G25G02G30G21
  24684256.45346  19303601.98843  24252528.8754                   24252527.7584
 -22353600.85547 -15878276.44544  23418959.3594   23418957.8754
   3146300.87947   3141876.95345  21885392.4774                   21885390.6564
  -9023702.20748  -5000579.84846  21063006.5704                   21063004.4104
 -27420663.62547 -21324560.89146  21706752.8444                   21706750.7464
   8470160.07047   6634575.44945  22498063.3054                   22498061.4024
 -12792915.84047  -8082717.53145  22436429.3444                   22436431.1414
 -44292097.08647 -34458878.89544  22732256.8364                   22732252.5084
  -8602246.16847  -3513786.30544  22806985.3594   22806984.2194   19909358.44146
  16003643.28143                  24488430.3914   24488428.3874
 11  8 23  3  4 30.0000000  0 10G18G12G26G29G05G15G25G02G30G21
  24524564.57846  19179166.89143  24222140.0784                   24222139.3284
 -22337041.92247 -15865373.40244  23422110.9304   23422108.9614
   3010304.35947   3035905.66845  21859512.6884                   21859511.2274
  -9157444.81247  -5104794.82446  21037556.0784                   21037554.0004
 -27423382.27047 -21326679.29345  21706235.4304                   21706232.8754
   8306055.83647   6506702.06345  22466835.5164                   22466832.9454
 -12809787.69947  -8095864.44545  22433219.1644                   22433220.3554
 -44319744.36347 -34480422.25844  22726995.6414                   22726991.5824
  -8610912.87147  -3520539.59044  22805336.2584   22805334.9694   19776284.87146
  15899949.68443                  24463106.5004   24463105.6294
 11  8 23  3  5  0.0000000  0 10G18G12G26G29G05G15G25G02G30G21
  24365082.28146  19054895.07843  24191791.9614                   24191791.3594
 -22320401.25446 -15852406.71544  23425277.7274   23425276.5044
   2874811.91847   2930327.17645  21833729.8834                   21833728.2154
  -9290838.77347  -5208738.14546  21012172.1954                   21012169.5554
 -27425853.77047 -21328605.10945  21705765.0474                   21705762.8674
   8142187.10247   6379012.18845  22435652.0554                   22435650.1414
 -12826298.09047  -8108729.71145  22430077.3054                   22430078.5394
 -44347277.61747 -34501876.78544  22721756.1334                   22721751.4264
  -8619276.71147  -3527056.91844  22803744.8284   22803743.0744   19643185.59446
  15796236.08243                  24437778.6564   24437777.3954
 11  8 23  3  5 30.0000000  0 10G18G12G26G29G05G15G25G02G30G21
  24205809.53546  18930786.52743  24161483.1644                   24161483.1884
 -22303683.58246 -15839380.02744  23428458.4304   23428457.9804
   2739825.53547   2825143.02045  21808042.4924                   21808040.9384
  -9423883.08248  -5312409.01246  20986854.8054                   20986852.3484
 -27428081.64848 -21330341.10245  21705341.3594                   21705338.9924
   7978555.82047   6251507.34045  22404513.8284                   22404512.1214
 -12842451.39147  -8121316.72345  22427004.2274                   22427004.7734
 -44374698.15647 -34523243.44544  22716538.8594                   22716533.9574
  -8627342.15247  -3533341.69144  22802209.7114   22802208.0864   19510058.53146
  15692500.79343                  24412445.1484   24412443.9454
 11  8 23  3  6  0.0000000  0 10G18G12G26G29G05G15G25G02G30G21
  24046752.03146  18806845.73843  24131215.4304                   24131215.5394
 -22286886.83246 -15826291.69744  23431655.4454   23431653.9884
   2605352.84047   2720359.14545  21782452.7424                   21782451.4654
  -9556570.67247  -5415801.90646  20961604.9224                   20961603.1484
 -27430063.59848 -21331885.44945  21704964.1414                   21704961.6484
   7815169.54347   6124193.41045  22373422.9064                   22373421.1994
 -12858245.55947  -8133623.90645  22423998.1954                   22423998.5084
 -44402000.41847 -34544517.95744  22711342.9454                   22711338.4774
  -8635107.63347  -3539392.72744  22800731.7974   22800730.5984   19376907.98046
  15588747.19943                  24387107.1804   24387106.2974
 11  8 23  3  6 30.0000000  0 10G18G12G26G29G05G15G25G02G30G21
  23887908.29746  18683071.54743  24100988.5314                   24100988.4414
 -22270016.57847 -15813146.09444  23434865.8444   23434864.3714
   2471394.46147   2615976.02345  21756961.7814                   21756960.2344
  -9688901.64547  -5518916.92246  20936422.9614                   20936420.3404
 -27431804.64148 -21333242.09446  21704632.5634                   21704630.1294
   7652028.89147   5997070.88745  22342377.3524                   22342376.2384
 -12873685.88747  -8145655.36745  22421060.2894                   22421060.8134
 -44429186.53547 -34565701.96144  22706169.5314                   22706164.6134
  -8642578.68747  -3545214.34844  22799310.3594   22799309.3984   19243731.19946
  15484973.18043                  24361764.7274   24361762.9454
 11  8 23  3  7  0.0000000  0 10G18G12G26G29G05G15G25G02G30G21
  23729278.10246  18559463.72343  24070802.1254                   24070801.0234
 -22253077.27047 -15799946.68744  23438089.2424   23438087.8874
   2337952.10247   2511994.98445  21731568.5864                   21731566.9804
  -9820874.88748  -5621753.20346  20911309.7974                   20911307.0004
 -27433308.62148 -21334414.01246  21704346.6484                   21704344.0394
   7489135.85947   5870141.29745  22311379.7894                   22311378.5044
 -12888776.77047  -8157414.52045  22418188.1334                   22418189.3554
 -44456257.41047 -34586796.14544  22701017.6724                   22701013.5824
  -8649759.93047  -3550810.15244  22797943.6644   22797942.9224   19110526.38746
  15381177.33643                  24336417.1414   24336415.1564
 11  8 23  3  7 30.0000000  0 10G18G12G26G29G05G15G25G02G30G21
  23570860.58646  18436021.64843  24040655.5704                   24040654.5124
 -22236073.42646 -15786696.98044  23441324.9064   23441324.1454
   2205027.18447   2408417.16845  21706273.3444                   21706272.0354
  -9952489.95347  -5724310.38346  20886263.8054                   20886261.7774
 -27434579.77748 -21335404.52046  21704105.0084                   21704102.1294
   7326491.41447   5743405.40645  22280429.8754                   22280428.4574
 -12903522.80947  -8168904.98445  22415382.2344                   22415383.2074
 -44483214.28947 -34607801.53544  22695887.6484                   22695884.1684
  -8656656.37147  -3556184.02344  22796631.7504   22796630.9774   18977291.57046
  15277358.03943                  24311062.4384   24311061.2384
 11  8 23  3  8  0.0000000  0 10G18G12G26G29G05G15G25G02G30G21
  23412658.97346  18312747.80143  24010550.9694                   24010549.6254
 -22219005.86746 -15773397.64544  23444572.9384   23444572.2734
   2072624.79347   2305246.48845  21681078.4774                   21681077.0004
 -10083742.39848  -5826584.98446  20861287.6804                   20861285.3164
 -27435617.91048 -21336213.44146  21703907.0634                   21703904.7774
   7164101.08247   5616867.53145  22249528.5704                   22249526.2344
 -12917924.69947  -8180127.27745  22412642.0634                   22412642.6174
 -44510054.26247 -34628715.81644  22690780.7274                   22690776.8794
  -8663268.85947  -3561336.61744  22795372.9774   22795372.3484   18844028.59046
  15173516.87543                  24285704.1174   24285702.1414
 11  8 23  3  8 30.0000000  0 10G18G12G26G29G05G15G25G02G30G21
  23254672.77746  18189641.81643  23980487.2114                   23980485.8754
 -22201879.29746 -15760052.30144  23447831.5394   23447831.2734
   1940746.58247   2202484.25445  21655983.0084                   21655981.2034
 -10214631.24248  -5928576.27346  20836380.2504                   20836378.2194
 -27436427.03948 -21336843.93045  21703753.4224                   21703750.3794
   7001966.84847   5490529.19545  22218675.2894                   22218673.7344
 -12931986.65647  -8191084.65245  22409965.7894                   22409966.9924
 -44536778.45747 -34649539.89844  22685694.9924                   22685691.3014
  -8669601.98447  -3566271.55144  22794167.9694   22794167.5394   18710735.63346
  15069652.35943                  24260338.5084   24260337.2074
 11  8 23  3  9  0.0000000  0 10G18G12G26G29G05G15G25G02G30G21
  23096904.08646  18066705.26243  23950465.1804                   23950463.8484
 -22184695.51646 -15746662.37544  23451101.6414   23451101.2074
   1809396.41447   2100133.48845  21630987.2504                   21630986.0354
 -10345153.13747  -6030281.62546  20811542.5634                   20811540.3594
 -27437008.84848 -21337297.28145  21703642.4774                   21703639.5124
   6840092.47747   5364393.35245  22187871.4224                   22187869.5824
 -12945710.71147  -8201778.75845  22407354.1954                   22407355.8054
 -44563385.67247 -34670272.83244  22680631.9304                   22680628.1174
  -8675658.01247  -3570990.55944  22793015.6094   22793015.4614   18577413.12946
  14965764.79343                  24234967.8204   24234966.6644
 11  8 23  3  9 30.0000000  0 10G18G12G26G29G05G15G25G02G30G21
  22939351.92246  17943937.48043  23920483.0394                   23920482.7274
 -22167459.29746 -15733231.59444  23454381.0164   23454380.7774
   1678575.58647   1998195.20745  21606093.1954                   21606091.7854
 -10475307.75048  -6131700.78146  20786775.0164                   20786772.4144
 -27437367.37148 -21337576.64545  21703573.9614                   21703571.2734
   6678479.13747   5238460.91045  22157117.1094                   22157115.3204
 -12959101.75047  -8212213.35945  22404805.6174                   22404806.9774
 -44589877.09447 -34690915.53944  22675590.8674                   22675587.0554
  -8681441.92647  -3575497.53544  22791914.8834   22791914.7894   18444058.80546
  14861852.42643                  24209591.9454   24209589.8834
 11  8 23  3 10  0.0000000  0 10G18G12G26G29G05G15G25G02G30G21
  22782021.94546  17821342.81643  23890543.8284                   23890543.8014
 -22150169.41846 -15719758.99644  23457672.2194   23457670.6844
   1548291.31347   1896674.99245  21581300.9224                   21581299.4024
 -10605088.38348  -6232828.54346  20762078.5084                   20762076.1414
 -27437500.79747 -21337680.60945  21703549.0864                   21703546.2934
   6517134.32447   5112737.73845  22126414.6174                   22126412.8054
 -12972158.20747  -8222387.23045  22402320.8754                   22402322.2814
 -44616247.87547 -34711464.19944  22670572.6644                   22670568.6294
  -8686952.56647  -3579791.57844  22790866.3914   22790865.2974   18310676.76646
  14757918.46543                  24184210.5634   24184208.1484
 11  8 23  3 10 30.0000000  0 10G18G12G26G29G05G15G25G02G30G21
  22624915.87546  17698922.63343  23860647.2424                   23860647.5124
 -22132827.51246 -15706245.84843  23460971.3284   23460970.2074
   1418547.68047   1795576.08245  21556611.3914                   21556609.8054
 -10734491.38348  -6333662.02746  20737454.1094                   20737451.6214
 -27437410.22747 -21337610.03145  21703565.5784                   21703563.9144
   6356062.51647   4987227.28945  22095763.2894                   22095761.6214
 -12984881.82047  -8232301.75845  22399899.7814                   22399901.3094
 -44642496.52047 -34731917.72344  22665577.1334                   22665574.0234
  -8692191.85947  -3583874.18744  22789869.3524   22789868.6684   18177268.13346
  14653963.77743                  24158822.9844   24158820.7504
 11  8 23  3 11  0.0000000  0 10G18G12G26G29G05G15G25G02G30G21
  22468031.46146  17576675.16443  23830793.4224                   23830792.7814
 -22115439.77346 -15692696.98443  23464281.0234   23464279.4414
   1289344.59047   1694898.38345  21532024.7734                   21532023.6484
 -10863517.56248  -6434201.89846  20712901.3204                   20712898.8554
 -27437101.10247 -21337369.15245  21703624.6954                   21703621.8444
   6195263.43047   4861929.35945  22065164.1804                   22065162.7734
 -12997278.68447  -8241961.67645  22397540.8204                   22397542.1484
 -44668625.66847 -34752278.12144  22660604.9694                   22660602.1254
  -8697166.20747  -3587750.32444  22788922.4064   22788922.1054   18043829.18446
  14549985.43443                  24133429.5944   24133428.4734
 11  8 23  3 11 30.0000000  0 10G18G12G26G29G05G15G25G02G30G21
  22311369.40646  17454600.93043  23800981.8674                   23800981.2704
 -22098009.69146 -15679115.15243  23467597.2814   23467596.1024
   1160684.25447   1594643.59045  21507542.0944                   21507540.0514
 -10992165.79348  -6534447.25846  20688420.2974                   20688418.1524
 -27436576.93047 -21336960.71545  21703724.5554                   21703721.8484
   6034739.53947   4736845.85245  22034617.5554                   22034615.6524
 -13009352.52347  -8251369.90245  22395243.3984                   22395244.3134
 -44694635.40247 -34772545.48044  22655657.0314                   22655652.7344
  -8701879.48447  -3591423.06244  22788025.9224   22788025.1174   17910358.86746
  14445982.70343                  24108031.8444   24108029.8094
 11  8 23  3 12  0.0000000  0 10G18G12G26G29G05G15G25G02G30G21
  22154931.99246  17332701.71943  23771213.5004                   23771212.1374
 -22080538.58647 -15665501.32843  23470922.2584   23470921.1094
   1032571.00847   1494815.08645  21483162.6094                   21483160.8874
 -11120431.66048  -6634394.67246  20664011.9384                   20664009.4734
 -27435837.96547 -21336384.91045  21703864.8594                   21703862.9614
   5874495.58647   4611980.48045  22004123.9844                   22004122.2234
 -13021104.54347  -8260527.35545  22393007.8754                   22393008.2274
 -44720523.41047 -34792717.98444  22650730.4304                   22650726.4104
  -8706333.21947  -3594893.55144  22787178.8054   22787177.1914   17776858.49646
  14341956.52743                  24082627.4454   24082625.5984
 11  8 23  3 12 30.0000000  0 10G18G12G26G29G05G15G25G02G30G21
  21998717.14846  17210975.96943  23741486.0084                   23741485.0704
 -22063032.64146 -15651860.37143  23474254.1884   23474252.0784
    905004.62147   1395412.73445  21458887.3204                   21458885.6564
 -11248316.21948  -6734044.95746  20639676.5164                   20639674.1804
 -27434889.85947 -21335646.13745  21704045.6414                   21704042.9494
   5714531.59847   4487333.25045  21973683.7814                   21973682.3594
 -13032540.87547  -8269438.82445  22390831.5164                   22390831.6414
 -44746292.57047 -34812797.86744  22645826.6094                   22645822.8594
  -8710533.69547  -3598166.69144  22786379.6334   22786378.0784   17643324.99646
  14237904.55143                  24057217.2584   24057215.3364
 11  8 23  3 13  0.0000000  0 10G18G12G26G29G05G15G25G02G30G21
  23418150.96546  18317028.38743  24011594.9064                   24011594.6024
 -20470075.16447 -14410594.85944  23777384.0554   23777382.4844
   2353412.46147   2524042.23845  21734510.2424                   21734509.0864
  -9800392.82048  -5605792.94146  20915207.1254                   20915204.9774
 -25858314.83648 -20107146.12545  22004057.6644                   22004054.8834
   7130275.90647   5590510.68445  22243091.1804                   22243089.5904
 -11468243.99647  -7050506.22745  22688507.4614                   22688507.7154
 -43196521.36347 -33605183.98444  22940737.7114                   22940734.1334
  -7139063.85947  -2373644.78144  23085420.0164   23085418.8284   19085182.04346
  15361429.62143                  24331592.9694   24331590.9774
 11  8 23  3 13 30.0000000  0 10G18G12G26G29G05G15G25G02G30G21
  23262386.81646  18195653.83243  23981953.6884                   23981953.7194
 -20452505.31247 -14396904.09844  23780727.3834   23780726.0204
   2226951.53947   2425501.28545  21710445.8284                   21710444.3594
  -9927504.87148  -5704841.28146  20891018.2274                   20891016.1684
 -25856952.60247 -20106084.66445  22004317.3914                   22004314.1914
   6970883.79347   5466309.10245  22212759.7274                   22212758.1024
 -11479054.87547  -7058930.33245  22686450.0164                   22686450.7664
 -43222048.38346 -33625075.19144  22935879.5704                   22935876.1764
  -7142764.49247  -2376528.43444  23084715.9534   23084714.6644   18951583.31646
  15257326.81643                  24306170.1174   24306167.8094
 11  8 23  3 14  0.0000000  0 10G18G12G26G29G05G15G25G02G30G21
  23106847.31646  18074454.34443  23952355.5164                   23952354.3674
 -20434909.74247 -14383193.30144  23784076.1024   23784074.6524
   2101045.54347   2327392.73045  21686486.3204                   21686485.2704
 -10054229.27748  -5803587.55146  20866902.8674                   20866901.0744
 -25855389.01647 -20104866.31245  22004615.0784                   22004611.8674
   6811780.40247   5342332.48845  22182483.8834                   22182481.5704
 -11489559.47347  -7067115.76245  22684451.3284                   22684451.5594
 -43247455.63347 -33644873.05144  22931045.4304                   22931041.0904
  -7146222.00047  -2379222.61344  23084058.5314   23084056.6914   18817949.71146
  15153196.82443                  24280740.4304   24280738.3914
 11  8 23  3 14 30.0000000  0 10G18G12G26G29G05G15G25G02G30G21
  22951537.55546  17953433.86743  23922800.7974                   23922800.1604
 -20417287.23047 -14369461.50844  23787428.8674   23787427.6054
   1975701.36747   2229721.96145  21662634.2894                   21662632.7734
 -10180559.56648  -5902026.72746  20842863.5164                   20842861.5664
 -25853622.11347 -20103489.52045  22004951.0784                   22004948.1844
   6652972.64147   5218586.25445  22152263.4844                   22152261.4384
 -11499756.61347  -7075061.63745  22682510.4774                   22682511.2894
 -43272738.29747 -33664573.85544  22926234.2344                   22926230.0664
  -7149435.32047  -2381726.51644  23083446.6334   23083444.7504   18684285.05946
  15049042.65243                  24255305.0004   24255302.7894
 11  8 23  3 15  0.0000000  0 10G18G12G26G29G05G15G25G02G30G21
  22796456.34846  17832591.45343  23893290.6094                   23893288.7544
 -20399642.96947 -14355712.77344  23790785.8834   23790785.8874
   1850919.76647   2132489.56645  21638889.1644                   21638887.5514
 -10306495.50048  -6000158.60546  20818898.5634                   20818896.5514
 -25851656.04747 -20101957.53545  22005324.8754                   22005322.0204
   6494461.64147   5095071.24645  22122099.9224                   22122097.6174
 -11509651.41047  -7082771.89145  22680627.4534                   22680628.8554
 -43297898.33647 -33684179.10944  22921446.6484                   22921442.6374
  -7152409.94147  -2384044.42244  23082880.5784   23082879.4384   18550587.05546
  14944862.46143                  24229862.8134   24229860.8954
 11  8 23  3 15 30.0000000  0 10G18G12G26G29G05G15G25G02G30G21
  22641604.92246  17711928.13343  23863823.3674                   23863821.2074
 -20381979.39847 -14341948.99644  23794147.7344   23794146.8794
   1726703.69947   2035697.83645  21615251.7194                   21615250.0514
 -10432034.81248  -6097981.42646  20795009.6254                   20795007.1724
 -25849493.23047 -20100272.23045  22005736.5394                   22005733.7544
   6336250.77747   4971790.11345  22091993.1334                   22091990.9104
 -11519246.61347  -7090248.68445  22678801.2194                   22678802.6954
 -43322934.56647 -33703687.89544  22916682.7504                   22916678.5004
  -7155148.69146  -2386178.53144  23082358.7664   23082358.7664   18416855.74246
  14840656.33643                  24204414.3444   24204412.6804
 11  8 23  3 16  0.0000000  0 10G18G12G26G29G05G15G25G02G30G21
  22486986.94946  17591446.73843  23834400.2894                   23834399.0234
 -20364296.86347 -14328170.44544  23797512.8674   23797511.8054
   1603058.54747   1939350.99245  21591722.6484                   21591721.4344
 -10557172.46547  -6195491.26646  20771196.4614                   20771194.0634
 -25847133.08247 -20098433.16445  22006185.4844                   22006183.3914
   6178345.73047   4848747.26645  22061945.0634                   22061942.9734
 -11528542.51247  -7097492.25045  22677032.6884                   22677033.6524
 -43347844.00847 -33723097.86744  22911941.9304                   22911938.3364
  -7157652.09446  -2388129.26244  23081882.6484   23081882.6844   18283093.53146
  14736426.14143                  24178960.2894   24178958.5594
 11  8 23  3 16 30.0000000  0 10G18G12G26G29G05G15G25G02G30G21
  22332597.44947  17471143.37543  23805021.0394                   23805020.1724
 -20346603.60946 -14314383.52044  23800879.3284   23800878.7344
   1479981.87947   1843447.12145  21568302.0314                   21568300.5864
 -10681911.52347  -6292690.51646  20747459.1174                   20747457.0164
 -25844583.66447 -20096446.60245  22006670.6564                   22006668.2704
   6020744.26247   4725940.98845  22031954.4924                   22031952.4264
 -11537547.48847  -7104509.12545  22675318.8524                   22675320.1724
 -43372631.33647 -33742412.69944  22907224.8674                   22907221.7974
  -7159928.69546  -2389903.25444  23081449.8674   23081449.3754   18149294.45746
  14632167.20743                  24153499.5704   24153497.2894
 11  8 23  3 17  0.0000000  0 10G18G12G26G29G05G15G25G02G30G21
  22178443.07447  17351023.19544  23775686.5474                   23775685.5044
 -20328896.90246 -14300586.13743  23804248.2424   23804248.7384
   1357481.37147   1747992.20345  21544990.7424                   21544989.3954
 -10806244.11748  -6389573.04746  20723799.9924                   20723797.2504
 -25841841.35247 -20094309.73845  22007192.3054                   22007190.3554
   5863454.86747   4603377.87145  22002022.9614                   22002020.9304
 -11546259.08247  -7111297.39845  22673661.1094                   22673662.7504
 -43397290.74647 -33761627.85944  22902532.8594                   22902529.5664
  -7161976.24646  -2391498.77744  23081059.3914   23081059.9224   18015463.99246
  14527883.82043                  24128031.1414   24128029.7934
 11  8 23  3 17 30.0000000  0 10G18G12G26G29G05G15G25G02G30G21
  22024520.21946  17231083.43443  23746395.6724                   23746394.8204
 -20311183.90246 -14286783.85543  23807618.5084   23807618.7664
   1235555.82047   1652985.30145  21521789.7584                   21521787.4964
 -10930172.39148  -6486140.51646  20700217.0784                   20700214.6024
 -25838912.82447 -20092027.78145  22007750.0314                   22007747.2424
   5706476.20347   4481056.87145  21972150.8444                   21972149.0354
 -11554684.53947  -7117862.72345  22672058.0234                   22672059.2194
 -43421826.14147 -33780746.40644  22897864.3054                   22897860.8204
  -7163802.15247  -2392921.61344  23080712.6954   23080712.1564   17881597.56646
  14423572.39143                  24102558.1024   24102555.8014
 11  8 23  3 18  0.0000000  0 10G18G12G26G29G05G15G25G02G30G21
  21870828.65646  17111323.92643  23717148.5084                   23717147.6604
 -20293468.70746 -14272979.86743  23810991.0314   23810989.9454
   1114206.50047   1558427.40245  21498697.3054                   21498695.3594
 -11053695.41448  -6582392.19546  20676711.3364                   20676708.8204
 -25835801.54347 -20089603.40645  22008342.0314                   22008339.4804
   5549810.33247   4358979.62545  21942338.1564                   21942335.9264
 -11562827.93747  -7124208.25445  22670508.6174                   22670509.3404
 -43446237.91847 -33799768.57844  22893218.7584                   22893214.5664
  -7165410.69147  -2394175.05944  23080406.8914   23080405.3794   17747694.05546
  14319232.05943                  24077076.7974   24077074.5274
